[[{"header":{"parameterUnit":"m.s-1","parameterCategory":1,"la1":30.6,"la2":28.766,"lo1":-90.7593,"lo2":-88.6598,"dy":0.0162,"dx":0.0183,"nx":116,"ny":114,"refTime":"2024-04-03T18:00:00:Z","depth":0,"parameterNumber":2,"parameterNumberName":"U-component_of_WINDS"},"data":[0.0,0.0,0.0,0.0,0.0,0.0,0.0,0.0,0.0,0.0,0.0,0.0,0.0,0.0,0.0,0.0,0.0,0.0,0.0,0.0,0.0,0.0,0.0,0.0,0.0,0.0,0.0,0.0,0.0,0.0,0.0,0.0,0.0,0.0,0.0,0.0,0.0,0.0,0.0,0.0,0.0,0.0,0.0,0.0,0.0,0.0,0.0,0.0,0.0,0.0,0.0,0.0,0.0,0.0,0.0,0.0,0.0,0.0,0.0,0.0,0.0,0.0,0.0,0.0,0.0,0.0,0.0,0.0,0.0,0.0,0.0,0.0,0.0,0.0,0.0,0.0,0.0,0.0,0.0,0.0,0.0,0.0,0.0,0.0,0.0,0.0,0.0,0.0,0.0,0.0,0.0,0.0,0.0,0.0,0.0,0.0,0.0,0.0,0.0,0.0,0.0,0.0,0.0,0.0,0.0,0.0,0.0,0.0,0.0,0.0,0.0,0.0,0.0,0.0,0.0,0.0,0.0,0.0,0.0,0.0,0.0,0.0,0.0,0.0,0.0,0.0,0.0,0.0,0.0,0.0,0.0,0.0,0.0,0.0,0.0,0.0,0.0,0.0,0.0,0.0,0.0,0.0,0.0,0.0,0.0,0.0,0.0,0.0,0.0,0.0,0.0,0.0,0.0,0.0,0.0,0.0,0.0,0.0,0.0,0.0,0.0,0.0,0.0,0.0,0.0,0.0,0.0,0.0,0.0,0.0,0.0,0.0,0.0,0.0,0.0,0.0,0.0,0.0,0.0,0.0,0.0,0.0,0.0,0.0,0.0,0.0,0.0,0.0,0.0,0.0,0.0,0.0,0.0,0.0,0.0,0.0,0.0,0.0,0.0,0.0,0.0,0.0,0.0,0.0,0.0,0.0,0.0,0.0,0.0,0.0,0.0,0.0,0.0,0.0,0.0,0.0,0.0,0.0,0.0,0.0,0.0,0.0,0.0,0.0,0.0,0.0,0.0,0.0,0.0,0.0,0.0,0.0,0.0,0.0,0.0,0.0,0.0,0.0,0.0,0.0,0.0,0.0,0.0,0.0,0.0,0.0,0.0,0.0,0.0,0.0,0.0,0.0,0.0,0.0,0.0,0.0,0.0,0.0,0.0,0.0,0.0,0.0,0.0,0.0,0.0,0.0,0.0,0.0,0.0,0.0,0.0,0.0,0.0,0.0,0.0,0.0,0.0,0.0,0.0,0.0,0.0,0.0,0.0,0.0,0.0,0.0,0.0,0.0,0.0,0.0,0.0,0.0,0.0,0.0,0.0,0.0,0.0,0.0,0.0,0.0,0.0,0.0,0.0,0.0,0.0,0.0,0.0,0.0,0.0,0.0,0.0,0.0,0.0,0.0,0.0,0.0,0.0,0.0,0.0,0.0,0.0,0.0,0.0,0.0,0.0,0.0,0.0,0.0,0.0,0.0,0.0,0.0,0.0,0.0,0.0,0.0,0.0,0.0,0.0,0.0,0.0,0.0,0.0,0.0,0.0,0.0,0.0,0.0,0.0,0.0,0.0,0.0,0.0,0.0,0.0,0.0,0.0,0.0,0.0,0.0,0.0,0.0,0.0,0.0,0.0,0.0,0.0,0.0,0.0,0.0,0.0,0.0,0.0,0.0,0.0,0.0,0.0,0.0,0.0,0.0,0.0,0.0,0.0,0.0,0.0,0.0,0.0,0.0,0.0,0.0,0.0,0.0,0.0,0.0,0.0,0.0,0.0,0.0,0.0,0.0,0.0,0.0,0.0,0.0,0.0,0.0,0.0,0.0,0.0,0.0,0.0,0.0,0.0,0.0,0.0,0.0,0.0,0.0,0.0,0.0,0.0,0.0,0.0,0.0,0.0,0.0,0.0,0.0,0.0,0.0,0.0,0.0,0.0,0.0,0.0,0.0,0.0,0.0,0.0,0.0,0.0,0.0,0.0,0.0,0.0,0.0,0.0,0.0,0.0,0.0,0.0,0.0,0.0,0.0,0.0,0.0,0.0,0.0,0.0,0.0,0.0,0.0,0.0,0.0,0.0,0.0,0.0,0.0,0.0,0.0,0.0,0.0,0.0,0.0,0.0,0.0,0.0,0.0,0.0,0.0,0.0,0.0,0.0,0.0,0.0,0.0,0.0,0.0,0.0,0.0,0.0,0.0,0.0,0.0,0.0,0.0,0.0,0.0,0.0,0.0,0.0,0.0,0.0,0.0,0.0,0.0,0.0,0.0,0.0,0.0,0.0,0.0,0.0,0.0,0.0,0.0,0.0,0.0,0.0,0.0,0.0,0.0,0.0,0.0,0.0,0.0,0.0,0.0,0.0,0.0,0.0,0.0,0.0,0.0,0.0,0.0,0.0,0.0,0.0,0.0,0.0,0.0,0.0,0.0,0.0,0.0,0.0,0.0,0.0,0.0,0.0,0.0,0.0,0.0,0.0,0.0,0.0,0.0,0.0,0.0,0.0,0.0,0.0,0.0,0.0,0.0,0.0,0.0,0.0,0.0,0.0,0.0,0.0,0.0,0.0,0.0,0.0,0.0,0.0,0.0,0.0,0.0,0.0,0.0,0.0,0.0,0.0,0.0,0.0,0.0,0.0,0.0,0.0,0.0,0.0,0.0,0.0,0.0,0.0,0.0,0.0,0.0,0.0,0.0,0.0,0.0,0.0,0.0,0.0,0.0,0.0,0.0,0.0,0.0,0.0,0.0,0.0,0.0,0.0,0.0,0.0,0.0,0.0,0.0,0.0,0.0,0.0,0.0,0.0,0.0,0.0,0.0,0.0,0.0,0.0,0.0,0.0,0.0,0.0,0.0,0.0,0.0,0.0,0.0,0.0,0.0,0.0,0.0,0.0,0.0,0.0,0.0,0.0,0.0,0.0,0.0,0.0,0.0,0.0,0.0,0.0,0.0,0.0,0.0,0.0,0.0,0.0,0.0,0.0,0.0,0.0,0.0,0.0,0.0,0.0,0.0,0.0,0.0,0.0,0.0,0.0,0.0,0.0,0.0,0.0,0.0,0.0,0.0,0.0,0.0,0.0,0.0,0.0,0.0,0.0,0.0,0.0,0.0,0.0,0.0,0.0,0.0,0.0,0.0,0.0,0.0,0.0,0.0,0.0,0.0,0.0,0.0,0.0,0.0,0.0,0.0,0.0,0.0,0.0,0.0,0.0,0.0,0.0,0.0,0.0,0.0,0.0,0.0,0.0,0.0,0.0,0.0,0.0,0.0,0.0,0.0,0.0,0.0,0.0,0.0,0.0,0.0,0.0,0.0,0.0,0.0,0.0,0.0,0.0,0.0,0.0,0.0,0.0,0.0,0.0,0.0,0.0,0.0,0.0,0.0,0.0,0.0,0.0,0.0,0.0,0.0,0.0,0.0,0.0,0.0,0.0,0.0,0.0,0.0,0.0,0.0,0.0,0.0,0.0,0.0,0.0,0.0,0.0,0.0,0.0,0.0,0.0,0.0,0.0,0.0,0.0,0.0,0.0,0.0,0.0,0.0,0.0,0.0,0.0,0.0,0.0,0.0,0.0,0.0,0.0,0.0,0.0,0.0,0.0,0.0,0.0,0.0,0.0,0.0,0.0,0.0,0.0,0.0,0.0,0.0,0.0,0.0,0.0,0.0,0.0,0.0,0.0,0.0,0.0,0.0,0.0,0.0,0.0,0.0,0.0,0.0,0.0,0.0,0.0,0.0,0.0,0.0,0.0,0.0,0.0,0.0,0.0,0.0,0.0,0.0,0.0,0.0,0.0,0.0,0.0,0.0,0.0,0.0,0.0,0.0,0.0,0.0,0.0,0.0,0.0,0.0,0.0,0.0,0.0,0.0,0.0,0.0,0.0,0.0,0.0,0.0,0.0,0.0,0.0,0.0,0.0,0.0,0.0,0.0,0.0,0.0,0.0,0.0,0.0,0.0,0.0,0.0,0.0,0.0,0.0,0.0,0.0,0.0,0.0,0.0,0.0,0.0,0.0,0.0,0.0,0.0,0.0,0.0,0.0,0.0,0.0,0.0,0.0,0.0,0.0,0.0,0.0,0.0,0.0,0.0,0.0,0.0,0.0,0.0,0.0,0.0,0.0,0.0,0.0,0.0,0.0,0.0,0.0,0.0,0.0,0.0,0.0,0.0,0.0,0.0,0.0,0.0,0.0,0.0,0.0,0.0,0.0,0.0,0.0,0.0,0.0,0.0,0.0,0.0,0.0,0.0,0.0,0.0,0.0,0.0,0.0,0.0,0.0,0.0,0.0,0.0,0.0,0.0,0.0,0.0,0.0,0.0,0.0,0.0,0.0,0.0,0.0,0.0,0.0,0.0,0.0,0.0,0.0,0.0,0.0,0.0,0.0,0.0,0.0,0.0,0.0,0.0,0.0,0.0,0.0,0.0,0.0,0.0,0.0,0.0,0.0,0.0,0.0,0.0,0.0,0.0,0.0,0.0,0.0,0.0,0.0,0.0,0.0,0.0,0.0,0.0,0.0,0.0,0.0,0.0,0.0,0.0,0.0,0.0,0.0,0.0,0.0,0.0,0.0,0.0,0.0,0.0,0.0,0.0,0.0,0.0,0.0,0.0,0.0,0.0,0.0,0.0,0.0,0.0,0.0,0.0,0.0,0.0,0.0,0.0,0.0,0.0,0.0,0.0,0.0,0.0,0.0,0.0,0.0,0.0,0.0,0.0,0.0,0.0,0.0,0.0,0.0,0.0,0.0,0.0,0.0,0.0,0.0,0.0,0.0,0.0,0.0,0.0,0.0,0.0,0.0,0.0,0.0,0.0,0.0,0.0,0.0,0.0,0.0,0.0,0.0,0.0,0.0,0.0,0.0,0.0,0.0,0.0,0.0,0.0,0.0,0.0,0.0,0.0,0.0,0.0,0.0,0.0,0.0,0.0,0.0,0.0,0.0,0.0,0.0,0.0,0.0,0.0,0.0,0.0,0.0,0.0,0.0,0.0,0.0,0.0,0.0,0.0,0.0,0.0,0.0,0.0,0.0,0.0,0.0,0.0,0.0,0.0,0.0,0.0,0.0,0.0,0.0,0.0,0.0,0.0,0.0,0.0,0.0,0.0,0.0,0.0,0.0,0.0,0.0,0.0,0.0,0.0,0.0,0.0,0.0,0.0,0.0,0.0,0.0,0.0,0.0,0.0,0.0,0.0,0.0,0.0,0.0,0.0,0.0,0.0,0.0,0.0,0.0,0.0,0.0,0.0,0.0,0.0,0.0,0.0,0.0,0.0,0.0,0.0,0.0,0.0,0.0,0.0,0.0,0.0,0.0,0.0,0.0,0.0,0.0,0.0,0.0,0.0,0.0,0.0,0.0,0.0,0.0,0.0,0.0,0.0,0.0,0.0,0.0,0.0,0.0,0.0,0.0,0.0,0.0,0.0,0.0,0.0,0.0,0.0,0.0,0.0,0.0,0.0,0.0,0.0,0.0,0.0,0.0,0.0,0.0,0.0,0.0,0.0,0.0,0.0,0.0,0.0,0.0,0.0,0.0,0.0,0.0,0.0,0.0,0.0,0.0,0.0,0.0,0.0,0.0,0.0,0.0,0.0,0.0,0.0,0.0,0.0,0.0,0.0,0.0,0.0,0.0,0.0,0.0,0.0,0.0,0.0,0.0,0.0,0.0,0.0,0.0,0.0,0.0,0.0,0.0,0.0,0.0,0.0,0.0,0.0,0.0,0.0,0.0,0.0,0.0,0.0,0.0,0.0,0.0,0.0,0.0,0.0,0.0,0.0,0.0,0.0,0.0,0.0,0.0,0.0,0.0,0.0,0.0,0.0,0.0,0.0,0.0,0.0,0.0,0.0,0.0,0.0,0.0,0.0,0.0,0.0,0.0,0.0,0.0,0.0,0.0,0.0,0.0,0.0,0.0,0.0,0.0,0.0,0.0,0.0,0.0,0.0,0.0,0.0,0.0,0.0,0.0,0.0,0.0,0.0,0.0,0.0,0.0,0.0,0.0,0.0,0.0,0.0,0.0,0.0,0.0,0.0,0.0,0.0,0.0,0.0,0.0,0.0,0.0,0.0,0.0,0.0,0.0,0.0,0.0,0.0,0.0,0.0,0.0,0.0,0.0,0.0,-4.1543,-4.1114,0.0,0.0,0.0,0.0,0.0,0.0,0.0,0.0,0.0,0.0,0.0,0.0,0.0,0.0,0.0,0.0,0.0,0.0,0.0,0.0,0.0,0.0,0.0,-4.8134,-4.8134,-4.8134,-4.8134,-4.8134,-4.8134,-4.8134,0.0,0.0,0.0,0.0,-4.8134,-4.8134,-4.8134,-4.8134,-4.8134,-4.7633,-4.6814,-4.6155,-4.5845,-4.5774,0.0,0.0,0.0,0.0,0.0,0.0,0.0,0.0,0.0,0.0,0.0,0.0,0.0,0.0,0.0,0.0,0.0,0.0,0.0,0.0,0.0,0.0,0.0,0.0,0.0,0.0,0.0,0.0,0.0,0.0,0.0,0.0,0.0,0.0,0.0,0.0,0.0,0.0,0.0,0.0,0.0,0.0,0.0,0.0,0.0,0.0,0.0,0.0,0.0,0.0,0.0,0.0,0.0,0.0,0.0,0.0,0.0,0.0,0.0,0.0,0.0,0.0,0.0,0.0,0.0,0.0,0.0,0.0,0.0,0.0,-4.2384,-4.2133,0.0,0.0,0.0,0.0,0.0,0.0,0.0,0.0,0.0,0.0,0.0,0.0,0.0,0.0,0.0,0.0,0.0,0.0,0.0,0.0,0.0,-4.8134,-4.8134,-4.8134,-4.8134,-4.8134,-4.8134,-4.8134,-4.8134,-4.8134,-4.8134,-4.8134,-4.8134,-4.8134,-4.8134,-4.8134,-4.8134,-4.8134,-4.7903,-4.7312,-4.6374,-4.5858,-4.5727,-4.6017,-4.6245,0.0,0.0,0.0,0.0,0.0,0.0,0.0,0.0,0.0,0.0,0.0,0.0,0.0,0.0,0.0,0.0,0.0,0.0,0.0,0.0,0.0,0.0,0.0,0.0,0.0,0.0,0.0,0.0,0.0,0.0,0.0,0.0,0.0,0.0,0.0,0.0,0.0,0.0,0.0,0.0,0.0,0.0,0.0,0.0,0.0,0.0,0.0,0.0,0.0,0.0,0.0,0.0,0.0,0.0,0.0,0.0,0.0,0.0,0.0,0.0,0.0,0.0,0.0,-4.2986,-4.2986,-4.2986,-4.2986,-4.2986,-4.2986,-4.2986,-4.2986,-4.2986,-4.2986,0.0,0.0,0.0,0.0,0.0,0.0,0.0,0.0,0.0,0.0,0.0,0.0,0.0,0.0,0.0,0.0,0.0,0.0,0.0,-4.8134,-4.8134,-4.8134,-4.8134,-4.8134,-4.8134,-4.8134,-4.8134,-4.8134,-4.8134,-4.8134,-4.8134,-4.8134,-4.8134,-4.8134,-4.8134,-4.8134,-4.7078,-4.6531,-4.6374,-4.6292,-4.5739,-4.4864,-4.5856,-4.6514,-4.6862,0.0,0.0,0.0,0.0,0.0,0.0,0.0,0.0,0.0,0.0,0.0,0.0,0.0,0.0,0.0,0.0,0.0,0.0,0.0,0.0,0.0,0.0,0.0,0.0,0.0,0.0,0.0,0.0,0.0,0.0,0.0,0.0,0.0,0.0,0.0,0.0,0.0,0.0,0.0,0.0,0.0,-4.276,-4.276,0.0,0.0,0.0,0.0,0.0,0.0,0.0,0.0,0.0,0.0,0.0,0.0,0.0,-4.2936,-4.2861,-4.2936,-4.2986,-4.2986,-4.2986,-4.2986,-4.2986,-4.2986,-4.2986,-4.2986,-4.2986,0.0,-4.2986,-4.2986,0.0,0.0,0.0,0.0,0.0,0.0,0.0,0.0,0.0,0.0,0.0,0.0,0.0,0.0,0.0,0.0,0.0,0.0,0.0,0.0,0.0,-4.8134,-4.8134,-4.8134,-4.8134,-4.8134,-4.8134,-4.8134,-4.8134,-4.8134,-4.8134,-4.8134,-4.8134,-4.7466,-4.6818,-4.6164,-4.5021,-4.4401,-4.4427,-4.4615,-4.4481,-4.4183,-4.5336,-4.5731,-4.5504,-4.6007,0.0,0.0,0.0,0.0,0.0,0.0,0.0,0.0,0.0,0.0,0.0,0.0,0.0,0.0,0.0,0.0,0.0,0.0,0.0,0.0,0.0,0.0,0.0,0.0,0.0,0.0,0.0,0.0,0.0,0.0,0.0,0.0,0.0,0.0,0.0,0.0,0.0,0.0,0.0,-4.2986,-4.2986,-4.2986,-4.2986,-4.293,0.0,0.0,0.0,0.0,0.0,0.0,0.0,0.0,0.0,-4.3487,-4.3487,-4.3487,-4.3487,-4.3487,-4.3487,-4.3487,-4.3487,-4.3487,-4.3487,-4.3487,-4.3487,-4.3487,-4.3487,-4.3487,-4.3487,-4.3154,-4.2986,-4.2986,0.0,0.0,0.0,0.0,-4.2986,-4.2986,0.0,0.0,0.0,0.0,0.0,0.0,0.0,0.0,0.0,0.0,0.0,0.0,-4.8134,-4.8134,-4.8134,-4.8134,-4.8134,-4.8134,-4.8134,-4.8134,-4.8134,-4.8134,-4.8134,-4.7953,-4.7699,-4.6531,-4.5502,-4.4589,-4.3441,-4.2886,-4.2886,-4.3134,-4.3245,-4.3275,-4.4427,-4.505,-4.5229,-4.5926,-4.6439,-4.6764,0.0,0.0,0.0,0.0,0.0,0.0,0.0,0.0,0.0,0.0,0.0,0.0,0.0,0.0,0.0,0.0,0.0,0.0,0.0,0.0,0.0,0.0,0.0,0.0,0.0,0.0,0.0,0.0,0.0,0.0,0.0,0.0,0.0,0.0,0.0,0.0,0.0,-4.2986,-4.2986,-4.2986,-4.2986,-4.293,0.0,0.0,0.0,0.0,0.0,0.0,-4.3899,-4.3899,-4.3899,-4.3899,-4.3899,-4.3899,-4.3899,-4.3899,-4.3844,-4.3764,-4.3764,-4.3764,-4.3764,-4.3764,-4.3844,-4.3899,-4.3899,-4.3899,-4.3844,-4.3432,-4.3209,-4.3209,-4.3209,-4.3209,-4.3209,-4.3209,-4.3209,-4.3209,0.0,0.0,0.0,0.0,0.0,0.0,0.0,0.0,0.0,0.0,0.0,-4.8134,-4.8134,-4.8134,-4.8134,-4.8134,-4.8134,-4.8134,-4.8134,-4.8134,-4.8134,-4.8134,-4.8134,-4.7568,-4.6531,-4.5289,-4.4643,-4.4589,-4.3441,-4.2886,-4.2886,-4.2942,-4.2519,-4.1777,-4.2992,-4.5102,-4.7813,-4.761,-4.8267,-4.9533,-4.9533,0.0,0.0,0.0,0.0,0.0,0.0,0.0,0.0,0.0,0.0,0.0,0.0,0.0,0.0,0.0,0.0,0.0,0.0,0.0,0.0,0.0,0.0,0.0,0.0,0.0,0.0,0.0,0.0,0.0,0.0,0.0,0.0,0.0,0.0,0.0,0.0,0.0,0.0,-4.2986,-4.2986,0.0,0.0,0.0,0.0,-4.3406,-4.3708,-4.3899,-4.3899,-4.3899,-4.3899,-4.3899,-4.3899,-4.3899,-4.3899,-4.3899,-4.3708,-4.3462,-4.3462,-4.3462,-4.3462,-4.3462,-4.3572,-4.3899,-4.3899,-4.3899,-4.3899,-4.3844,-4.3844,-4.3844,-4.3844,-4.3844,-4.3844,-4.3844,-4.3844,-4.3844,0.0,0.0,0.0,0.0,0.0,-4.7931,-4.8083,-4.8134,-4.8134,-4.8134,-4.8134,-4.8134,-4.8134,-4.8134,-4.8134,-4.8134,-4.8134,-4.7801,-4.7026,-4.7026,-4.6635,-4.5873,-4.582,-4.5289,-4.4183,-4.3716,-4.3164,-4.2432,-4.198,-4.1834,-4.1834,-4.2231,-4.2231,-4.1972,-4.2793,-4.4126,-4.5873,-4.5555,-4.582,-4.6556,-4.7229,-4.7536,0.0,0.0,0.0,0.0,0.0,0.0,0.0,0.0,0.0,0.0,0.0,0.0,0.0,0.0,0.0,0.0,0.0,0.0,0.0,0.0,0.0,0.0,0.0,0.0,0.0,0.0,0.0,0.0,0.0,0.0,0.0,0.0,0.0,0.0,0.0,0.0,0.0,-4.2986,-4.3129,0.0,-4.3042,-4.3432,-4.3708,-4.3708,-4.3984,-4.4203,-4.4422,-4.4422,-4.4422,-4.4422,-4.4422,-4.4422,-4.4422,-4.4422,-4.4258,-4.3958,-4.4177,-4.4068,-4.3708,-4.3929,-4.3929,-4.3899,-4.4064,-4.4148,-4.4148,-4.4367,-4.4203,-4.3899,-4.3899,-4.3899,-4.3899,-4.3899,-4.3899,-4.3899,0.0,0.0,0.0,0.0,-4.7829,-4.788,-4.8083,-4.8134,-4.8134,-4.8134,-4.8134,-4.8134,-4.8134,-4.8134,-4.8134,-4.8134,-4.8134,-4.7801,-4.7026,-4.6974,-4.6426,-4.5289,-4.4481,-4.3661,-4.2942,-4.2519,-4.198,-4.1172,-4.1172,-4.1172,-4.1172,-4.1598,-4.1802,-4.1972,-4.2481,-4.3184,-4.3987,-4.3852,-4.4344,-4.5289,-4.6032,-4.6267,-4.6372,0.0,0.0,0.0,0.0,0.0,0.0,0.0,0.0,0.0,0.0,0.0,0.0,0.0,0.0,0.0,0.0,0.0,0.0,0.0,0.0,0.0,0.0,0.0,0.0,0.0,0.0,0.0,0.0,0.0,0.0,0.0,0.0,0.0,0.0,-4.3073,-4.3042,-4.3129,-4.3295,-4.3351,-4.3129,-4.3653,-4.4064,-4.4064,-4.4258,-4.4531,-4.4668,-4.4668,-4.4668,-4.4668,-4.4668,-4.4668,-4.4668,-4.4668,-4.4559,-4.4313,-4.4476,-4.4367,-4.4064,-4.4203,-4.4258,-4.4148,-4.4367,-4.4367,-4.4313,-4.4559,-4.4422,-4.4064,-4.4094,-4.4148,-4.4148,-4.4148,-4.4148,-4.4148,0.0,0.0,0.0,-4.8134,-4.8134,-4.8134,-4.8134,-4.8134,-4.8134,-4.8134,-4.8134,-4.8134,-4.8134,-4.8134,-4.8134,-4.8134,-4.8134,-4.8055,-4.8055,-4.8004,-4.7466,-4.6269,-4.4045,-4.283,-4.283,-4.1777,-4.1172,-4.1172,-4.1172,-4.1172,-4.1172,-4.1172,-4.1344,-4.1606,-4.1972,-4.2256,-4.2513,-4.2874,-4.4235,-4.6162,-4.6162,-4.6215,-4.6215,0.0,0.0,0.0,0.0,0.0,0.0,0.0,0.0,0.0,0.0,0.0,0.0,0.0,0.0,0.0,0.0,0.0,0.0,0.0,0.0,0.0,0.0,0.0,0.0,0.0,0.0,0.0,0.0,0.0,0.0,0.0,0.0,0.0,-4.3351,-4.3184,-4.3129,-4.3406,-4.3436,-4.3462,-4.3462,-4.3958,-4.4313,-4.4313,-4.4585,-4.4668,-4.4668,-4.4668,-4.4668,-4.4668,-4.4668,-4.4668,-4.4668,-4.4668,-4.4559,-4.4313,-4.4313,-4.4313,-4.4313,-4.4313,-4.4422,-4.4668,-4.4668,-4.4531,-4.4313,-4.4559,-4.4531,-4.4313,-4.4613,-4.4668,-4.4668,-4.4668,-4.4668,-4.4668,0.0,0.0,-4.8134,-4.8134,-4.8134,-4.8134,-4.8134,-4.8134,-4.8134,-4.8134,-4.8134,-4.8134,-4.8134,-4.8134,-4.8134,-4.8134,-4.8134,-4.775,-4.6922,-4.6058,-4.4698,-4.2712,-4.2004,-4.1663,-4.1663,-4.1344,-4.1172,-4.1172,-4.1172,-4.1172,-4.1172,-4.1402,-4.1549,-4.1606,-4.1972,-4.2167,-4.2199,-4.2538,-4.3017,-4.3577,-4.3823,-4.3932,-4.3987,0.0,0.0,0.0,0.0,0.0,0.0,0.0,0.0,0.0,0.0,0.0,0.0,0.0,0.0,0.0,0.0,0.0,0.0,0.0,0.0,0.0,0.0,0.0,0.0,0.0,0.0,0.0,0.0,0.0,0.0,0.0,-4.2986,-4.3073,-4.3351,-4.3351,-4.3406,-4.3708,-4.3929,-4.4013,-4.4013,-4.4341,-4.4559,-4.4559,-4.4668,-4.4668,-4.4668,-4.4668,-4.4668,-4.4668,-4.4668,-4.4668,-4.4668,-4.4668,-4.4559,-4.4313,-4.4531,-4.4367,-4.401,-4.401,-4.4064,-4.4094,-4.3848,-4.3848,-4.401,-4.4119,-4.4203,-4.4313,-4.4613,-4.4668,-4.4668,-4.4668,-4.4668,-4.4668,0.0,-4.7829,-4.7981,-4.8083,-4.8134,-4.8134,-4.8134,-4.8134,-4.8134,-4.8134,-4.8134,-4.8134,-4.8134,-4.8134,-4.8134,-4.8134,-4.8134,-4.7801,-4.7129,-4.5555,-4.3991,-4.2687,-4.172,-4.1172,-4.1172,-4.1172,-4.1172,-4.1172,-4.1172,-4.1172,-4.1172,-4.1344,-4.1435,-4.1459,-4.1745,-4.1915,-4.1915,-4.2199,-4.2312,-4.2369,-4.265,-4.2849,-4.3073,-4.3738,-4.4315,-4.4886,-4.6137,-4.6919,-4.7383,-4.8044,0.0,0.0,0.0,0.0,0.0,0.0,0.0,0.0,0.0,0.0,0.0,0.0,0.0,0.0,0.0,0.0,0.0,0.0,0.0,0.0,0.0,0.0,0.0,0.0,-4.3265,-4.3295,-4.3738,-4.3572,-4.3572,-4.3984,-4.4203,-4.4313,-4.4313,-4.4531,-4.4668,-4.4668,-4.4668,-4.4668,-4.4668,-4.4668,-4.4668,-4.4668,-4.4668,-4.4668,-4.4668,-4.4559,-4.4476,-4.4313,-4.4367,-4.4203,-4.3899,-4.3899,-4.3899,-4.3899,-4.3708,-4.3653,-4.3708,-4.3929,-4.4119,-4.4148,0.0,0.0,0.0,0.0,-4.4668,-4.4668,0.0,-4.7647,-4.7726,-4.7981,-4.8032,-4.8032,-4.8083,-4.8083,-4.8083,-4.8134,-4.8134,-4.8134,-4.8134,-4.8134,-4.8134,-4.8134,-4.8134,-4.8083,-4.7903,-4.5953,-4.4671,-4.4427,-4.2488,-4.1344,-4.1172,-4.1172,-4.1172,-4.1172,-4.1172,-4.1172,-4.1172,-4.1172,-4.1172,-4.1172,-4.1435,-4.1549,-4.1606,-4.1915,-4.2029,-4.211,-4.2369,-4.2625,-4.2986,-4.2986,-4.3628,-4.4507,-4.467,-4.5289,-4.611,-4.6267,0.0,0.0,0.0,0.0,0.0,0.0,0.0,0.0,0.0,0.0,0.0,0.0,0.0,0.0,0.0,0.0,0.0,0.0,0.0,0.0,0.0,0.0,0.0,0.0,-4.3653,-4.3628,-4.4203,-4.3848,-4.3738,-4.4258,-4.4367,-4.4367,-4.4367,-4.4559,-4.4668,-4.4668,-4.4668,-4.4668,-4.4668,-4.4668,0.0,0.0,0.0,-4.4668,-4.4668,-4.4422,-4.4313,-4.4367,-4.4119,-4.401,-4.401,-4.3955,-4.3955,-4.401,-4.3955,-4.3764,-4.3572,-4.4039,-4.4094,-4.3955,-4.4258,-4.4476,-4.4668,-4.4668,-4.4668,-4.4668,0.0,-4.7391,-4.7391,-4.7442,-4.7442,-4.7494,-4.7778,-4.7778,-4.788,-4.8083,-4.8134,-4.8134,-4.8134,-4.8134,-4.8134,-4.8134,-4.8134,-4.7699,-4.6818,-4.6321,-4.5235,-4.333,-4.2774,-4.215,-4.123,-4.1172,-4.1172,-4.1172,-4.1172,-4.1172,-4.1172,-4.1172,-4.1172,-4.1172,-4.123,-4.1287,-4.1287,-4.1549,-4.172,-4.172,-4.2029,-4.2369,-4.2625,-4.293,-4.3129,-4.3462,-4.437,-4.4832,-4.5154,-4.6032,-4.6267,-4.6162,-4.5289,-4.4993,0.0,0.0,0.0,0.0,0.0,0.0,0.0,0.0,0.0,0.0,0.0,0.0,0.0,0.0,0.0,0.0,0.0,0.0,0.0,-4.3789,-4.3653,-4.3628,-4.4203,-4.4203,-4.4258,-4.4559,-4.4613,-4.4613,-4.4613,-4.4668,-4.4668,-4.4668,-4.4668,-4.4668,-4.4668,-4.4668,-4.4668,-4.4668,-4.4476,-4.4476,-4.4668,-4.4422,-4.4422,-4.4613,-4.4559,0.0,-4.4531,-4.4313,-4.4367,-4.4531,-4.4119,-4.401,-4.4148,-4.401,-4.4064,-4.4258,-4.4531,-4.4668,-4.4668,-4.4668,-4.4668,-4.4668,0.0,-4.7494,-4.7545,-4.7647,-4.7596,-4.7545,-4.7647,-4.7596,-4.7596,-4.788,-4.7931,-4.7981,-4.8083,-4.8134,-4.8134,-4.8134,-4.8134,-4.7852,-4.7312,-4.6714,-4.5873,-4.4671,-4.3551,-4.2631,-4.2037,-4.1516,-4.1172,-4.1172,-4.1172,-4.1172,-4.1172,-4.1172,-4.1172,-4.1172,-4.1172,-4.1172,-4.1172,-4.1344,-4.1402,-4.1459,-4.1745,-4.1891,-4.2118,-4.2569,-4.2737,-4.2849,-4.3547,-4.3823,-4.3932,-4.4453,-4.4643,-4.4535,-4.4042,-4.3823,-4.3738,0.0,0.0,0.0,0.0,0.0,0.0,0.0,0.0,0.0,0.0,0.0,0.0,0.0,0.0,-4.3209,-4.3789,0.0,-4.3819,-4.4203,-4.4039,-4.4013,-4.4476,-4.4367,-4.4422,-4.4668,-4.4668,-4.4668,-4.4668,-4.4668,-4.4668,-4.4668,-4.4668,-4.4668,-4.4668,-4.4668,-4.4668,-4.4668,-4.4559,-4.4559,-4.4668,-4.4313,-4.4148,-4.4313,-4.3958,-4.3848,-4.3848,-4.3708,-4.3708,-4.3848,-4.3598,-4.3543,-4.3653,-4.3844,-4.401,-4.4148,-4.4531,-4.4668,-4.4668,-4.4668,-4.4668,-4.4668,0.0,-4.7819,-4.7829,-4.788,-4.7726,-4.7545,-4.7545,-4.7339,-4.7288,-4.7596,-4.7647,-4.7778,-4.8032,-4.8083,-4.8134,-4.8134,-4.8134,-4.8134,-4.8134,-4.726,-4.6635,-4.6426,-4.4563,-4.3496,-4.3219,-4.2319,-4.1777,-4.1492,-4.1492,-4.1402,-4.1172,-4.1172,-4.1172,-4.1172,-4.1172,-4.1172,-4.1172,-4.1172,-4.1172,-4.123,-4.1435,-4.1492,-4.1606,-4.2118,-4.2344,-4.2457,-4.2818,-4.293,-4.293,-4.2986,-4.2986,-4.2986,-4.2986,-4.2986,-4.2986,-4.2986,-4.2986,0.0,0.0,0.0,0.0,0.0,0.0,0.0,0.0,-4.265,-4.2569,-4.293,-4.3042,-4.3265,-4.3789,-4.4064,-4.4313,-4.4531,-4.4422,-4.4367,-4.4559,-4.4476,-4.4476,-4.4668,-4.4668,-4.4668,-4.4668,-4.4668,-4.4668,-4.4668,-4.4668,-4.4668,-4.4668,-4.4668,-4.4668,-4.4668,-4.4613,-4.4559,-4.4613,-4.4094,-4.3844,-4.3899,-4.3432,-4.3154,-4.3154,-4.3154,-4.3154,-4.3154,-4.3154,-4.3154,-4.3209,-4.3734,-4.3899,-4.3955,-4.4367,-4.4531,-4.4559,-4.4668,-4.4668,-4.4668,0.0,-4.8262,-4.7829,-4.7133,-4.6977,-4.6977,-4.6977,-4.6925,-4.7029,-4.7288,-4.7545,-4.7726,-4.7778,-4.7981,-4.8134,-4.8134,-4.8134,-4.8134,-4.8134,-4.7953,-4.7466,-4.6426,-4.6164,-4.5502,-4.4427,-4.4264,-4.3716,-4.2718,-4.2718,-4.2206,-4.1172,-4.1172,-4.1172,-4.1172,-4.1172,-4.1172,-4.1172,-4.1172,-4.1172,-4.1172,-4.123,-4.123,-4.1287,-4.1606,-4.1915,-4.2142,-4.2481,-4.2594,-4.2569,-4.293,-4.2986,-4.2986,-4.2986,-4.2986,-4.2986,-4.2986,-4.2986,-4.2986,-4.2986,-4.2986,-4.293,-4.2625,-4.2594,-4.2481,0.0,-4.2369,-4.2569,-4.293,-4.3184,-4.3462,-4.3844,-4.3899,-4.3955,-4.401,-4.4148,-4.4313,-4.4367,-4.4531,-4.4668,-4.4668,-4.4668,-4.4668,-4.4668,-4.4668,-4.4668,-4.4668,-4.4668,-4.4668,-4.4668,-4.4668,-4.4668,-4.4668,-4.4258,-4.4119,-4.4367,-4.3738,-4.3598,-4.3899,-4.3844,-4.3789,-4.3789,-4.3789,-4.3789,-4.3789,-4.3789,-4.3789,-4.3789,-4.3899,-4.3899,-4.3899,-4.3955,-4.401,-4.4064,-4.4531,-4.4668,-4.4668,0.0,0.0,-4.7931,-4.7442,-4.7236,-4.7133,-4.7133,-4.6901,-4.6796,-4.7029,-4.7133,-4.7339,-4.7647,-4.7931,-4.8134,-4.8134,-4.8134,-4.8134,-4.8134,-4.8134,-4.7903,-4.7414,-4.6766,-4.6164,-4.5661,-4.4967,-4.4372,-4.3881,-4.3881,-4.3661,-4.3189,-4.333,-4.3386,-4.3441,-4.3581,-4.3194,-4.2407,-4.2407,-4.1923,-4.1172,-4.1172,-4.1172,-4.1172,-4.1344,-4.1459,-4.1655,-4.2312,-4.2513,0.0,-4.2874,-4.2986,-4.2986,-4.2986,-4.2986,-4.2986,-4.2986,-4.2986,-4.2986,-4.2986,-4.2874,-4.2706,-4.2513,-4.2369,-4.2256,-4.211,-4.2029,-4.2118,-4.2625,-4.2706,-4.293,-4.3734,-4.3708,-4.3764,-4.4313,-4.4313,-4.4367,-4.4531,-4.4613,-4.4668,-4.4668,-4.4668,-4.4668,-4.4668,-4.4668,-4.4668,-4.4668,-4.4668,-4.4668,-4.4668,-4.4585,-4.4476,-4.4476,-4.4258,-4.4203,-4.4313,-4.4013,-4.3984,-4.4094,-4.3764,-4.3572,-4.3572,-4.3432,-4.3376,-4.3376,-4.3376,-4.3376,-4.3376,-4.3789,-4.3679,-4.3432,-4.3929,-4.3929,-4.3683,-4.4258,-4.4476,-4.4476,0.0,0.0,0.0,-4.8004,-4.7638,-4.7391,-4.7288,-4.6901,-4.6692,-4.6901,-4.6901,-4.7081,-4.7647,-4.788,-4.8032,-4.8083,-4.8134,-4.8134,-4.8134,-4.8134,-4.8134,-4.8134,-4.7312,-4.687,-4.687,-4.6006,-4.5395,-4.5128,-4.5128,-4.4913,-4.4589,-4.4779,-4.4887,-4.4887,-4.5075,-4.4645,-4.3636,-4.3636,-4.3108,-4.2263,-4.215,-4.198,-4.1834,-4.2037,-4.1948,-4.1777,-4.2513,-4.2513,-4.2344,-4.3129,-4.3129,-4.2905,-4.3351,-4.324,-4.3073,-4.3351,-4.324,-4.2986,-4.2986,-4.2762,-4.2457,-4.2425,-4.2199,-4.1915,-4.1883,-4.1802,-4.1834,-4.2174,-4.2312,-4.2594,-4.3376,-4.3462,-4.3628,-4.4232,-4.4258,-4.4258,-4.4585,-4.4559,-4.4613,-4.4668,-4.4668,-4.4668,-4.4668,-4.4668,-4.4668,-4.4668,-4.4668,-4.4668,-4.4668,-4.4531,-4.4422,-4.4422,-4.4258,-4.4203,-4.4203,-4.4039,-4.3929,-4.3929,-4.3517,-4.3295,-4.3295,-4.3073,-4.2986,-4.2986,-4.2986,-4.2986,-4.3042,-4.3487,-4.3376,-4.3042,-4.3708,-4.3683,-4.3351,-4.3848,-4.4094,-4.4203,0.0,0.0,0.0,0.0,-4.8084,-4.7596,-4.7339,-4.7081,-4.6901,-4.6901,-4.6901,-4.7081,-4.7647,-4.7726,-4.7829,-4.8083,-4.8134,-4.8134,-4.8134,-4.8134,-4.8134,-4.8134,-4.8083,-4.8083,-4.8083,-4.8004,-4.7466,-4.6321,-4.6321,-4.5767,-4.4589,-4.4643,-4.4643,-4.4643,-4.4643,-4.4589,-4.4563,-4.4563,-4.4671,-4.4887,-4.4563,-4.3965,-4.3305,-4.4209,-4.3826,-4.2886,-4.327,-4.26,-4.1891,-4.3657,-4.3492,-4.2737,-4.4206,-4.3878,-4.3184,-4.4315,-4.3878,-4.2986,-4.2986,-4.2762,-4.2425,-4.2142,-4.1859,-4.1549,-4.1287,-4.1631,-4.1972,-4.1663,-4.2344,-4.2849,-4.2569,-4.3017,-4.3381,-4.3462,-4.3708,-4.401,-4.4258,-4.4313,-4.4422,-4.4668,-4.4668,-4.4668,-4.4668,-4.4668,-4.4668,-4.4668,-4.4668,-4.4668,-4.4668,-4.4668,-4.4668,-4.4668,-4.4148,-4.3899,-4.3899,-4.3321,-4.3042,-4.3042,-4.3042,-4.3042,-4.3042,-4.2986,-4.2986,-4.2986,-4.2986,-4.2986,-4.2986,-4.3042,-4.3042,-4.2986,-4.3042,-4.3042,-4.3017,-4.3351,-4.3653,-4.3899,0.0,0.0,0.0,0.0,0.0,-4.8523,-4.8446,-4.7715,-4.7081,-4.6925,-4.6901,0.0,0.0,0.0,0.0,0.0,-4.7829,-4.7931,-4.8083,-4.8134,-4.8134,-4.8134,-4.8134,-4.8134,-4.8134,-4.8134,-4.7903,-4.7517,-4.7517,-4.7312,-4.6922,-4.7102,-4.7205,-4.7205,-4.7359,-4.6919,-4.6084,-4.6084,-4.5555,-4.4725,-4.4833,-4.4563,-4.4183,-4.4671,-4.4509,-4.4155,0.0,-4.4752,-4.4045,-4.4832,-4.4913,-4.4698,-4.4507,-4.4315,-4.4042,-4.3657,-4.3295,-4.2986,-4.2986,-4.265,-4.2199,-4.211,-4.1688,-4.1287,-4.123,-4.1363,-4.1531,-4.159,-4.2047,-4.2454,-4.2799,-4.2961,-4.324,-4.3653,-4.3844,-4.3955,-4.401,-4.4367,-4.4531,-4.4476,-4.4559,-4.4668,-4.4668,-4.4668,-4.4668,-4.4668,-4.4668,-4.4668,-4.4668,-4.4531,-4.4367,-4.4148,-4.401,-4.3764,-4.3572,-4.3598,-4.3623,-4.3598,-4.3351,-4.3184,-4.2986,-4.2986,-4.2986,-4.2986,-4.2986,-4.2986,-4.3042,-4.3184,-4.3129,-4.3042,-4.3184,-4.3129,-4.3042,-4.3073,-4.3209,-4.3376,0.0,0.0,0.0,0.0,0.0,0.0,0.0,0.0,0.0,0.0,0.0,0.0,0.0,0.0,0.0,0.0,0.0,-4.7829,-4.8083,-4.8134,-4.8134,-4.8134,-4.8134,-4.8134,-4.8134,-4.8134,-4.8134,-4.8134,-4.8134,-4.8134,-4.8134,-4.8258,-4.8358,-4.8358,-4.8459,-4.8027,-4.7232,-4.7181,-4.6739,-4.611,-4.6137,-4.5873,-4.5555,-4.5979,-4.5767,0.0,-4.6583,-4.6662,-4.6164,-4.6006,-4.582,-4.5555,-4.5422,-4.5369,-4.5208,-4.3987,-4.3462,-4.3265,-4.3042,-4.265,-4.2256,-4.2369,-4.1882,-4.1395,-4.1509,-4.1464,-4.141,-4.1447,-4.1886,-4.2374,-4.2771,-4.3113,-4.3462,-4.4094,-4.4203,-4.4313,-4.4585,-4.4694,-4.4722,-4.4748,-4.4748,-4.4668,-4.4668,-4.4668,-4.4668,-4.4668,-4.4668,-4.4668,-4.4559,-4.4367,-4.4148,-4.3899,-4.3899,-4.3708,-4.3381,-4.3572,-4.3653,-4.3543,-4.3351,-4.3184,-4.2986,-4.2986,-4.2986,-4.2986,-4.2986,-4.2986,-4.3042,-4.3184,-4.3129,-4.3042,-4.3184,-4.3129,-4.2986,-4.2986,-4.2986,-4.3042,0.0,0.0,0.0,0.0,0.0,0.0,0.0,0.0,0.0,0.0,0.0,0.0,0.0,0.0,0.0,0.0,0.0,0.0,-4.8083,-4.8134,-4.8134,-4.8134,-4.8134,-4.8134,-4.8134,-4.8134,-4.8134,-4.8134,-4.8134,-4.8134,-4.8134,-4.8134,-4.8134,-4.8083,-4.7829,-4.788,-4.8134,-4.7801,-4.8156,-4.8859,-4.8308,-4.7773,-4.7308,-4.7903,-4.7414,-4.6635,-4.775,-4.8134,-4.7953,-4.7157,-4.6138,-4.5449,-4.6712,-4.6947,-4.6478,-4.5047,-4.4287,-4.3789,-4.3154,-4.2818,-4.2625,-4.293,-4.2363,-4.1853,-4.2078,-4.1888,-4.1629,-4.1347,-4.1938,-4.2513,-4.2637,-4.3325,-4.4042,-4.4613,-4.4722,-4.4992,-4.5795,-4.5207,-4.4938,-4.5502,-4.5046,-4.4722,-4.4722,-4.4722,-4.4668,-4.4668,-4.4668,-4.4559,-4.4313,-4.4313,-4.4148,-4.3899,-4.3899,-4.3708,-4.3406,-4.3406,-4.324,-4.2986,-4.2986,-4.2986,-4.2986,-4.2986,-4.2986,-4.2986,-4.2986,-4.2986,-4.2986,-4.2986,-4.2986,-4.2986,-4.2986,-4.2986,-4.2986,-4.2986,-4.2986,-4.2986,0.0,0.0,0.0,0.0,0.0,0.0,0.0,0.0,0.0,0.0,0.0,0.0,0.0,0.0,0.0,0.0,0.0,0.0,-4.8083,-4.8134,-4.8134,-4.8134,-4.8134,-4.8134,-4.8134,-4.8134,-4.8207,-4.8409,-4.8207,-4.8207,-4.838,-4.8207,-4.8134,-4.8134,-4.8032,-4.8156,-4.8409,-4.8106,-4.8207,-4.8581,-4.8459,-4.8207,-4.7903,-4.8258,-4.8078,-4.775,-4.8459,-4.8409,-4.8083,-4.7852,-4.7541,-4.715,-4.6451,-4.6162,-4.5794,-4.3987,-4.3653,-4.3789,-4.3154,-4.3073,-4.3129,-4.3042,-4.2805,-4.2604,-4.2208,-4.2077,-4.1957,-4.1911,-4.2401,-4.2931,-4.3187,-4.391,-4.445,-4.4422,-4.4802,-4.491,-4.4476,-4.4964,-4.5261,-4.4938,-4.5018,-4.5072,-4.4992,-4.483,-4.4531,-4.4094,-4.4313,-4.4367,-4.4313,-4.4313,-4.4148,-4.3899,-4.3899,-4.3653,-4.3129,-4.3073,-4.3073,-4.2986,-4.2986,-4.2986,-4.2986,-4.2986,-4.2986,-4.2986,-4.2986,-4.2986,-4.2986,-4.2986,-4.2986,-4.2986,-4.2986,-4.2986,-4.2986,-4.2986,-4.2986,-4.2986,0.0,0.0,0.0,0.0,0.0,0.0,0.0,0.0,0.0,0.0,0.0,0.0,0.0,0.0,0.0,0.0,0.0,0.0,0.0,-4.8032,-4.8134,-4.8134,-4.8207,-4.8258,-4.8258,-4.8258,-4.8358,-4.8481,-4.8207,-4.8156,-4.8308,-4.8156,-4.8134,-4.8083,-4.7981,-4.8055,-4.8308,-4.8308,-4.8358,0.0,0.0,-4.8731,-4.8308,-4.8831,-4.881,-4.8509,-4.9058,-4.9058,-4.881,-4.881,-4.8631,-4.8324,-4.7892,-4.7331,-4.6608,-4.5235,-4.4668,-4.4313,-4.3598,-4.3487,-4.3598,-4.3598,-4.3161,-4.2888,-4.3003,-4.2648,-4.2392,-4.2674,-4.3146,-4.3566,-4.363,-4.4457,-4.5072,-4.491,-4.5395,-4.5609,-4.5287,-4.5555,-4.5742,-4.5688,-4.5502,-4.5395,-4.5475,-4.5368,-4.51,-4.4694,-4.4531,-4.4367,-4.4148,-4.4094,-4.3984,-4.3708,-4.3708,-4.3543,-4.3184,-4.3073,-4.2986,-4.2986,-4.2986,-4.2986,-4.2986,-4.2986,-4.2986,-4.2986,-4.2986,-4.2986,-4.2986,-4.2986,-4.2986,-4.2986,-4.2986,-4.2986,-4.2986,-4.2986,-4.2986,-4.2986,0.0,0.0,0.0,0.0,0.0,0.0,0.0,0.0,0.0,0.0,-4.8656,-4.8267,0.0,0.0,0.0,0.0,0.0,0.0,0.0,0.0,-4.8083,-4.8134,-4.8358,-4.8481,-4.8481,-4.8531,-4.8531,-4.8531,-4.8308,-4.8235,-4.8235,-4.8235,-4.8235,-4.8235,-4.7953,-4.8004,-4.8258,-4.8459,-4.8581,-4.8681,-4.9375,-4.9227,-4.8681,0.0,-4.9424,-4.9058,-4.9522,-4.9717,-4.9815,-4.9815,-4.9522,-4.9227,-4.9717,-4.9227,-4.8252,-4.7462,-4.6401,-4.5207,-4.4422,-4.4094,-4.4064,-4.4258,-4.351,-4.3074,-4.4072,-4.3468,-4.2919,-4.3544,-4.3991,-4.4216,-4.4122,-4.489,-4.5555,-4.5555,-4.6034,-4.6482,-4.6612,-4.635,-4.6245,-4.6717,-4.6139,-4.5768,-4.5954,-4.6007,-4.5848,-4.5502,-4.51,-4.4639,-4.4064,-4.4064,-4.3984,-4.3683,-4.3517,-4.3462,-4.3462,-4.3129,-4.2986,-4.2986,-4.2986,-4.2986,-4.2986,-4.2986,-4.2986,-4.2986,-4.2986,-4.2986,-4.2986,-4.2986,-4.2986,-4.2986,-4.2986,-4.2986,-4.2986,-4.2986,-4.2986,-4.2986,0.0,0.0,0.0,0.0,0.0,0.0,0.0,0.0,0.0,0.0,-4.9497,-4.9179,0.0,0.0,0.0,0.0,0.0,0.0,0.0,0.0,0.0,-4.8083,-4.8358,-4.8481,-4.8481,-4.8731,-4.8859,-4.8859,-4.881,-4.876,-4.876,-4.876,-4.876,-4.876,-4.871,-4.8859,-4.9058,-4.8909,-4.8959,-4.9157,-4.9305,-4.9305,-4.9207,-4.9571,0.0,0.0,-4.9669,-4.999,-5.0357,-5.0357,-5.0423,-5.0268,-4.9042,-4.9288,-4.9601,-4.7937,-4.6995,-4.6294,-4.5688,-4.5047,-4.4531,-4.4367,-4.3957,-4.3808,-4.4204,-4.3808,-4.357,-4.4332,-4.4388,-4.444,-4.4889,-4.5127,-4.5287,-4.5287,-4.5715,-4.5981,-4.5555,-4.6034,-4.635,-4.6192,-4.6007,-4.5954,-4.6007,-4.6007,-4.5688,-4.4884,-4.5422,-4.5422,-4.4613,-4.5018,-4.518,-4.491,-4.4203,-4.3819,-4.3819,-4.3265,-4.2986,-4.2986,-4.2986,-4.2986,-4.2986,-4.2986,-4.2986,-4.2986,-4.2986,-4.2986,-4.2986,-4.2986,-4.2986,-4.2986,-4.2986,-4.2986,-4.2986,-4.2986,-4.2986,-4.2986,0.0,0.0,0.0,0.0,0.0,0.0,0.0,-4.9892,-4.9892,-4.9892,-4.9784,-4.9533,-4.9127,-4.8805,-4.8561,0.0,0.0,0.0,0.0,0.0,0.0,0.0,-4.8855,-4.8931,-4.8909,-4.9058,-4.9108,-4.9108,0.0,-4.8909,-4.8909,-4.8909,-4.8909,-4.8909,-4.8909,-4.8959,-4.9108,-4.9227,-4.9256,-4.9157,-4.9698,-4.9649,-4.9355,0.0,0.0,0.0,-5.0489,-5.0662,-5.0852,-5.0852,-5.0947,-5.087,-5.0095,-4.9999,-4.9921,-4.8915,-4.8217,-4.7559,-4.6424,-4.5926,-4.5582,-4.4938,-4.4095,-4.3677,-4.4758,-4.4229,-4.3754,-4.4785,-4.4864,-4.4784,-4.4912,-4.5072,-4.518,-4.518,-4.5662,-4.5901,-4.5662,-4.6139,-4.6482,-4.6455,-4.635,-4.6297,-4.6455,-4.6455,-4.6297,-4.5875,-4.6323,-4.6165,-4.5018,-4.5234,-4.5126,-4.4531,-4.4367,-4.4039,-4.3432,-4.3738,-4.3738,-4.3487,-4.3738,-4.3764,-4.3487,-4.3487,-4.3321,-4.2986,-4.2986,-4.2986,-4.2986,-4.2986,-4.2986,-4.2986,-4.2986,-4.2986,-4.2986,-4.2986,-4.2986,-4.2986,0.0,0.0,0.0,0.0,0.0,0.0,-5.0026,-4.9892,-4.9892,-4.9892,-4.9892,-4.973,-4.9293,-4.9044,-4.8819,0.0,0.0,0.0,0.0,0.0,0.0,0.0,0.0,0.0,-4.9305,0.0,0.0,-4.9305,-4.9157,0.0,0.0,0.0,0.0,0.0,-4.9058,-4.9058,-4.9108,-4.9522,-4.9473,0.0,0.0,-5.0067,-4.9551,0.0,0.0,0.0,0.0,-5.1229,-5.1229,-5.1229,-5.1229,-5.1229,-5.1229,-5.0822,-5.0316,-5.0124,-4.9611,-4.8795,-4.7331,-4.6816,-4.6451,-4.5422,-4.4098,-4.3468,-4.5236,-4.4493,-4.3833,-4.5103,-4.5287,-4.5126,-4.4856,-4.4964,-4.5072,-4.5072,-4.5502,-4.5795,-4.5795,-4.6139,-4.6455,-4.6665,-4.656,-4.6587,-4.6796,-4.6901,-4.6901,-4.6848,-4.6977,-4.6665,-4.5609,-4.5395,-4.5018,-4.4476,-4.4748,-4.445,-4.3572,-4.4287,-4.4476,-4.4064,-4.4531,-4.4422,-4.3899,-4.3899,-4.3568,-4.2986,-4.2986,-4.2986,-4.2986,-4.2986,-4.2986,-4.2986,-4.2986,-4.2986,-4.2986,-4.2986,-4.2986,-4.2986,0.0,0.0,0.0,0.0,0.0,0.0,-5.0026,-4.9892,-4.9892,-4.9892,-4.9892,-4.9852,-4.9836,-4.9819,-4.977,0.0,0.0,0.0,0.0,0.0,0.0,0.0,0.0,0.0,0.0,0.0,0.0,-4.9305,-4.9551,0.0,0.0,0.0,0.0,0.0,0.0,-4.962,-4.962,-4.9669,0.0,0.0,0.0,0.0,0.0,0.0,0.0,0.0,0.0,-5.1229,-5.1229,-5.1229,-5.1229,-5.1229,-5.1229,-5.1323,-5.1433,-5.1433,-5.081,-4.994,-4.8894,-4.7661,-4.6451,-4.5422,-4.4098,-4.3468,-4.5236,-4.4493,-4.3937,-4.5607,-4.5555,-4.518,-4.518,-4.491,-4.4722,-4.4722,-4.5072,-4.5287,-4.5287,-4.5715,-4.606,-4.606,-4.635,-4.6535,-4.6535,-4.6796,-4.6796,-4.6587,-4.6587,-4.6612,-4.6717,-4.5981,-4.5768,-4.6245,-4.5768,-4.5502,-4.5368,-4.4938,-4.4668,-4.4613,-4.4668,-4.4422,-4.3899,-4.3899,-4.3568,-4.2986,-4.2986,-4.2986,-4.2986,-4.2986,-4.2986,-4.2986,-4.2986,-4.2986,-4.2986,-4.2986,-4.2986,-4.2986,0.0,0.0,0.0,0.0,0.0,0.0,-5.0658,-5.0184,-4.9892,-4.9892,-4.9892,-5.0169,-5.0858,-5.0311,-4.9892,-4.9892,0.0,0.0,0.0,0.0,0.0,0.0,0.0,0.0,0.0,0.0,-5.0627,-5.0383,-5.0478,0.0,0.0,0.0,0.0,0.0,0.0,-4.9717,-4.9717,-4.9717,0.0,0.0,0.0,0.0,0.0,0.0,0.0,0.0,0.0,0.0,-5.1229,-5.1229,-5.1229,-5.1229,-5.1229,-5.1276,-5.1369,-5.1369,-5.1246,-5.0857,-4.9776,-4.921,-4.8489,-4.705,-4.5801,-4.5137,-4.5713,-4.4995,-4.4492,-4.5316,-4.5341,-4.5126,-4.4964,-4.4776,-4.4668,-4.4668,-4.4964,-4.518,-4.518,-4.5502,-4.5795,-4.5954,-4.6139,-4.6297,-4.6482,-4.6587,-4.664,-4.6535,-4.6482,-4.6535,-4.664,-4.6297,-4.6086,-4.5981,-4.6086,-4.5768,-4.5072,-4.5555,-4.5609,-4.5261,-4.5609,-4.5287,-4.4367,-4.4748,-4.4203,-4.3042,-4.3376,-4.3321,-4.2986,-4.2986,-4.2986,-4.2986,-4.2986,-4.2986,-4.2986,-4.2986,-4.2986,-4.2986,0.0,0.0,0.0,0.0,0.0,-5.2112,-5.1385,-5.069,-5.0247,-5.0247,-5.0058,-5.024,-5.1032,-5.0375,-5.0034,-5.0375,-5.053,0.0,0.0,0.0,0.0,0.0,0.0,0.0,0.0,0.0,-5.1001,-5.0794,-5.0691,-5.0364,0.0,0.0,-4.9717,-4.9717,0.0,0.0,0.0,0.0,0.0,0.0,0.0,0.0,0.0,0.0,0.0,0.0,0.0,0.0,0.0,0.0,0.0,-5.1229,-5.1229,-5.1229,-5.1229,-5.1229,-5.1386,-5.1386,-5.0287,-5.0162,-4.9844,-4.7943,-4.6888,-4.6279,-4.6083,-4.5287,-4.4705,-4.5209,-4.518,-4.4964,-4.4722,-4.4668,-4.4668,-4.4668,-4.491,-4.5072,-4.5072,-4.5287,-4.5555,-4.5768,-4.5901,-4.6086,-4.6297,-4.643,-4.6482,-4.6482,-4.6482,-4.6482,-4.6482,-4.6482,-4.6297,-4.5875,-4.6245,-4.6086,-4.5207,-4.6086,-4.6297,-4.5875,-4.6297,-4.5981,-4.4992,-4.5448,-4.483,-4.3517,-4.3929,-4.3874,-4.3517,-4.3517,-4.3432,-4.3265,-4.3265,-4.3154,-4.2986,-4.2986,-4.2986,-4.2986,0.0,0.0,0.0,0.0,0.0,0.0,-5.2112,-5.1417,-5.1015,-5.1015,-5.0342,-4.9892,-4.9931,-4.9931,-5.0343,-5.1477,-5.0973,0.0,0.0,0.0,0.0,0.0,0.0,0.0,0.0,0.0,-5.009,-5.009,-4.9831,-4.9717,-4.9717,-4.9717,-4.9717,-4.9717,0.0,0.0,0.0,0.0,0.0,0.0,0.0,0.0,-5.0548,0.0,0.0,0.0,0.0,0.0,0.0,0.0,0.0,0.0,0.0,-5.1229,-5.1229,-5.1229,-5.1386,-5.1386,-5.0268,-5.0143,-4.9795,-4.774,-4.6759,-4.6279,-4.6083,-4.5129,-4.4547,-4.5422,-4.51,-4.4668,-4.4668,-4.4668,-4.4668,-4.4668,-4.4668,-4.4722,-4.4722,-4.5018,-4.518,-4.518,-4.5715,-4.6007,-4.6007,-4.6297,-4.6482,-4.6482,-4.6482,-4.6482,-4.6482,-4.6482,-4.6482,-4.6482,-4.6482,-4.6482,-4.6482,-4.6482,-4.6482,-4.6482,-4.6482,-4.6192,-4.5609,-4.5609,-4.5261,-4.4668,-4.4668,-4.4668,-4.4668,-4.4668,-4.4367,-4.3899,-4.3899,-4.3543,-4.2986,-4.2986,-4.2986,-4.2986,0.0,0.0,0.0,0.0,0.0,0.0,-5.2807,-5.2144,-5.1512,-5.1078,-5.0785,-5.0747,-5.1025,-5.1064,-5.1364,-5.2171,-5.1212,0.0,0.0,0.0,0.0,0.0,0.0,0.0,0.0,-5.1579,-5.1696,-5.2039,-5.192,-5.1455,-5.0668,-5.0668,-5.0287,-4.9717,-4.9717,-4.9717,0.0,0.0,0.0,0.0,0.0,-5.0519,-5.0728,0.0,0.0,0.0,0.0,0.0,0.0,0.0,0.0,0.0,0.0,0.0,0.0,-5.1229,-5.1276,-5.1293,-5.1152,-5.0573,-4.9824,-4.8795,-4.7853,-4.7007,-4.6453,-4.5872,-4.5475,-4.5555,-4.5287,-4.4964,-4.4722,-4.4668,-4.4668,-4.4668,-4.4668,-4.4668,-4.4668,-4.4776,-4.4964,-4.518,-4.5662,-4.6086,-4.6297,-4.643,-4.6482,-4.6482,-4.6482,-4.6482,-4.6482,-4.6482,-4.6482,-4.6482,-4.6482,-4.6482,-4.6482,-4.6482,-4.6482,-4.6482,-4.6482,-4.6192,-4.5609,-4.6034,-4.5662,-4.4722,-4.5154,-4.5046,-4.4668,-4.4668,-4.4367,-4.3899,-4.3899,-4.3543,-4.2986,-4.2986,-4.2986,-4.2986,0.0,0.0,0.0,0.0,0.0,0.0,-5.3471,-5.287,-5.227,-5.1828,-5.1543,-5.138,-5.1375,-5.1343,-5.1581,-5.2094,-5.1508,0.0,0.0,0.0,0.0,0.0,0.0,0.0,-5.1815,-5.1733,-5.1933,-5.2513,-5.2428,-5.2118,-5.1666,-5.1666,-5.1156,-5.022,-5.022,-5.0028,0.0,0.0,0.0,0.0,-5.0405,-5.0614,-5.0822,0.0,0.0,0.0,0.0,0.0,0.0,0.0,0.0,0.0,0.0,0.0,0.0,0.0,-5.1229,-5.1229,-5.1386,-5.1028,-5.0335,-4.9288,-4.8596,-4.792,-4.6769,-4.6139,-4.5795,-4.5662,-4.5287,-4.4964,-4.4722,-4.4668,-4.4668,-4.4668,-4.4668,-4.4668,-4.4668,-4.4668,-4.483,-4.518,-4.5609,-4.5981,-4.6297,-4.643,-4.6482,-4.6482,-4.6482,-4.6482,-4.6482,-4.6482,-4.6482,-4.6482,-4.6482,-4.6482,-4.6482,-4.6482,-4.6482,-4.6482,-4.6482,-4.6297,-4.5928,-4.6297,-4.6086,-4.5395,-4.5768,-4.5715,0.0,-4.5395,-4.5072,-4.4531,-4.4258,-4.3819,-4.3321,-4.3098,-4.2986,-4.2986,0.0,0.0,0.0,0.0,0.0,0.0,0.0,-5.3566,-5.3155,-5.3123,-5.2523,-5.1828,-5.1132,-5.1141,-5.1343,-5.1677,-5.1913,0.0,0.0,0.0,0.0,0.0,0.0,0.0,-5.1302,-5.0969,-5.1236,-5.1995,-5.1752,-5.203,-5.2695,-5.2695,-5.2124,-5.1109,-5.1109,-5.0573,-4.9717,-4.9717,-4.9844,-5.0135,-5.0405,-5.0614,0.0,0.0,0.0,0.0,0.0,0.0,0.0,0.0,0.0,0.0,0.0,0.0,0.0,0.0,0.0,0.0,0.0,-5.1339,-5.1028,-4.9337,-4.9042,-4.8724,-4.7002,-4.6139,0.0,-4.5609,-4.5154,-4.4722,-4.4668,-4.4668,-4.4668,-4.4668,-4.4668,-4.4668,-4.4668,-4.4668,-4.483,-4.518,-4.5448,-4.5715,-4.5954,-4.6297,-4.6482,-4.6482,-4.6482,-4.6482,-4.6482,-4.6482,-4.6482,-4.6482,-4.6482,-4.6482,-4.6482,-4.6482,-4.6482,-4.6482,-4.6482,-4.6482,-4.6482,-4.6482,-4.6482,-4.6482,-4.6482,-4.6482,-4.6482,-4.6482,-4.6139,-4.5555,-4.4938,-4.4367,-4.3844,-4.3209,-4.2986,-4.2986,0.0,0.0,0.0,0.0,0.0,0.0,0.0,0.0,0.0,0.0,-5.2965,-5.2586,-5.1828,-5.2527,-5.2948,0.0,0.0,0.0,0.0,0.0,0.0,0.0,0.0,0.0,-5.2308,-5.1506,-5.1701,-5.2989,-5.2917,-5.3172,-5.3675,-5.3675,-5.2723,-5.1109,-5.1109,-5.0573,-4.9717,-4.9717,-4.9844,-5.0135,-5.0405,-5.0614,0.0,0.0,0.0,0.0,-5.1229,-5.1229,0.0,0.0,0.0,0.0,0.0,0.0,0.0,0.0,-5.1229,-5.1229,-5.1229,0.0,-5.0047,-5.0047,-4.9435,-4.8646,0.0,-4.7387,-4.687,-4.5795,-4.5341,-4.5018,-4.4722,-4.4668,-4.4668,-4.4668,-4.4668,-4.4668,-4.4668,-4.4668,-4.483,-4.518,-4.5448,-4.5715,-4.5954,-4.6297,-4.6482,-4.6482,-4.6482,-4.6482,-4.6482,-4.6482,-4.6482,-4.6482,-4.6482,-4.6482,-4.6482,-4.6482,-4.6482,-4.6482,-4.6482,-4.6482,-4.6482,-4.6482,-4.6482,-4.6482,-4.6482,-4.6482,-4.6482,-4.6482,-4.6139,-4.5555,-4.4938,-4.4367,-4.3844,-4.3209,-4.2986,-4.2986,0.0,0.0,0.0,0.0,0.0,0.0,0.0,0.0,0.0,0.0,-5.3566,-5.3281,-5.2586,-5.3254,-5.3396,0.0,0.0,0.0,0.0,0.0,0.0,0.0,0.0,-5.352,-5.2606,-5.207,-5.2389,-5.3422,-5.3344,-5.3817,-5.4842,-5.4685,-5.3848,-5.241,-5.162,-5.0793,-4.9892,-4.9892,-5.0038,-5.0309,-5.0453,0.0,0.0,0.0,0.0,0.0,-5.1229,-5.1229,0.0,-5.1229,-5.1229,-5.1229,0.0,0.0,0.0,0.0,-5.1229,-5.1229,-5.1229,-5.0775,-5.0364,-5.0412,-4.995,-4.9239,-4.8223,-4.7768,-4.7205,-4.5901,-4.5395,-4.5072,-4.4776,-4.4668,-4.4668,-4.4668,-4.4668,-4.4668,-4.4668,-4.4668,-4.4776,-4.4964,-4.5341,-4.5662,-4.5795,-4.6245,-4.6482,-4.6482,-4.6482,-4.6482,-4.6482,-4.6482,-4.6482,-4.6482,-4.6482,-4.6482,-4.6482,-4.6482,-4.6482,-4.6482,-4.6482,-4.6482,-4.6482,-4.6482,-4.6482,-4.6482,-4.6482,-4.6482,-4.6482,-4.6482,-4.6297,-4.5928,-4.5315,-4.4964,-4.4585,-4.3708,-4.3598,-4.3683,0.0,0.0,0.0,0.0,0.0,0.0,0.0,0.0,0.0,0.0,0.0,0.0,0.0,0.0,0.0,0.0,0.0,0.0,0.0,0.0,0.0,0.0,-5.4503,-5.3618,-5.3046,-5.2742,-5.2997,-5.3818,-5.3584,-5.4305,-5.5806,-5.5612,-5.5008,-5.4019,-5.226,-5.1028,-5.0279,-5.0135,-5.0231,-5.0453,-5.0548,0.0,0.0,0.0,0.0,0.0,0.0,0.0,0.0,-5.1229,-5.1229,-5.1229,-5.1229,0.0,0.0,0.0,0.0,0.0,-5.1229,-5.1229,-5.1152,-5.0745,-5.065,-5.0239,-4.8795,-4.8245,-4.7666,-4.6138,-4.5635,-4.5287,-4.4776,-4.4668,-4.4668,-4.4668,-4.4668,-4.4668,-4.4668,-4.4668,-4.4722,-4.4776,-4.5261,-4.5609,-4.5609,-4.6086,-4.6403,-4.6403,-4.6403,-4.6482,-4.6482,-4.6482,-4.6482,-4.6482,-4.6482,-4.6482,-4.6482,-4.6482,-4.6482,-4.6482,-4.6482,-4.6482,-4.6482,-4.6482,-4.6482,-4.6482,-4.6482,-4.6482,-4.6482,-4.6482,-4.6482,-4.643,-4.5822,-4.5609,-4.5502,-4.4422,-4.4313,-4.4559,0.0,0.0,0.0,0.0,0.0,0.0,0.0,0.0,0.0,0.0,0.0,0.0,0.0,0.0,0.0,0.0,0.0,0.0,0.0,0.0,0.0,-5.6476,-5.4843,-5.4197,-5.4876,-5.3384,-5.3302,-5.4802,-5.4568,-5.5031,-5.6046,-5.6006,-5.5458,-5.4421,-5.2379,-5.1296,-5.0905,-5.0346,-5.0135,-5.0183,-5.0585,0.0,0.0,0.0,0.0,0.0,0.0,0.0,0.0,-5.1229,-5.1229,-5.1229,-5.1229,0.0,0.0,0.0,0.0,0.0,-5.1229,-5.1369,-5.1572,-5.1695,-5.1741,-5.1572,-5.078,-5.0478,-4.9659,-4.741,-4.6739,-4.6164,-4.4938,-4.4668,-4.4668,-4.4668,-4.4668,-4.4668,-4.4668,-4.4668,-4.4802,-4.5072,-4.5395,-4.5609,-4.5609,-4.5928,-4.6086,-4.6086,-4.6086,-4.6192,-4.6482,-4.6482,-4.6482,-4.6482,-4.6482,-4.6482,-4.6482,-4.6482,-4.6482,-4.6482,-4.6482,-4.6482,-4.6482,-4.6482,-4.6482,-4.6482,-4.6482,-4.6482,-4.6482,-4.6482,-4.6482,-4.643,-4.5822,-4.5609,-4.5555,-4.483,-4.4613,-4.4668,0.0,0.0,0.0,0.0,0.0,0.0,0.0,0.0,0.0,0.0,0.0,0.0,0.0,0.0,0.0,0.0,0.0,0.0,0.0,0.0,-5.6447,-5.668,-5.5386,-5.4876,-5.5282,-5.4388,-5.4311,-5.5166,-5.4848,-5.5208,-5.6284,-5.6165,-5.562,-5.4746,-5.3328,-5.2305,-5.1666,-5.084,-5.0489,-5.0489,0.0,0.0,0.0,0.0,0.0,0.0,0.0,0.0,0.0,0.0,-5.1229,-5.1229,-5.1229,0.0,0.0,0.0,0.0,0.0,-5.1229,-5.1416,-5.1695,-5.1956,-5.2002,-5.1787,-5.1122,-5.0716,-5.0047,-4.8245,-4.774,-4.7229,-4.5847,-4.5609,-4.5395,-4.4776,-4.4668,-4.4668,-4.4668,-4.4668,-4.483,-4.518,-4.5287,-4.5448,-4.5609,-4.5848,-4.6007,-4.6007,-4.6192,-4.635,-4.6482,-4.6482,-4.6482,-4.6482,-4.6482,-4.6482,-4.6482,-4.6482,-4.6482,-4.6482,-4.6482,-4.6482,-4.6482,-4.6482,-4.6482,-4.6482,-4.6482,-4.6482,-4.6482,-4.6482,-4.6482,-4.6482,-4.6192,-4.6086,-4.6034,-4.5768,-4.5261,-4.4722,0.0,0.0,0.0,0.0,0.0,0.0,0.0,0.0,0.0,0.0,0.0,0.0,0.0,0.0,0.0,0.0,0.0,0.0,0.0,-5.6205,-5.6402,-5.668,-5.5996,-5.5622,-5.5622,-5.5265,-5.5265,-5.5622,-5.5312,-5.5647,-5.6603,-5.6369,-5.5981,-5.5426,-5.4221,-5.3196,-5.2365,-5.1139,-5.0728,-5.0822,0.0,0.0,0.0,0.0,0.0,0.0,0.0,0.0,0.0,0.0,0.0,0.0,0.0,0.0,0.0,-5.1229,-5.1229,-5.1229,-5.1229,-5.1463,-5.1741,-5.1956,-5.2048,-5.1926,-5.1293,-5.0934,-5.0383,-4.9042,-4.8745,-4.8296,-4.7023,-4.6583,-4.6111,-4.5235,-4.4884,-4.4668,-4.4668,-4.4668,-4.4856,-4.5234,-4.5234,-4.5341,-4.5662,-4.5795,-4.5901,-4.6007,-4.6245,-4.643,-4.6482,-4.6482,-4.6482,-4.6482,-4.6482,-4.6482,-4.6482,-4.6482,-4.6482,-4.6482,-4.6482,-4.6482,-4.6482,-4.6482,-4.6482,-4.6482,-4.6482,-4.6482,-4.6482,-4.6482,-4.6482,-4.6482,-4.6482,-4.6482,-4.6482,-4.6482,-4.5928,-4.518,0.0,0.0,0.0,0.0,0.0,0.0,0.0,0.0,0.0,0.0,0.0,0.0,0.0,0.0,0.0,0.0,0.0,0.0,0.0,-5.648,-5.668,-5.668,-5.6647,-5.6614,-5.6614,-5.576,-5.5688,-5.6614,-5.6575,-5.6801,-5.7214,-5.7025,-5.6911,-5.6762,-5.4579,-5.3459,-5.3108,-5.1028,-5.0394,-5.0775,-5.0614,0.0,0.0,0.0,0.0,0.0,0.0,0.0,0.0,0.0,0.0,0.0,0.0,0.0,-5.1229,-5.1229,-5.1229,-5.1229,-5.1229,-5.1556,-5.2002,-5.2002,-5.2155,-5.2261,-5.2215,-5.2063,-5.1479,-5.0191,-4.9708,-4.917,-4.8094,-4.7074,-4.6374,-4.6269,-4.5395,-4.4668,-4.4668,-4.4668,-4.4884,-4.5502,-4.5341,-4.5395,-4.5901,-4.5742,-4.5768,-4.5954,-4.6007,-4.6192,-4.6482,-4.6482,-4.6482,-4.6482,-4.6482,-4.6482,-4.6482,-4.6482,-4.6482,-4.6482,-4.6482,-4.6482,-4.6482,-4.6482,-4.6482,-4.6482,-4.6482,-4.6482,-4.6482,-4.6482,-4.6482,-4.6482,-4.6482,-4.6482,-4.6482,-4.6482,-4.6482,-4.6377,0.0,0.0,0.0,0.0,0.0,0.0,0.0,0.0,0.0,0.0,0.0,0.0,0.0,0.0,0.0,0.0,0.0,0.0,0.0,-5.5974,-5.6013,-5.6323,-5.6564,-5.668,-5.668,-5.6222,-5.6299,-5.6872,-5.7025,-5.7139,-5.7289,-5.7214,-5.7176,-5.7139,-5.5523,-5.4495,-5.3816,-5.2305,-5.1263,-5.0614,-5.0548,-5.0596,0.0,0.0,0.0,0.0,0.0,0.0,0.0,0.0,-5.1229,-5.1229,-5.1229,-5.1229,-5.1229,-5.1229,-5.1229,-5.1229,-5.1229,-5.1602,-5.2002,-5.2002,-5.2291,-5.2473,-5.22,-5.1926,-5.1556,-5.0917,-5.065,-5.0268,-4.919,-4.8145,-4.7177,-4.6531,-4.6006,-4.5502,-4.4776,-4.4668,-4.483,-4.5287,-4.5072,-4.5126,-4.5715,-4.5662,-4.5715,-4.5954,-4.6192,-4.635,-4.6482,-4.6482,-4.6482,-4.6482,-4.6482,-4.6482,-4.6482,-4.6482,-4.6482,-4.6482,-4.6482,-4.6482,-4.6482,-4.6482,-4.6482,-4.6482,-4.6482,-4.6482,-4.6482,-4.6482,-4.6482,-4.6482,-4.6482,-4.6482,-4.6482,-4.6482,-4.6482,-4.6482,0.0,0.0,0.0,0.0,0.0,0.0,0.0,0.0,0.0,0.0,0.0,0.0,0.0,0.0,0.0,0.0,0.0,0.0,-5.6132,-5.6051,-5.627,-5.6941,-5.7252,-5.7376,-5.7376,-5.7258,-5.7105,-5.6987,-5.7252,-5.7502,-5.7771,-5.7696,-5.772,-5.7807,-5.61,-5.5024,-5.4432,-5.2577,-5.1309,-5.0501,-5.0357,-5.0231,0.0,0.0,0.0,0.0,0.0,0.0,0.0,0.0,-5.1229,-5.1229,-5.1229,-5.1229,-5.1229,-5.1229,-5.1229,-5.1229,-5.1293,-5.1602,-5.188,-5.2063,-5.2337,-5.2473,-5.2094,-5.1834,-5.1649,-5.1276,-5.1229,-5.0964,-5.022,-4.9239,-4.8145,-4.7074,-4.6919,-4.6503,-4.5395,-4.5235,-4.5342,-4.5688,-4.51,-4.4938,-4.5635,-4.5662,-4.5768,-4.6139,-4.635,-4.6482,-4.6482,-4.6482,-4.6482,-4.6482,-4.6482,-4.6482,-4.6482,-4.6482,-4.6482,-4.6482,-4.6482,-4.6482,-4.6482,-4.6482,-4.6482,-4.6482,-4.6482,-4.6482,-4.6482,-4.6482,-4.6482,-4.6482,-4.6482,-4.6482,-4.6482,-4.6482,-4.6482,-4.6482,0.0,0.0,0.0,0.0,0.0,0.0,0.0,0.0,-5.4103,-5.4103,0.0,0.0,0.0,0.0,0.0,0.0,0.0,0.0,-5.6404,-5.6923,-5.7697,-5.8826,-5.8866,-5.8899,-5.8899,-5.8899,-5.8289,-5.702,-5.7402,-5.7992,-5.8732,-5.8504,-5.868,-5.9073,-5.6082,-5.4857,-5.49,-5.1533,-5.0309,-5.0453,-4.9912,-4.9717,-4.9717,0.0,0.0,0.0,0.0,0.0,0.0,0.0,-5.1229,-5.1229,-5.1229,-5.1229,-5.1229,-5.1229,-5.1229,-5.1276,-5.1526,-5.1572,-5.1711,-5.217,-5.2306,-5.2261,-5.2048,-5.2002,-5.1864,-5.1323,-5.1229,-5.1229,-5.1229,-5.0316,-4.9268,-4.8167,-4.8016,-4.761,-4.6583,-4.6426,-4.6531,-4.6791,-4.5609,-4.5046,-4.5954,-4.5742,-4.5875,-4.6482,-4.6535,-4.6535,-4.6535,-4.6535,-4.6535,-4.6535,-4.6482,-4.6482,-4.6482,-4.6482,-4.6482,-4.6482,-4.6482,-4.6482,-4.6482,-4.6482,-4.6482,-4.6482,-4.6482,-4.6482,-4.6482,-4.6482,-4.6482,-4.6482,-4.6482,-4.6482,-4.6482,-4.6482,-4.6482,-4.6482,0.0,0.0,0.0,0.0,0.0,0.0,0.0,0.0,-5.4103,-5.4103,-5.4103,0.0,0.0,0.0,0.0,0.0,0.0,0.0,-5.5278,-5.5445,-5.6016,-5.7143,-5.6727,-5.7208,-5.8866,-5.9179,-5.9064,-5.8552,-5.894,-5.9194,-5.9275,-5.9198,-5.926,-5.9343,-5.7566,-5.6713,-5.6337,-5.3697,-5.2235,-5.1512,-4.9735,-4.902,-4.8914,0.0,0.0,0.0,0.0,0.0,0.0,0.0,0.0,0.0,-5.1229,-5.1229,-5.1229,-5.1229,-5.1229,-5.1229,-5.1323,-5.1602,-5.188,-5.2063,-5.2337,-5.2473,-5.2094,-5.2109,-5.2079,-5.1572,-5.1323,-5.1229,-5.1229,-5.0917,-5.0364,-4.9317,-4.912,-4.8745,-4.7689,-4.7536,-4.7559,-4.7638,-4.728,-4.7229,-4.7638,-4.7638,-4.7689,-4.8072,-4.8122,-4.8122,-4.8122,-4.7643,-4.7312,-4.7312,-4.6821,-4.6482,-4.6482,-4.6482,-4.6482,-4.6482,-4.6482,-4.6482,-4.6482,-4.6482,-4.6482,-4.6482,-4.6482,-4.6482,-4.6482,-4.6482,-4.6482,-4.6482,-4.6482,-4.6482,-4.6482,-4.6482,-4.6482,-4.6482,0.0,0.0,0.0,0.0,0.0,0.0,0.0,0.0,-5.483,-5.4545,-5.4514,-5.4419,0.0,0.0,0.0,0.0,0.0,0.0,-5.5133,-5.5207,-5.5738,-5.6867,-5.652,-5.7004,-5.8462,-5.9365,-5.9578,-5.9094,-5.9588,-5.9784,-5.981,-5.981,-5.9938,-6.0084,-5.8591,-5.7463,-5.6658,-5.4467,-5.267,-5.1101,-4.9707,-4.8853,-4.8399,0.0,0.0,0.0,0.0,0.0,0.0,0.0,0.0,0.0,-5.1229,-5.1229,-5.1229,-5.1323,-5.1369,-5.1386,-5.1572,-5.1834,-5.2048,-5.2231,-5.2382,-5.2473,-5.22,-5.1987,-5.1743,-5.1148,-5.1143,-5.1139,-5.0823,-5.1003,-5.087,-4.9757,-4.9979,-4.9854,-4.8795,-4.8646,-4.8646,-4.8646,-4.8267,-4.8117,-4.8396,-4.8396,-4.8496,-4.8795,-4.8795,-4.8795,-4.8795,-4.8374,-4.8151,-4.8151,-4.7694,-4.7387,-4.7387,-4.7105,-4.6977,-4.6977,-4.6665,-4.6482,-4.6482,-4.6482,-4.6482,-4.6482,-4.6482,-4.6482,-4.6482,-4.6482,-4.6482,-4.6482,-4.6482,-4.6482,-4.6482,-4.6482,-4.6482,-4.6482,0.0,0.0,-5.6347,-5.6283,0.0,0.0,0.0,0.0,0.0,0.0,-5.5197,-5.4988,0.0,0.0,0.0,0.0,0.0,0.0,0.0,-5.5634,-5.6167,-5.7385,-5.7524,-5.7609,-5.7604,-5.9267,-5.9737,-5.886,-5.9611,-6.0069,-6.0255,-6.0336,-6.058,-6.0928,-5.9037,-5.7554,-5.631,-5.43,-5.2211,-5.0198,-4.9931,-4.9149,-4.8308,-4.8674,0.0,0.0,0.0,0.0,0.0,0.0,0.0,0.0,-5.1229,-5.1229,-5.1276,-5.1479,-5.1572,-5.1665,-5.2124,-5.2155,-5.2109,-5.2563,-5.2473,-5.2306,-5.2306,-5.1697,-5.099,-5.0451,-5.075,-5.096,-5.0375,-5.0764,-5.087,-4.9931,-5.0555,-5.087,-4.9883,-4.9786,-4.9786,-4.9786,-4.8894,-4.8368,-4.8646,-4.8646,-4.8745,-4.8993,-4.8993,-4.8993,-4.8993,-4.8944,-4.8894,-4.8894,-4.8844,-4.8795,-4.8795,-4.8151,-4.7796,-4.7796,-4.7053,-4.6665,-4.6612,-4.6508,-4.6482,-4.6482,-4.6482,-4.6482,-4.6482,-4.6482,-4.6482,-4.6482,-4.6482,-4.6482,-4.6482,-4.6482,-4.6562,-4.6616,0.0,0.0,-5.7642,-5.7105,0.0,0.0,0.0,0.0,0.0,0.0,0.0,0.0,0.0,0.0,0.0,0.0,0.0,0.0,0.0,-5.4496,-5.4995,-5.6135,-5.7223,-5.7071,-5.5471,-5.779,-5.861,-5.7891,-6.0174,-6.0779,-5.9838,-6.0562,-6.067,-6.0173,-5.8774,-5.7864,-5.7246,-5.4526,-5.3257,-5.3,-5.0702,-4.9603,-4.9268,-4.8681,-4.8211,0.0,0.0,0.0,0.0,0.0,0.0,0.0,-5.1229,-5.1229,-5.1229,-5.1276,-5.1463,-5.1618,-5.1711,-5.1987,-5.2261,-5.2352,-5.2352,-5.2306,-5.2306,-5.1501,-5.0817,-5.1208,-5.0859,-5.0524,-5.0883,-5.1109,-5.1105,-5.087,-5.1058,-5.1135,-5.087,-5.087,-5.087,-5.087,-5.065,-5.0508,-5.0603,-5.0603,-5.0603,-5.065,-5.065,-5.065,-5.065,-5.0076,-4.9737,-4.9737,-4.912,-4.8795,-4.8795,-4.8646,-4.8546,-4.8546,-4.8424,-4.7971,-4.7414,-4.6769,-4.6482,-4.6482,-4.6482,-4.6482,-4.6482,-4.6482,-4.6482,-4.6482,-4.6482,-4.6482,-4.6482,-4.6482,-4.6834,-4.7214,0.0,0.0,0.0,0.0,0.0,0.0,0.0,0.0,0.0,0.0,0.0,0.0,0.0,0.0,0.0,0.0,0.0,0.0,0.0,-5.4292,-5.439,-5.4964,-5.5898,-5.5928,-5.4813,-5.6882,-5.7723,-5.7238,-5.9497,-6.0271,-5.9728,-6.0453,-6.042,-5.9783,-5.8619,-5.759,-5.6628,-5.456,-5.3261,-5.2426,-5.0914,-5.0132,-4.976,-4.923,-4.885,-4.8612,-4.9194,0.0,0.0,0.0,0.0,0.0,0.0,0.0,-5.0947,-5.1323,-5.1479,-5.1618,-5.1849,-5.2124,-5.2352,-5.2442,-5.2518,-5.2442,-5.2352,-5.1606,-5.1031,-5.1498,-5.0829,-5.0315,-5.0644,-5.0973,-5.1229,-5.1229,-5.1229,-5.1229,-5.1229,-5.1229,-5.1229,-5.1229,-5.1229,-5.1229,-5.1229,-5.1229,-5.1229,-5.1229,-5.1229,-5.1229,-5.1229,-5.0822,-5.0585,-5.0585,-5.0172,-4.995,-4.995,-4.9562,-4.9366,-4.9366,-4.8993,-4.8624,-4.8173,-4.7002,-4.6482,-4.6482,-4.6482,-4.6482,-4.6482,-4.6482,-4.6482,-4.6482,-4.6482,-4.6698,-4.6942,-4.6942,-4.7269,-4.7785,0.0,0.0,0.0,0.0,0.0,0.0,0.0,0.0,0.0,0.0,0.0,0.0,0.0,0.0,0.0,0.0,0.0,0.0,0.0,0.0,0.0,-5.4103,-5.456,-5.4813,-5.4813,-5.6148,-5.6839,-5.6776,-5.8268,-5.9154,-5.9358,-5.9968,-5.9914,-5.9177,-5.8254,-5.6898,-5.531,-5.428,-5.2833,-5.1189,-5.1082,-5.0769,-5.0255,-5.0161,-5.0029,-4.996,-4.9878,-4.9843,-4.9814,-4.9727,0.0,0.0,0.0,0.0,-5.0471,-5.1058,-5.1293,-5.1433,-5.1941,-5.217,-5.2352,-5.2608,-5.2698,-5.2653,-5.2397,-5.1831,-5.1347,-5.1636,-5.0922,-5.0272,-5.0345,-5.0794,-5.1229,-5.1229,-5.1229,-5.1229,-5.1229,-5.1229,-5.1229,-5.1229,-5.1229,-5.1229,-5.1229,-5.1229,-5.1229,-5.1229,-5.1229,-5.1229,-5.1229,-5.1229,-5.1229,-5.1229,-5.1229,-5.1229,-5.1229,-5.0537,-5.022,-5.0172,-4.9415,-4.8993,-4.8944,-4.7541,-4.6821,-4.6717,-4.656,-4.6482,-4.6482,-4.6482,-4.6589,-4.6671,-4.6671,-4.7051,-4.7567,-4.7567,-4.7893,-4.8354,0.0,0.0,0.0,0.0,0.0,0.0,0.0,0.0,0.0,0.0,-5.8116,-5.8085,0.0,0.0,0.0,0.0,0.0,0.0,-5.6031,0.0,0.0,-5.4134,-5.456,-5.4813,-5.4813,-5.5375,-5.5813,-5.6188,-5.731,-5.7883,-5.793,-5.9173,-5.8953,-5.7371,-5.696,-5.5766,-5.398,-5.315,-5.2619,-5.2348,-5.1892,-5.1604,-5.1461,-5.1456,-5.1085,-5.0538,-5.0514,-5.0481,-5.0423,-4.9872,-4.9717,0.0,0.0,0.0,-4.9815,-4.9912,-5.0105,-5.0316,-5.084,-5.1665,-5.2352,-5.2608,-5.2698,-5.2698,-5.2653,-5.1952,-5.1422,-5.185,-5.1197,-5.0621,-5.099,-5.1169,-5.1229,-5.1229,-5.1229,-5.1229,-5.1229,-5.1229,-5.1229,-5.1229,-5.1229,-5.1229,-5.1229,-5.1229,-5.1229,-5.1229,-5.1229,-5.1229,-5.1229,-5.1229,-5.1229,-5.1229,-5.1229,-5.1229,-5.1229,-5.1058,-5.1011,-5.1011,-5.022,-4.9834,-4.9834,-4.8923,-4.8122,-4.7517,-4.6821,-4.6482,-4.6482,-4.6482,-4.6834,-4.7295,-4.7295,-4.7595,-4.8083,-4.8083,-4.8435,-4.895,0.0,0.0,0.0,0.0,0.0,0.0,0.0,0.0,0.0,0.0,0.0,-5.8321,0.0,0.0,0.0,-5.78,-5.7168,-5.6599,-5.622,-5.6005,-5.5574,-5.4876,-5.5346,-5.5365,-5.498,-5.5278,-5.5642,-5.6111,-5.6841,-5.7364,-5.7624,-5.7895,-5.7621,-5.6783,-5.54,-5.434,-5.3518,-5.2541,-5.2139,-5.2167,-5.1896,-5.1781,-5.1714,-5.1375,-5.1063,-5.0752,-5.0388,-5.0035,-4.9643,-4.9408,-4.9095,-4.8859,-4.9157,0.0,0.0,0.0,-4.9766,-5.0009,-5.0793,-5.1479,-5.2033,-5.2563,-5.2698,-5.2698,-5.2698,-5.2393,-5.2105,-5.2185,-5.1865,-5.1516,-5.1263,-5.1229,-5.1229,-5.1229,-5.1229,-5.1229,-5.1229,-5.1229,-5.1229,-5.1229,-5.1229,-5.1229,-5.1229,-5.1229,-5.1229,-5.1229,-5.1229,-5.1229,-5.1229,-5.1229,-5.1229,-5.1229,-5.1229,-5.1229,-5.1229,-5.1229,-5.1229,-5.1229,-5.0822,-5.068,-5.0632,-4.9805,-4.8823,-4.7671,-4.7312,-4.7117,-4.7024,-4.7024,-4.7323,-4.7866,-4.7866,-4.8219,-4.8679,-4.8679,-4.9059,-4.963,0.0,0.0,0.0,0.0,0.0,0.0,0.0,0.0,0.0,0.0,0.0,0.0,0.0,0.0,0.0,0.0,-5.78,-5.7245,-5.6594,-5.6709,-5.6523,-5.5898,-5.606,-5.595,-5.5403,-5.5384,-5.5642,-5.6111,-5.6627,-5.7145,-5.7579,-5.6696,-5.628,-5.6183,-5.4296,-5.3256,-5.2967,-5.2139,-5.1787,-5.1787,-5.1787,-5.1787,-5.1731,-5.1281,-5.1112,-5.1028,-5.0463,-4.9904,-4.9483,-4.9342,-4.8864,-4.841,-4.8786,-4.8824,0.0,0.0,0.0,-4.9669,-5.0508,-5.1028,-5.1572,-5.2246,-5.2518,-5.2608,-5.2653,-5.2698,-5.2608,-5.2352,-5.2306,-5.2124,-5.1509,-5.1369,-5.1276,-5.1229,-5.1229,-5.1229,-5.1229,-5.1229,-5.1229,-5.1229,-5.1229,-5.1229,-5.1229,-5.1229,-5.1229,-5.1229,-5.1229,-5.1229,-5.1229,-5.1229,-5.1229,-5.1229,-5.1229,-5.1229,-5.1229,-5.1229,-5.1229,-5.1229,-5.1229,-5.1229,-5.1182,-5.0585,-4.9678,-4.8477,-4.8098,-4.7705,-4.7431,-4.7567,-4.792,-4.8408,-4.8408,-4.8788,-4.9359,-4.9359,-4.963,-5.001,0.0,0.0,0.0,0.0,0.0,0.0,0.0,0.0,0.0,0.0,0.0,-5.8321,-5.8321,-5.8321,-5.8321,-5.8321,-5.8243,-5.8018,-5.7547,-5.756,-5.7331,-5.6861,-5.6402,0.0,-5.6143,-5.5642,-5.5642,-5.6111,-5.6627,-5.7145,-5.7579,-5.5865,-5.508,-5.5029,-5.3906,-5.2861,-5.1896,-5.1841,-5.1787,-5.1787,-5.1787,-5.1787,-5.1787,-5.1759,-5.1731,-5.1646,-5.1056,-5.0803,-5.0691,-5.0154,-4.9511,-4.8953,-4.9005,-4.8583,-4.8134,0.0,0.0,0.0,-4.9326,-5.0076,-5.0934,-5.1526,-5.1987,-5.2397,-5.2653,-5.2698,-5.2608,-5.2352,-5.2306,-5.2215,-5.1972,-5.1741,-5.1479,-5.1229,-5.1229,-5.1229,-5.1229,-5.1229,-5.1229,-5.1229,-5.1229,-5.1229,-5.1229,-5.1229,-5.1229,-5.1229,-5.1229,-5.1229,-5.1229,-5.1229,-5.1229,-5.1229,-5.1229,-5.1229,-5.1229,-5.1229,-5.1229,-5.1229,-5.1229,-5.1229,-5.1229,-5.1182,-5.1006,-5.0738,-4.9126,-4.8039,-4.7458,-4.7975,-4.849,-4.9032,-4.9032,-4.944,-4.9956,-4.9956,-4.9983,-5.001,0.0,0.0,0.0,0.0,0.0,0.0,0.0,0.0,0.0,0.0,0.0,0.0,0.0,-5.8778,-5.8778,-5.8778,-5.8778,-5.8683,-5.8518,-5.862,-5.8434,-5.7816,-5.7743,-5.7322,-5.6385,-5.621,-5.5951,-5.5675,-5.6208,-5.6324,-5.6068,-5.5426,-5.4733,-5.3906,-5.2861,-5.2139,-5.1787,-5.1787,-5.1787,-5.1787,-5.1787,-5.1787,-5.1787,-5.1787,-5.1787,-5.1759,-5.1534,-5.1197,-5.0885,-5.066,-5.0129,-4.9567,-4.9122,-4.8841,-4.8588,-4.8195,-4.8235,-4.8509,-4.9128,-4.9542,-5.0076,-5.1075,-5.1618,-5.1941,-5.2352,-5.2563,-5.2653,-5.2563,-5.2563,-5.2473,-5.2246,-5.2017,-5.1834,-5.1741,-5.1556,-5.1463,-5.1463,-5.1323,-5.1229,-5.1229,-5.1229,-5.1229,-5.1229,-5.1229,-5.1229,-5.1229,-5.1229,-5.1229,-5.1229,-5.1229,-5.1229,-5.1229,-5.1229,-5.1229,-5.1229,-5.1229,-5.1229,-5.1229,-5.1229,-5.1229,-5.1229,-5.1229,-5.1131,-5.1022,-5.0753,-5.0492,-5.0157,-5.0382,-5.0885,-5.1609,-5.1609,-5.1371,-5.11,-5.11,-5.0656,-5.001,0.0,0.0,0.0,-5.861,0.0,-5.8655,-5.8701,-5.8882,-5.9004,-5.9004,0.0,0.0,0.0,0.0,-5.9004,-5.9004,-5.9004,-5.9049,-5.9107,-5.9241,-5.9137,-5.8775,-5.8647,-5.8152,-5.7223,-5.6964,-5.6598,-5.603,-5.6347,-5.6251,-5.575,-5.5357,-5.4657,-5.3657,-5.2569,-5.1994,-5.1787,-5.1787,-5.1787,-5.1787,-5.1787,-5.1787,-5.1787,-5.1787,-5.1787,-5.1787,-5.1787,-5.1534,-5.1169,-5.1169,-5.0829,-5.0238,-4.9792,-4.9318,-4.8897,-4.8504,-4.8223,-4.8207,-4.8731,-4.9029,-4.9424,-5.0316,-5.0887,-5.1263,-5.1681,-5.1987,-5.22,-5.22,-5.22,-5.22,-5.217,-5.2063,-5.2002,-5.2002,-5.1834,-5.1695,-5.1618,-5.1433,-5.1293,-5.1229,-5.1229,-5.1229,-5.1229,-5.1229,-5.1229,-5.1229,-5.1229,-5.1229,-5.1229,-5.1229,-5.1229,-5.1229,-5.1229,-5.1229,-5.1229,-5.1229,-5.1229,-5.1229,-5.1229,-5.1229,-5.1229,-5.1439,-5.1601,-5.1768,-5.2417,-5.2311,-5.1704,-5.2038,-5.2488,-5.302,-5.3126,-5.2566,-5.1674,-5.1674,-5.0962,-5.001,-5.9816,-5.9331,-5.9062,-5.9286,-5.8972,-5.8746,-5.8972,-5.9004,-5.9049,-5.9049,0.0,0.0,0.0,0.0,0.0,-5.9049,-5.9049,-5.9107,-5.9286,-5.9331,-5.9419,-5.9673,-5.8993,-5.8605,-5.8605,-5.7968,-5.7452,-5.7163,-5.7163,-5.7034,-5.6805,-5.5673,-5.4837,-5.4228,-5.3162,-5.2334,-5.1787,-5.1787,-5.1787,-5.1787,-5.1787,-5.1787,-5.1787,-5.1787,-5.1787,-5.1787,-5.1787,-5.1787,-5.1787,-5.1787,-5.1393,-5.0888,-5.0888,-5.0045,-4.9009,-4.8981,-4.856,-4.8083,0.0,0.0,0.0,-4.9227,-4.9834,-5.043,-5.0698,-5.1011,-5.1229,-5.1229,-5.1229,-5.1416,-5.191,-5.2002,-5.2048,-5.2048,-5.2002,-5.1926,-5.1649,-5.1572,-5.1479,-5.1229,-5.1229,-5.1229,-5.1229,-5.1229,-5.1229,-5.1229,-5.1229,-5.1229,-5.1229,-5.1229,-5.1229,-5.1229,-5.1229,-5.1229,-5.1229,-5.1229,-5.1229,-5.1229,-5.1229,-5.1229,-5.1259,-5.1917,-5.2576,-5.3264,-5.3922,-5.331,-5.1866,-5.2709,-5.3073,-5.3126,-5.3361,-5.2779,-5.1729,-5.1729,-5.1017,-5.001,-6.0345,-5.9946,-5.9508,-5.9596,-5.9608,-5.952,-5.9286,-5.9375,-5.9496,0.0,0.0,0.0,-5.9496,-5.9496,-5.9496,-5.9496,-5.9496,-5.954,-5.9584,-5.9584,-5.9628,-5.9716,-5.9522,-5.9122,-5.8605,-5.8453,-5.7796,-5.6718,-5.6718,-5.6146,-5.5128,-5.4831,-5.4142,-5.3112,-5.2836,-5.2334,-5.1787,-5.1787,-5.1787,-5.1787,-5.1787,-5.1787,-5.1787,-5.1787,-5.1787,-5.1787,-5.1787,-5.1787,-5.1787,-5.1787,-5.1674,-5.145,-5.1028,-5.0326,-4.9623,-4.9122,-4.8869,-4.8644,-4.8195,0.0,0.0,0.0,0.0,0.0,-5.0364,-5.1028,-5.1433,-5.1229,-5.1787,-5.22,-5.2048,-5.2276,-5.2503,-5.2503,-5.2337,-5.2155,-5.1926,-5.1741,-5.1479,-5.1229,-5.1229,-5.1229,-5.1229,-5.1229,-5.1229,-5.1229,-5.1229,-5.1229,-5.1229,-5.1229,-5.1229,-5.1229,-5.1229,-5.1229,-5.1229,-5.1229,-5.1229,-5.1229,-5.1229,-5.1468,-5.1947,-5.2127,-5.2845,-5.3922,-5.4132,-5.4311,-5.4527,-5.4756,-5.4997,-5.517,-5.5471,-5.4501,-5.2939,-5.2939,-5.1702,-5.0123,-6.1053,-6.0558,-6.0001,-5.9739,-5.9355,-5.8844,-5.824,-5.8102,-5.8056,0.0,0.0,0.0,-5.8056,-5.8056,-5.8286,-5.8818,-5.8863,-5.912,-5.9673,-5.9716,-5.9716,-5.9716,-5.9716,-5.9522,-5.9058,-5.9025,-5.8389,-5.6931,-5.6931,-5.6272,-5.4867,-5.4643,-5.3991,-5.305,-5.2792,-5.2334,-5.1787,-5.1787,-5.1787,-5.1787,-5.1787,-5.1787,-5.1787,-5.1787,-5.1787,-5.1787,-5.1787,-5.1787,-5.1787,-5.1787,-5.1787,-5.1731,-5.1365,-5.0885,-5.0322,-4.9904,-4.9454,-4.8897,-4.856,-4.828,-4.8185,-4.8509,0.0,0.0,-4.964,-5.022,-5.068,-5.0852,-5.1369,-5.1787,-5.2002,-5.2231,-5.2473,-5.2653,-5.2563,-5.2382,-5.2155,-5.1926,-5.1695,-5.1386,-5.1276,-5.1229,-5.1229,-5.1229,-5.1229,-5.1229,-5.1229,-5.1229,-5.1229,-5.1229,-5.1229,-5.1229,-5.1229,-5.1229,-5.1229,-5.1229,-5.1229,-5.1229,-5.1229,-5.1558,-5.2217,-5.2486,-5.3204,-5.4221,-5.4491,-5.497,-5.5631,-5.5731,-5.5929,-5.6176,-5.647,-5.5571,-5.409,-5.409,-5.2992,-5.1484,0.0,-6.0853,-6.0184,-5.9455,-5.8451,-5.748,-5.6625,-5.614,-5.5846,0.0,-5.5797,-5.5797,-5.5797,-5.5797,-5.6335,-5.7621,-5.7714,-5.8254,-5.9628,-5.9716,-5.9716,-5.9716,-5.9716,-5.9716,-5.9716,-5.9716,-5.9069,-5.7709,-5.7654,-5.6867,-5.5457,-5.4755,-5.4098,-5.3555,-5.2906,-5.2316,-5.1787,-5.1787,-5.1787,-5.1787,-5.1787,-5.1787,-5.1787,-5.1787,-5.1787,-5.1787,-5.1787,-5.1787,-5.1787,-5.1787,-5.1787,-5.1787,-5.1787,-5.1421,-5.0972,-5.0888,-5.0101,-4.9178,-4.9122,-4.8696,-4.8218,-4.8218,-4.8364,0.0,-4.8909,-4.9157,-4.9551,-5.026,-5.0471,-5.0775,-5.1679,-5.191,-5.2139,-5.2518,-5.2653,-5.2608,-5.2352,-5.2109,-5.188,-5.1618,-5.1369,-5.1229,-5.1229,-5.1229,-5.1229,-5.1229,-5.1229,-5.1229,-5.1229,-5.1229,-5.1229,-5.1229,-5.1229,-5.1229,-5.1229,-5.1229,-5.1229,-5.1229,-5.1289,-5.1678,-5.2336,-5.2995,-5.3683,-5.4341,-5.494,-5.5381,-5.5681,-5.588,-5.6176,-5.6421,-5.6713,-5.6066,-5.5089,-5.5089,-5.4399,-5.3413,-5.8992,-5.8812,-5.8405,-5.7854,-5.79,-5.7574,-5.614,-5.6237,-5.6286,-5.5846,-5.5797,-5.5797,-5.5797,-5.5797,-5.6335,-5.7621,-5.7714,-5.8254,-5.9628,-5.9716,-5.9716,-5.9716,-5.9716,-5.9716,-5.9716,-5.9716,-5.9295,-5.8378,-5.7838,-5.7074,-5.6024,-5.4479,-5.3641,-5.3327,-5.2405,-5.1917,-5.1787,-5.1787,-5.1787,-5.1787,-5.1787,-5.1787,-5.1787,-5.1787,-5.1787,-5.1787,-5.1787,-5.1787,-5.1787,-5.1787,-5.1787,-5.1787,-5.1787,-5.1702,-5.1506,-5.1028,-5.0691,-5.041,-4.9904,-4.9342,-4.8864,-4.9093,-4.8799,0.0,-4.9108,-4.96,-4.9941,-4.9892,-5.0489,-5.0994,-5.0834,-5.1416,-5.2048,-5.2139,-5.2458,-5.2608,-5.2352,-5.2109,-5.188,-5.1618,-5.1369,-5.1229,-5.1229,-5.1229,-5.1229,-5.1229,-5.1229,-5.1229,-5.1229,-5.1229,-5.1229,-5.1229,-5.1229,-5.1229,-5.1229,-5.1229,-5.1229,-5.1229,-5.1768,-5.2366,-5.3025,-5.3713,-5.4371,-5.4999,-5.5119,-5.5481,-5.5929,-5.5979,-5.6176,-5.6421,-5.6713,-5.6066,-5.5089,-5.5089,-5.4399,-5.3518,-5.8542,-5.8405,-5.8039,-5.7292,-5.7055,-5.6528,-5.523,-5.4777,-5.4522,-5.4215,-5.3957,-5.3802,-5.3802,-5.3802,-5.434,-5.5668,-5.5736,-5.6304,-5.7652,-5.7746,-5.8056,-5.8651,-5.8696,-5.8998,-5.9673,-5.9716,-5.936,-5.8605,-5.762,-5.6694,-5.5851,-5.3992,-5.3109,-5.3,-5.2166,-5.1787,-5.1787,-5.195,-5.2004,-5.2004,-5.2004,-5.2004,-5.2004,-5.2167,-5.2221,-5.2221,-5.2059,-5.1896,-5.1787,-5.1787,-5.1896,-5.195,-5.1841,-5.1896,-5.1948,-5.1638,-5.1327,-5.1017,-5.0706,-5.0275,-4.9813,-4.9501,-4.9291,0.0,0.0,-4.9404,-4.96,-5.0038,-5.0279,-5.0537,-5.0805,-5.1135,-5.1463,-5.1556,-5.2017,-5.2291,-5.2155,-5.2063,-5.1972,-5.1941,-5.1479,-5.1246,-5.1416,-5.1276,-5.1229,-5.1229,-5.1229,-5.1229,-5.1229,-5.1229,-5.1229,-5.1229,-5.1229,-5.1229,-5.1229,-5.1229,-5.1379,-5.1708,-5.2037,-5.2725,-5.3713,-5.4042,-5.4581,-5.5179,-5.5179,-5.5481,-5.5979,-5.5979,-5.6225,-5.6616,-5.6761,-5.6439,-5.5967,-5.5967,-5.5832,-5.567,-5.8039,-5.7946,-5.7527,-5.6625,-5.6024,-5.5361,-5.4304,-5.3471,-5.2837,-5.2623,-5.2167,-5.1787,-5.1787,-5.1787,-5.2355,-5.3698,-5.3802,-5.434,-5.5698,-5.5797,-5.6286,-5.7261,-5.7308,-5.7839,-5.894,-5.894,-5.8652,-5.8076,-5.6864,-5.5983,-5.5316,-5.3545,-5.2683,-5.261,-5.207,-5.1787,-5.1841,-5.2059,-5.2167,-5.2113,-5.2275,-5.2358,-5.2358,-5.2627,-5.268,-5.268,-5.2411,-5.2167,-5.195,-5.195,-5.2113,-5.2221,-5.2059,-5.2113,-5.2275,-5.2275,-5.1935,-5.1538,-5.1538,-5.1294,-5.0823,-5.0104,-5.0007,-5.0032,0.0,0.0,0.0,-5.0164,-4.999,-4.996,-5.0728,-5.0917,-5.0994,-5.1332,-5.1832,-5.217,-5.2292,-5.2154,-5.2109,-5.2306,-5.1711,-5.1416,-5.1572,-5.1369,-5.1229,-5.1229,-5.1229,-5.1229,-5.1229,-5.1229,-5.1229,-5.1229,-5.1229,-5.1229,-5.1229,-5.1229,-5.1558,-5.2187,-5.2336,-5.3025,-5.4221,-5.4341,-5.47,-5.5179,-5.5179,-5.5481,-5.5929,-5.5979,-5.6274,-5.6713,-5.6761,-5.681,-5.681,-5.681,-5.7241,-5.7826,-5.5601,-5.5601,-5.5371,-5.4735,-5.4968,-5.4896,-5.3762,-5.389,-5.3733,-5.273,-5.2167,-5.1787,-5.1787,-5.1787,-5.2355,-5.3698,-5.3802,-5.434,-5.5698,-5.5797,-5.5846,-5.5993,-5.5993,-5.6091,-5.6237,-5.6237,-5.6207,-5.6115,-5.531,-5.4782,-5.451,-5.3284,-5.2581,-5.2433,-5.1963,-5.1787,-5.1841,-5.2059,-5.2059,-5.1896,-5.268,-5.2841,-5.268,-5.268,-5.268,-5.268,-5.268,-5.2627,-5.2627,-5.2627,-5.2627,-5.2627,-5.2627,-5.2627,-5.2627,-5.2627,-5.257,-5.2512,-5.2512,-5.208,-5.1618,-5.177,-5.1443,-5.0969,-5.0614,0.0,-5.0345,-4.9912,0.0,-4.9717,-4.9863,0.0,0.0,-5.1977,-5.2412,-5.2823,-5.3438,-5.2795,-5.2261,-5.2306,-5.2063,-5.1834,-5.1618,-5.1369,-5.1229,-5.1229,-5.1229,-5.1229,-5.1229,-5.1229,-5.1229,-5.1229,-5.1229,-5.1229,-5.1229,-5.1229,-5.1558,-5.2217,-5.2785,-5.3473,-5.4221,-5.482,-5.5119,-5.5179,-5.5179,-5.5381,-5.5681,-5.588,-5.6176,-5.647,-5.6713,-5.681,-5.681,-5.681,-5.7241,-5.7826,-5.5179,-5.5179,-5.5128,-5.4845,-5.5027,-5.5027,-5.4568,-5.4385,-5.4045,-5.3237,-5.2919,-5.2652,-5.2301,-5.2247,-5.2516,-5.3073,-5.3126,-5.3361,-5.3935,-5.3957,-5.4164,-5.4595,-5.4645,-5.4999,-5.5797,-5.5944,-5.6127,-5.6293,-5.503,-5.4458,-5.4539,-5.2919,-5.2141,-5.2063,-5.1892,-5.1787,-5.1841,-5.2059,-5.2113,-5.2059,-5.2627,-5.2894,-5.2947,-5.3107,-5.3001,-5.268,-5.268,-5.2573,-5.2465,-5.2627,-5.2787,-5.2894,-5.2734,-5.2787,-5.2947,-5.2947,-5.2947,-5.2947,-5.2947,-5.3035,-5.303,-5.2266,-5.2288,-5.2246,-5.1403,-5.0817,-5.0448,-5.0307,0.0,0.0,0.0,0.0,0.0,0.0,-5.1613,-5.197,-5.2428,-5.2398,-5.2352,-5.2518,-5.22,-5.188,-5.1618,-5.1369,-5.1229,-5.1229,-5.1229,-5.1229,-5.1229,-5.1229,-5.1229,-5.1229,-5.1229,-5.1229,-5.1229,-5.1588,-5.2127,-5.2785,-5.3443,-5.4132,-5.479,-5.5059,-5.5179,-5.5179,-5.5179,-5.533,-5.5631,-5.588,-5.6176,-5.6421,-5.6713,-5.681,-5.681,-5.681,-5.7487,-5.8412,-5.5179,-5.5179,-5.5179,-5.5179,-5.5179,-5.5179,-5.5179,-5.4692,-5.4149,-5.3762,-5.3605,-5.3343,-5.289,-5.2837,-5.2837,-5.2837,-5.2837,-5.2837,-5.2837,-5.2677,-5.2914,-5.3675,-5.3413,-5.3802,-5.4929,-5.5128,-5.5377,-5.5567,-5.4375,-5.3878,-5.4128,-5.253,-5.1787,-5.1787,-5.1787,-5.1787,-5.1841,-5.2059,-5.2167,-5.2113,-5.2573,-5.2841,-5.3001,-5.3266,-5.3107,-5.268,-5.268,-5.2573,-5.2411,-5.268,-5.2947,-5.3054,-5.2947,-5.3054,-5.3213,-5.3319,-5.3319,-5.3319,-5.3213,-5.371,-5.3876,-5.2659,-5.2936,-5.3173,-5.2122,-5.1374,-5.089,-5.0743,-4.9981,0.0,0.0,0.0,-5.0212,-5.084,0.0,-5.157,-5.1937,-5.2154,-5.2397,-5.2653,-5.2337,-5.2017,-5.1803,-5.1556,-5.1416,-5.1323,-5.1323,-5.1276,-5.1229,-5.1229,-5.1229,-5.1229,-5.1229,-5.1229,-5.1229,-5.1858,-5.2546,-5.3204,-5.3892,-5.4551,-5.5179,-5.5179,-5.5179,-5.5179,-5.5179,-5.528,-5.5531,-5.588,-5.6127,-5.6323,-5.6664,-5.681,-5.681,-5.681,-5.7549,-5.8516,-5.5179,-5.5179,-5.5179,-5.5179,-5.5179,-5.5179,-5.5179,-5.4692,-5.4304,-5.4304,-5.3815,-5.35,-5.3448,-5.3448,-5.3448,-5.3448,-5.3448,-5.3448,-5.3448,-5.289,-5.2837,-5.3448,-5.2437,-5.2167,-5.2677,-5.2788,-5.2824,-5.2797,-5.2797,-5.2741,-5.2741,-5.2068,-5.1787,-5.1787,-5.1787,-5.1787,-5.1841,-5.2059,-5.2059,-5.1841,-5.2465,-5.2734,-5.2734,-5.3001,-5.2947,-5.268,-5.268,-5.268,-5.2734,-5.3001,-5.3054,-5.316,-5.3424,-5.3448,-5.3553,-5.3815,-5.3867,-5.3815,-5.3553,-5.371,-5.3815,-5.3184,-5.329,-5.3326,-5.2688,-5.2514,-5.2165,-5.0917,-5.0656,-5.0353,-4.947,-5.0105,-5.0905,-5.1335,-5.1712,0.0,0.0,-5.2597,-5.2397,-5.2653,-5.2473,-5.2306,-5.2306,-5.2109,-5.1834,-5.1602,-5.1572,-5.1479,-5.1229,-5.1229,-5.1229,-5.1229,-5.1229,-5.1229,-5.1229,-5.1858,-5.2546,-5.3204,-5.3892,-5.4551,-5.5179,-5.5179,-5.5179,-5.5179,-5.5179,-5.5179,-5.5229,-5.578,-5.6028,-5.6077,-5.6616,-5.681,-5.681,-5.681,-5.7241,-5.7949,-5.5179,-5.5179,-5.5179,-5.5179,-5.5179,-5.5179,-5.5179,-5.5027,-5.4896,-5.4896,-5.4773,-5.4436,-5.4045,-5.3993,-5.3993,-5.3993,-5.3993,-5.4199,-5.4638,-5.451,-5.4526,-5.4802,-5.4425,-5.4316,-5.4533,-5.4328,-5.4312,-5.4543,-5.3526,-5.3106,-5.3332,-5.2264,-5.1896,-5.2059,-5.1896,-5.1896,-5.2059,-5.195,-5.1896,-5.1841,-5.2652,-5.2598,-5.2113,-5.2411,-5.2465,-5.2358,-5.2358,-5.2358,-5.2411,-5.2734,-5.2841,-5.2841,-5.2947,-5.3184,-5.353,-5.3605,-5.3919,-5.4149,-5.4282,-5.4641,-5.4896,-5.4282,-5.4385,-5.4479,-5.4068,-5.3531,-5.312,-5.305,-5.2507,-5.2004,-5.1816,-5.1572,-5.156,-5.1777,-5.1583,-5.1616,0.0,-5.2077,-5.22,-5.2397,-5.2352,-5.2306,-5.2306,-5.1941,-5.1695,-5.1618,-5.1463,-5.1323,-5.1199,-5.1229,-5.1229,-5.1229,-5.1229,-5.1439,-5.1858,-5.2516,-5.3204,-5.3862,-5.4551,-5.497,-5.5179,-5.5179,-5.5179,-5.5179,-5.5179,-5.5179,-5.5229,-5.5581,-5.5731,-5.578,-5.6127,-5.6372,-5.6567,-5.6713,-5.7241,-5.7857,-5.5867,-5.5867,-5.5718,-5.5269,-5.5179,-5.5179,-5.5179,-5.5179,-5.5269,-5.5508,-5.5538,-5.5496,-5.5345,-5.5293,-5.5293,-5.5293,-5.5293,-5.5501,-5.5916,-5.5765,-5.5784,-5.6089,-5.5688,-5.5579,-5.5796,-5.5594,-5.5466,-5.5472,-5.4448,-5.3886,-5.364,-5.2594,-5.2167,-5.2329,-5.195,-5.2004,-5.2329,-5.2167,-5.2004,-5.1841,-5.2652,-5.2705,-5.2437,-5.2598,-5.2544,-5.2329,-5.2329,-5.2491,-5.2705,-5.3025,-5.3131,-5.3131,-5.3237,-5.35,-5.3815,-5.3948,-5.4178,-5.4487,-5.4509,-5.4896,-5.5179,-5.4692,-5.4794,-5.4947,-5.4743,-5.4264,-5.3909,-5.4022,-5.3536,-5.2981,-5.281,-5.2318,-5.1924,0.0,0.0,-5.1386,0.0,-5.1741,-5.1972,-5.2261,-5.2306,-5.2306,-5.2306,-5.2033,-5.1757,-5.1618,-5.1433,-5.1293,-5.1229,-5.1229,-5.1229,-5.1229,-5.1439,-5.1768,-5.2187,-5.3084,-5.3773,-5.4221,-5.488,-5.5179,-5.5179,-5.5179,-5.5179,-5.5179,-5.5179,-5.5179,-5.5229,-5.5481,-5.5581,-5.5631,-5.588,-5.6127,-5.6274,-5.6567,-5.7143,-5.7795,-5.7094,-5.7094,-5.6705,-5.5508,-5.5269,-5.5269,-5.5269,-5.5269,-5.5508,-5.6188,-5.6226,-5.6436,-5.7034,-5.7094,-5.7094,-5.7094,-5.7094,-5.7094,-5.7154,-5.668,-5.6657,-5.7184,-5.626,-5.5938,-5.6421,-5.6468,-5.6168,-5.5558,-5.5445,-5.4826,-5.3677,-5.2937,-5.2623,-5.2623,-5.2113,-5.2139,-5.2677,-5.2623,-5.2355,-5.195,-5.2462,-5.2996,-5.35,-5.35,-5.3184,-5.2677,-5.2677,-5.3025,-5.3553,-5.3815,-5.3919,-5.389,-5.42,-5.4304,-5.4355,-5.4671,-5.4803,-5.4722,-5.4487,-5.459,-5.4773,-5.4406,-5.456,-5.4743,-5.4743,-5.4743,-5.4565,-5.4042,-5.3722,-5.3343,-5.2684,-5.2453,-5.2181,0.0,0.0,-5.1632,-5.1572,-5.1572,-5.1757,-5.2215,-5.2261,-5.2306,-5.2306,-5.2306,-5.2124,-5.1618,-5.1602,-5.1479,-5.1229,-5.1229,-5.1229,-5.1259,-5.1887,-5.2247,-5.2306,-5.3563,-5.4221,-5.4281,-5.491,-5.5179,-5.5179,-5.5179,-5.5179,-5.5179,-5.5179,-5.5179,-5.5229,-5.5481,-5.5581,-5.5631,-5.588,-5.5979,-5.6028,-5.6323,-5.6966,-5.7623,-5.7094,-5.7094,-5.7004,-5.6675,-5.6615,-5.6615,-5.6615,-5.6615,-5.6675,-5.6825,-5.6855,-5.6915,-5.7064,-5.7094,-5.7094,-5.7094,-5.7094,-5.7304,-5.7812,-5.7713,-5.7922,-5.856,-5.8321,-5.8213,-5.8375,-5.798,-5.7651,-5.7474,-5.61,-5.5221,-5.4909,-5.381,-5.3395,-5.3524,-5.3237,-5.3237,-5.3524,-5.3343,-5.3184,-5.3131,-5.3629,-5.3733,-5.3553,-5.3942,-5.3993,-5.3838,-5.3395,-5.3343,-5.35,-5.3553,-5.3605,-5.3605,-5.3658,-5.3993,-5.4304,-5.4406,-5.4773,-5.5128,-5.5229,-5.533,-5.5381,-5.528,-5.5179,-5.5128,-5.533,-5.5381,-5.5421,-5.5687,-5.5656,-5.5444,-5.494,-5.4552,-5.4038,-5.3459,-5.2635,-5.1862,-5.1383,-5.1293,-5.1509,-5.2017,-5.1926,-5.1987,-5.2563,-5.2291,-5.2017,-5.188,-5.1509,-5.1276,-5.1229,-5.1229,-5.1439,-5.1947,-5.2127,-5.2695,-5.3683,-5.4042,-5.4461,-5.494,-5.5119,-5.5179,-5.5179,-5.5179,-5.5179,-5.5179,-5.5179,-5.5179,-5.5179,-5.528,-5.528,-5.528,-5.5381,-5.5531,-5.578,-5.6225,-5.6445,-5.6488,-5.7962,-5.7962,-5.7962,-5.7962,-5.7962,-5.7782,-5.7184,-5.7094,-5.7214,-5.7513,-5.7543,-5.7663,-5.7932,-5.7962,-5.7962,-5.7962,-5.7962,-5.8141,-5.853,-5.856,-5.871,-5.9099,-5.9099,-5.9099,-5.9099,-5.8773,-5.8461,-5.8164,-5.6804,-5.5835,-5.5357,-5.4334,-5.3942,-5.4045,-5.3658,-5.371,-5.4045,-5.3658,-5.3792,-5.4259,-5.4252,-5.4282,0.0,-5.459,-5.4692,-5.4641,-5.4333,-5.4259,-5.4259,-5.4259,-5.4259,-5.4259,-5.4259,-5.4436,-5.4692,-5.4692,-5.4926,-5.5229,-5.5381,-5.5431,-5.5431,-5.5581,-5.5481,-5.5431,-5.5581,-5.5581,-5.5681,-5.5979,-5.5979,-5.5857,-5.5707,-5.5305,-5.4734,-5.4097,-5.3067,-5.221,-5.1708,-5.1409,-5.1416,-5.1956,-5.188,-5.2017,-5.2608,-5.2155,-5.188,-5.2002,-5.1602,-5.149,-5.179,-5.179,-5.2042,-5.2606,-5.2935,-5.3443,-5.4192,-5.4491,-5.482,-5.5179,-5.5179,-5.5179,-5.5179,-5.5179,-5.5179,-5.5179,-5.5179,-5.5179,-5.5179,-5.5179,-5.5179,-5.5179,-5.5179,-5.528,-5.5481,-5.588,-5.6028,-5.6028,-5.9099,-5.9099,-5.9099,-5.9099,-5.9099,-5.871,-5.7543,-5.7363,-5.7573,-5.8171,-5.8261,-5.8471,-5.9039,-5.9099,-5.9099,-5.9099,-5.9099,-5.9099,-5.9099,-5.9099,-5.9099,-5.9099,-5.9099,-5.9099,-5.9099,-5.9099,-5.883,-5.8261,-5.7483,-5.6534,-5.5529,-5.4761,-5.4406,-5.4406,-5.3919,-5.3971,-5.4406,-5.3919,-5.4282,-5.5128,-5.4641,-5.4743,-5.5179,-5.5179,-5.5179,-5.5179,-5.5179,-5.5179,-5.5179,-5.5179,-5.5179,-5.5179,-5.5179,-5.5179,-5.5179,-5.5179,-5.5179,-5.5179,-5.5179,-5.5179,-5.5229,-5.5481,-5.5531,-5.5531,-5.5531,-5.5581,-5.5581,-5.5581,-5.5431,-5.5381,-5.5631,-5.5266,-5.4807,-5.4218,-5.3373,-5.2713,-5.2432,-5.1828,-5.1626,-5.2123,-5.2123,0.0,-5.2807,-5.2139,-5.1787,-5.2017,-5.1878,-5.2041,-5.2597,-5.2687,-5.2906,-5.3343,-5.3892,-5.4251,-5.4341,-5.491,-5.5179,-5.5179,-5.5179,-5.5179,-5.5179,-5.5179,-5.5179,-5.5179,-5.5179,-5.5179,-5.5179,-5.5179,-5.5179,-5.5179,-5.5179,-5.5179,-5.5229,-5.5481,-5.5681,-5.5929,-5.9099,-5.9099,-5.9099,-5.9099,-5.9099,-5.9009,-5.88,-5.874,-5.88,-5.8919,-5.8919,-5.8979,-5.9099,-5.9099,-5.9099,-5.9099,-5.9099,-5.9099,-5.9099,-5.9099,-5.9099,-5.9099,-5.9099,-5.9099,-5.9099,-5.9099,-5.9039,-5.8919,-5.7693,-5.6982,-5.6728,-5.5564,-5.5027,-5.5027,-5.4926,-5.4976,-5.5027,-5.4926,-5.5027,-5.5179,-5.5078,-5.5128,-5.5179,-5.5179,-5.5179,-5.5179,-5.5179,-5.5179,-5.5179,-5.5179,-5.5179,-5.5179,-5.5179,-5.5179,-5.5179,-5.5179,-5.5179,-5.5179,-5.5179,-5.5179,-5.5179,-5.5229,-5.528,-5.528,-5.528,-5.5431,-5.5581,-5.5581,-5.5731,-5.588,-5.5929,-5.569,-5.5338,-5.4916,-5.4315,-5.38,-5.3405,-5.308,-5.2923,-5.3054,-5.2744,-5.2775,-5.3469,-5.2688,-5.2215,-5.2261,-5.258,-5.2712,-5.2627,-5.3139,-5.3597,-5.4012,-5.4132,-5.4461,-5.5029,-5.5119,-5.5179,-5.5179,-5.5179,-5.5179,-5.5179,-5.5179,-5.5179,-5.5179,-5.5179,-5.5179,-5.5179,-5.5179,-5.5179,-5.5179,-5.5179,-5.5179,-5.5179,-5.5229,-5.528,-5.5381,-5.9099,-5.9099,-5.9099,-5.9099,-5.9099,-5.9099,-5.9099,-5.9099,-5.9099,-5.9099,-5.9099,-5.9099,-5.9099,-5.9099,-5.9099,-5.9099,-5.9099,-5.9099,-5.9099,-5.9099,-5.9099,-5.9099,-5.9099,-5.9099,-5.9099,-5.9099,-5.9099,-5.9099,-5.8112,-5.7453,-5.7064,-5.6137,-5.5508,-5.5179,-5.5179,-5.5179,-5.5179,-5.5179,-5.5179,-5.5179,-5.5179,-5.5179,-5.5179,-5.5179,-5.5179,-5.5179,-5.5179,-5.5179,-5.5179,-5.5179,-5.5179,-5.5179,-5.5179,-5.5179,-5.5179,-5.5179,-5.5179,-5.5179,-5.5179,-5.5179,-5.5179,-5.5179,-5.5179,-5.5179,-5.5179,-5.528,-5.5381,-5.5381,-5.5481,-5.5631,-5.578,-5.5681,-5.554,-5.5357,-5.4827,-5.4299,-5.3969,-5.3609,-5.3423,-5.3472,-5.3347,-5.3489,-5.3975,-5.3575,-5.3346,-5.3346,-5.3448,-5.3546,-5.3622,-5.3953,-5.4338,-5.47,-5.473,-5.488,-5.5179,-5.5179,-5.5179,-5.5179,-5.5179,-5.5179,-5.5179,-5.5179,-5.5179,-5.5179,-5.5179,-5.5179,-5.5179,-5.5179,-5.5179,-5.5179,-5.5179,-5.5179,-5.5179,-5.5179,-5.5179,-5.5229,-5.9099,-5.9099,-5.9099,-5.9099,-5.9099,-5.9099,-5.9099,-5.9099,-5.9099,-5.9099,-5.9099,-5.9099,-5.9099,-5.9099,-5.9099,-5.9099,-5.9099,-5.9099,-5.9099,-5.9099,-5.9099,-5.9099,-5.9099,-5.9099,-5.9099,-5.9099,-5.9099,-5.9099,-5.8441,-5.7842,-5.7304,-5.6675,-5.6077,-5.5568,-5.5299,-5.5269,-5.5388,-5.5239,-5.5179,-5.5179,-5.5179,-5.5179,-5.5179,-5.5179,-5.5179,-5.5179,-5.5179,-5.5179,-5.5179,-5.5179,-5.5179,-5.5179,-5.5179,-5.5179,-5.5179,-5.5179,-5.5179,-5.5179,-5.5179,-5.5179,-5.5179,-5.5179,-5.5179,-5.5179,-5.5179,-5.5179,-5.5179,-5.5179,-5.5179,-5.528,-5.5531,-5.5531,-5.5531,-5.5581,-5.5109,-5.4649,-5.453,-5.4179,-5.3935,-5.3881,-5.3996,-5.4235,-5.4413,-5.446,-5.4521,-5.4626,-5.4439,-5.4382,-5.4556,-5.4737,-5.4939,-5.5179,-5.5179,-5.5179,-5.5179,-5.5179,-5.5179,-5.5179,-5.5179,-5.5179,-5.5179,-5.5179,-5.5179,-5.5179,-5.5179,-5.5179,-5.5179,-5.5179,-5.5179,-5.5179,-5.5179,-5.5179,-5.5179,-5.5179,-5.5179,-5.5179,-5.9099,-5.9099,-5.9099,-5.9099,-5.9099,-5.9099,-5.9099,-5.9099,-5.9099,-5.9099,-5.9099,-5.9099,-5.9099,-5.9099,-5.9099,-5.9099,-5.9099,-5.9099,-5.9099,-5.9099,-5.9099,-5.9099,-5.9099,-5.9099,-5.9099,-5.9099,-5.9099,-5.9099,-5.8441,-5.8082,-5.8022,-5.7334,-5.6974,-5.6855,-5.5718,-5.5538,-5.6098,-5.5448,-5.5179,-5.5179,-5.5179,-5.5179,-5.5179,-5.5179,-5.5179,-5.5179,-5.5179,-5.5179,-5.5179,-5.5179,-5.5179,-5.5179,-5.5179,-5.5179,-5.5179,-5.5179,-5.5179,-5.5179,-5.5179,-5.5179,-5.5179,-5.5179,-5.5179,-5.5179,-5.5179,-5.5179,-5.5179,-5.5179,-5.5179,-5.528,-5.5531,-5.5381,-5.533,-5.5581,-5.532,-5.519,-5.5441,-5.523,-5.496,-5.4819,-5.4612,-5.4643,-5.4825,-5.5066,-5.5389,-5.5834,-5.5432,-5.5031,-5.4635,-5.5159,-5.5421,-5.5179,-5.5179,-5.5179,-5.5179,-5.5179,-5.5179,-5.5179,-5.5179,-5.5179,-5.5179,-5.5179,-5.5179,-5.5179,-5.5179,-5.5179,-5.5179,-5.5179,-5.5179,-5.5179,-5.5179,-5.5179,-5.5179,-5.5179,-5.5179,-5.5179,-5.9099,-5.9099,-5.9099,-5.9099,-5.9099,-5.9099,-5.9099,-5.9099,-5.9099,-5.9099,-5.9099,-5.9099,-5.9099,-5.9099,-5.9099,-5.9099,-5.9099,-5.9099,-5.9099,-5.9099,-5.9099,-5.9099,-5.9099,-5.9099,-5.9099,-5.9099,-5.9099,-5.9099,-5.883,-5.8501,-5.8112,-5.7842,-5.7483,-5.7064,-5.6555,-5.6466,-5.6705,-5.6436,-5.6107,-5.5777,-5.5777,-5.5538,-5.5179,-5.5179,-5.5179,-5.5179,-5.5179,-5.5179,-5.5179,-5.5179,-5.5179,-5.5179,-5.5179,-5.5179,-5.5179,-5.5179,-5.5179,-5.5179,-5.5179,-5.5179,-5.5179,-5.5179,-5.5179,-5.5179,-5.5179,-5.5179,-5.5179,-5.5179,-5.5179,-5.5229,-5.533,-5.528,-5.5259,-5.533,-5.528,-5.5229,-5.533,-5.5381,-5.5341,-5.509,-5.5139,-5.5239,-5.5307,-5.5406,-5.5626,-5.5948,-5.5951,-5.5749,-5.5239,-5.543,-5.5481,-5.5179,-5.5179,-5.5179,-5.5179,-5.5179,-5.5179,-5.5179,-5.5179,-5.5179,-5.5179,-5.5179,-5.5179,-5.5179,-5.5179,-5.5179,-5.5179,-5.5179,-5.5179,-5.5179,-5.5179,-5.5179,-5.5179,-5.5179,-5.5179,-5.5179,-5.9099,-5.9099,-5.9099,-5.9099,-5.9099,-5.9099,-5.9099,-5.9099,-5.9099,-5.9099,-5.9099,-5.9099,-5.9099,-5.9099,-5.9099,-5.9099,-5.9099,-5.9099,-5.9099,-5.9099,-5.9099,-5.9099,-5.9099,-5.9099,-5.9099,-5.9099,-5.9099,-5.9099,-5.9099,-5.886,-5.8411,-5.8201,-5.7962,-5.7663,-5.7274,-5.7214,-5.7393,-5.7184,-5.6825,-5.6436,-5.6436,-5.6047,-5.5478,-5.5478,-5.5359,-5.5179,-5.5179,-5.5179,-5.5179,-5.5179,-5.5179,-5.5179,-5.5179,-5.5179,-5.5179,-5.5179,-5.5179,-5.5179,-5.5179,-5.5179,-5.5179,-5.5179,-5.5179,-5.5179,-5.5179,-5.5179,-5.5179,-5.5179,-5.5179,-5.5179,-5.5179,-5.5179,-5.5179,-5.5179,-5.5179,-5.5179,-5.5179,-5.533,-5.5431,-5.5229,-5.5381,-5.5481,-5.5481,-5.5531,-5.5681,-5.588,-5.6127,-5.6077,-5.5631,-5.5531,-5.5381,-5.5179,-5.5179,-5.5179,-5.5179,-5.5179,-5.5179,-5.5179,-5.5179,-5.5179,-5.5179,-5.5179,-5.5179,-5.5179,-5.5179,-5.5179,-5.5179,-5.5179,-5.5179,-5.5179,-5.5179,-5.5179,-5.5179,-5.5179,-5.5179,-5.5179,-5.9099,-5.9099,-5.9099,-5.9099,-5.9099,-5.9099,-5.9099,-5.9099,-5.9099,-5.9099,-5.9099,-5.9099,-5.9099,-5.9099,-5.9099,-5.9099,-5.9099,-5.9099,-5.9099,-5.9099,-5.9099,-5.9099,-5.9099,-5.9099,-5.9099,-5.9099,-5.9099,-5.9099,-5.9099,-5.9099,-5.9069,-5.8441,-5.8471,-5.9009,-5.7693,-5.7483,-5.8052,-5.7393,-5.7094,-5.7094,-5.7094,-5.6705,-5.6218,-5.6218,-5.5748,-5.5179,-5.5179,-5.5179,-5.5179,-5.5179,-5.5179,-5.5179,-5.5179,-5.5179,-5.5179,-5.5179,-5.5179,-5.5179,-5.5179,-5.5179,-5.5179,-5.5179,-5.5179,-5.5179,-5.5179,-5.5179,-5.5179,-5.5179,-5.5179,-5.5179,-5.5179,-5.5179,-5.5179,-5.5179,-5.5179,-5.5179,-5.5179,-5.5179,-5.5179,-5.5179,-5.5179,-5.5179,-5.5179,-5.5431,-5.5581,-5.5581,-5.583,-5.588,-5.5631,-5.533,-5.5179,-5.5179,-5.5179,-5.5179,-5.5179,-5.5179,-5.5179,-5.5179,-5.5179,-5.5179,-5.5179,-5.5179,-5.5179,-5.5179,-5.5179,-5.5179,-5.5179,-5.5179,-5.5179,-5.5179,-5.5179,-5.5179,-5.5179,-5.5179,-5.5179,-5.5179,-5.9099,-5.9099,-5.9099,-5.9099,-5.9099,-5.9099,-5.9099,-5.9099,-5.9099,-5.9099,-5.9099,-5.9099,-5.9099,-5.9099,-5.9099,-5.9099,-5.9099,-5.9099,-5.9099,-5.9099,-5.9099,-5.9099,-5.9099,-5.9099,-5.9099,-5.9099,-5.9099,-5.9099,-5.9099,-5.9099,-5.9099,-5.889,-5.8919,-5.9069,-5.865,-5.859,-5.877,-5.856,-5.8201,-5.7782,-5.7782,-5.7393,-5.6795,-5.6795,-5.6406,-5.5867,-5.5867,-5.5568,-5.5179,-5.5179,-5.5179,-5.5179,-5.5179,-5.5179,-5.5179,-5.5179,-5.5179,-5.5179,-5.5179,-5.5179,-5.5179,-5.5179,-5.5179,-5.5179,-5.5179,-5.5179,-5.5179,-5.5179,-5.5179,-5.5179,-5.5179,-5.5179,-5.5179,-5.5179,-5.5179,-5.5179,-5.5179,-5.5179,-5.5179,-5.5179,-5.5179,-5.5179,-5.5179,-5.528,-5.5381,-5.5581,-5.5531,-5.5481,-5.5581,-5.5531,-5.5381,-5.5179,-5.5179,-5.5179,-5.5179,-5.5179,-5.5179,-5.5179,-5.5179,-5.5179,-5.5179,-5.5179,-5.5179,-5.5179,-5.5179,-5.5179,-5.5179,-5.5179,-5.5179,-5.5179,-5.5179,-5.5179,-5.5179,-5.5179,-5.5179,-5.5179,-5.9099,-5.9099,-5.9099,-5.9099,-5.9099,-5.9099,-5.9099,-5.9099,-5.9099,-5.9099,-5.9099,-5.9099,-5.9099,-5.9099,-5.9099,-5.9099,-5.9099,-5.9099,-5.9099,-5.9099,-5.9099,-5.9099,-5.9099,-5.9099,-5.9099,-5.9099,-5.9099,-5.9099,-5.9099,-5.9099,-5.9099,-5.9099,-5.9099,-5.9099,-5.9099,-5.9099,-5.9099,-5.9099,-5.886,-5.8501,-5.8501,-5.8082,-5.7483,-5.7483,-5.7094,-5.6526,-5.6526,-5.6107,-5.5568,-5.5568,-5.5388,-5.5179,-5.5179,-5.528,-5.533,-5.5229,-5.5179,-5.5179,-5.5179,-5.5179,-5.5179,-5.5179,-5.5179,-5.5179,-5.5179,-5.5179,-5.5179,-5.5179,-5.5179,-5.5179,-5.5179,-5.5179,-5.5179,-5.5179,-5.5179,-5.5179,-5.5179,-5.5179,-5.5179,-5.5179,-5.5179,-5.5179,-5.5179,-5.5179,-5.528,-5.5431,-5.528,-5.528,-5.5431,-5.5431,-5.5381,-5.5179,-5.5179,-5.5179,-5.5179,-5.5179,-5.5179,-5.5179,-5.5179,-5.5179,-5.5179,-5.5179,-5.5179,-5.5179,-5.5179,-5.5179,-5.5179,-5.5179,-5.5179,-5.5179,-5.5179,-5.5179,-5.5179,-5.5179,-5.5179,-5.5179,-5.9099,-5.9099,-5.9099,-5.9099,-5.9099,-5.9099,-5.9099,-5.9099,-5.9099,-5.9099,-5.9099,-5.9099,-5.9099,-5.9099,-5.9099,-5.9099,-5.9099,-5.9099,-5.9099,-5.9099,-5.9099,-5.9099,-5.9099,-5.9099,-5.9099,-5.9099,-5.9099,-5.9099,-5.9099,-5.9099,-5.9099,-5.9099,-5.9099,-5.9099,-5.9099,-5.9099,-5.9099,-5.9099,-5.9099,-5.9099,-5.9099,-5.874,-5.8201,-5.8201,-5.7752,-5.7154,-5.7154,-5.6765,-5.6278,-5.6248,-5.5777,-5.5239,-5.5209,-5.5381,-5.5531,-5.528,-5.5229,-5.5229,-5.5229,-5.5229,-5.5229,-5.5229,-5.5179,-5.5179,-5.5179,-5.5179,-5.5179,-5.5179,-5.5179,-5.5179,-5.5179,-5.5179,-5.5179,-5.5179,-5.5179,-5.5179,-5.5179,-5.5179,-5.5179,-5.5179,-5.5179,-5.5179,-5.5179,-5.5179,-5.5179,-5.5179,-5.5179,-5.5179,-5.5179,-5.5179,-5.5179,-5.5179,-5.5179,-5.5179,-5.5179,-5.5179,-5.5179,-5.5179,-5.5179,-5.5179,-5.5179,-5.5179,-5.5179,-5.5179,-5.5179,-5.5179,-5.5179,-5.5179,-5.5179,-5.5179,-5.5179,-5.5179,-5.5179,-5.5179,-5.5179,-5.5179,-5.9099,-5.9099,-5.9099,-5.9099,-5.9099,-5.9099,-5.9099,-5.9099,-5.9099,-5.9099,-5.9099,-5.9099,-5.9099,-5.9099,-5.9099,-5.9099,-5.9099,-5.9099,-5.9099,-5.9099,-5.9099,-5.9099,-5.9099,-5.9099,-5.9099,-5.9099,-5.9099,-5.9099,-5.9099,-5.9099,-5.9099,-5.9099,-5.9099,-5.9099,-5.9099,-5.9099,-5.9099,-5.9099,-5.9099,-5.9099,-5.9099,-5.9009,-5.886,-5.886,-5.8471,-5.7872,-5.7872,-5.7453,-5.6795,-5.6346,-5.6077,-5.5837,-5.5359,-5.5229,-5.533,-5.5481,-5.5631,-5.583,-5.583,-5.583,-5.578,-5.5581,-5.533,-5.5179,-5.5179,-5.5179,-5.5179,-5.5179,-5.5179,-5.5179,-5.5179,-5.5179,-5.5179,-5.5179,-5.5179,-5.5179,-5.5179,-5.5179,-5.5179,-5.5179,-5.5179,-5.5179,-5.5179,-5.5179,-5.5179,-5.5179,-5.5179,-5.5179,-5.5179,-5.5179,-5.5179,-5.5179,-5.5179,-5.5179,-5.5179,-5.5179,-5.5179,-5.5179,-5.5179,-5.5179,-5.5179,-5.5179,-5.5179,-5.5179,-5.5179,-5.5179,-5.5179,-5.5179,-5.5179,-5.5179,-5.5179,-5.5179,-5.5179,-5.5179,-5.5179,-5.5179,-5.9099,-5.9099,-5.9099,-5.9099,-5.9099,-5.9099,-5.9099,-5.9099,-5.9099,-5.9099,-5.9099,-5.9099,-5.9099,-5.9099,-5.9099,-5.9099,-5.9099,-5.9099,-5.9099,-5.9099,-5.9099,-5.9099,-5.9099,-5.9099,-5.9099,-5.9099,-5.9099,-5.9099,-5.9099,-5.9099,-5.9099,-5.9099,-5.9099,-5.9099,-5.9099,-5.9099,-5.9099,-5.9099,-5.9099,-5.9099,-5.9099,-5.9099,-5.9099,-5.9099,-5.889,-5.859,-5.859,-5.8141,-5.7513,-5.7184,-5.6855,-5.6466,-5.5837,-5.573,-5.5822,-5.5621,-5.5681,-5.583,-5.5979,-5.5979,-5.5979,-5.583,-5.5581,-5.5381,-5.5381,-5.528,-5.5179,-5.5179,-5.5179,-5.5179,-5.5179,-5.5179,-5.5179,-5.5179,-5.5179,-5.5179,-5.5179,-5.5179,-5.5179,-5.5179,-5.5179,-5.5179,-5.5179,-5.5179,-5.5179,-5.5179,-5.5179,-5.5179,-5.5179,-5.5179,-5.5179,-5.5179,-5.5179,-5.5179,-5.5179,-5.5179,-5.5179,-5.5179,-5.5179,-5.5179,-5.5179,-5.5179,-5.5179,-5.5179,-5.5179,-5.5179,-5.5179,-5.5179,-5.5179,-5.5179,-5.5179,-5.5179,-5.5179,-5.5179,-5.5388,-5.5658,-5.9099,-5.9099,-5.9099,-5.9099,-5.9099,-5.9099,-5.9099,-5.9099,-5.9099,-5.9099,-5.9099,-5.9099,-5.9099,-5.9099,-5.9099,-5.9099,-5.9099,-5.9099,-5.9099,-5.9099,-5.9099,-5.9099,-5.9099,-5.9099,-5.9099,-5.9099,-5.9099,-5.9099,-5.9099,-5.9099,-5.9099,-5.9099,-5.9099,-5.9099,-5.9099,-5.9099,-5.9099,-5.9099,-5.9099,-5.9099,-5.9099,-5.9099,-5.9099,-5.9099,-5.9099,-5.9099,-5.9099,-5.874,-5.8261,-5.8141,-5.7723,-5.7124,-5.6496,-5.6522,-5.6555,-5.6033,-5.5933,-5.6003,-5.6039,-5.6077,-5.6028,-5.6028,-5.578,-5.5581,-5.5531,-5.533,-5.5179,-5.5179,-5.5179,-5.5179,-5.5179,-5.5179,-5.5179,-5.5179,-5.5179,-5.5179,-5.5179,-5.5179,-5.5179,-5.5179,-5.5179,-5.5179,-5.5179,-5.5179,-5.5179,-5.5179,-5.5179,-5.5179,-5.5179,-5.5179,-5.5179,-5.5179,-5.5179,-5.5179,-5.5179,-5.5179,-5.5179,-5.5179,-5.5179,-5.5179,-5.5179,-5.5179,-5.5179,-5.5179,-5.5179,-5.5179,-5.5179,-5.5179,-5.5179,-5.5179,-5.5179,-5.5239,-5.5329,-5.5329,-5.5748,-5.6368,-5.9099,-5.9099,-5.9099,-5.9099,-5.9099,-5.9099,-5.9099,-5.9099,-5.9099,-5.9099,-5.9099,-5.9099,-5.9099,-5.9099,-5.9099,-5.9099,-5.9099,-5.9099,-5.9099,-5.9099,-5.9099,-5.9099,-5.9099,-5.9099,-5.9099,-5.9099,-5.9099,-5.9099,-5.9099,-5.9099,-5.9099,-5.9099,-5.9099,-5.9099,-5.9099,-5.9099,-5.9099,-5.9099,-5.9099,-5.9099,-5.9099,-5.9099,-5.9099,-5.9099,-5.9099,-5.9099,-5.9099,-5.9039,-5.886,-5.8321,-5.8052,-5.7842,-5.7154,-5.6997,-5.7049,-5.7166,-5.7393,-5.7456,-5.6579,-5.6323,-5.6274,-5.6077,-5.578,-5.5531,-5.528,-5.5229,-5.5179,-5.5179,-5.5179,-5.5179,-5.5179,-5.5179,-5.5179,-5.5179,-5.5179,-5.5179,-5.5179,-5.5179,-5.5179,-5.5179,-5.5179,-5.5179,-5.5179,-5.5179,-5.5179,-5.5179,-5.5179,-5.5179,-5.5179,-5.5179,-5.5179,-5.5179,-5.5179,-5.5179,-5.5179,-5.5179,-5.5179,-5.5179,-5.5179,-5.5179,-5.5179,-5.5179,-5.5179,-5.5179,-5.5179,-5.5179,-5.5179,-5.5179,-5.5179,-5.5179,-5.5179,-5.5538,-5.6017,-5.6017,-5.6406,-5.6944,-5.9697,-5.9638,-5.9518,-5.9159,-5.9099,-5.9099,-5.9099,-5.9099,-5.9099,-5.9099,-5.9099,-5.9099,-5.9099,-5.9099,-5.9099,-5.9099,-5.9099,-5.9099,-5.9099,-5.9099,-5.9099,-5.9099,-5.9099,-5.9099,-5.9099,-5.9099,-5.9099,-5.9099,-5.9099,-5.9099,-5.9099,-5.9099,-5.9099,-5.9099,-5.9099,-5.9099,-5.9099,-5.9099,-5.9099,-5.9099,-5.9099,-5.9099,-5.9099,-5.9099,-5.9099,-5.9099,-5.9099,-5.9099,-5.9069,-5.874,-5.865,-5.853,-5.7872,-5.7633,-5.7573,-5.7371,-5.7747,-5.8136,-5.7775,-5.7445,-5.7119,-5.6823,-5.6302,-5.5731,-5.5481,-5.528,-5.5179,-5.5179,-5.5179,-5.5179,-5.5179,-5.5179,-5.5179,-5.5179,-5.5179,-5.5179,-5.5179,-5.5179,-5.5179,-5.5179,-5.5179,-5.5179,-5.5179,-5.5179,-5.5179,-5.5179,-5.5179,-5.5179,-5.5179,-5.5179,-5.5179,-5.5179,-5.5179,-5.5179,-5.5179,-5.5179,-5.5179,-5.5179,-5.5179,-5.5179,-5.5179,-5.5179,-5.5179,-5.5179,-5.5179,-5.5179,-5.5179,-5.5179,-5.5388,-5.5718,-5.5718,-5.6107,-5.6675,-5.6675,-5.7304,-5.8171,-6.0416,-6.0326,-6.0116,-5.9458,-5.9338,-5.9279,-5.9129,-5.9099,-5.9099,-5.9099,-5.9099,-5.9099,-5.9099,-5.9099,-5.9099,-5.9099,-5.9099,-5.9099,-5.9099,-5.9099,-5.9099,-5.9099,-5.9099,-5.9099,-5.9099,-5.9099,-5.9099,-5.9099,-5.9099,-5.9099,-5.9099,-5.9099,-5.9099,-5.9099,-5.9099,-5.9099,-5.9099,-5.9099,-5.9099,-5.9099,-5.9099,-5.9099,-5.9099,-5.9099,-5.9099,-5.9099,-5.9099,-5.9099,-5.9099,-5.9099,-5.9099,-5.9009,-5.8501,-5.8351,-5.8231,-5.7723,-5.8148,-5.8787,-5.8804,-5.8393,-5.7943,-5.7595,-5.7029,-5.6354,-5.5852,-5.557,-5.5388,-5.5209,-5.5179,-5.5179,-5.5179,-5.5179,-5.5179,-5.5179,-5.5179,-5.5179,-5.5179,-5.5179,-5.5179,-5.5179,-5.5179,-5.5179,-5.5179,-5.5179,-5.5179,-5.5179,-5.5179,-5.5179,-5.5179,-5.5179,-5.5269,-5.5418,-5.5269,-5.5179,-5.5179,-5.5179,-5.5179,-5.5179,-5.5179,-5.5269,-5.5418,-5.5418,-5.5508,-5.5628,-5.5628,-5.5718,-5.5867,-5.5867,-5.6256,-5.6855,-5.6855,-5.7244,-5.7782,-5.7782,-5.853,-5.9548,-6.1044,-6.1044,-6.0805,-6.0146,-6.0027,-5.9817,-5.9189,-5.9099,-5.9099,-5.9099,-5.9099,-5.9099,-5.9099,-5.9099,-5.9099,-5.9099,-5.9099,-5.9099,-5.9099,-5.9099,-5.9099,-5.9099,-5.9099,-5.9099,-5.9099,-5.9099,-5.9099,-5.9099,-5.9099,-5.9099,-5.9099,-5.9099,-5.9099,-5.9099,-5.9099,-5.9099,-5.9099,-5.9099,-5.9099,-5.9099,-5.9099,-5.9099,-5.9099,-5.9099,-5.9099,-5.9099,-5.9099,-5.9099,-5.9099,-5.9099,-5.9099,-5.9099,-5.9039,-5.9039,-5.9009,-5.8979,-5.9409,-5.9749,-5.898,-5.8731,-5.86,-5.8095,-5.7912,-5.7546,-5.6432,-5.6158,-5.5927,-5.5329,-5.5179,-5.5179,-5.5179,-5.5179,-5.5179,-5.5179,-5.5179,-5.5179,-5.5179,-5.5179,-5.5179,-5.5179,-5.5179,-5.5179,-5.5179,-5.5179,-5.5179,-5.5179,-5.5179,-5.5179,-5.5179,-5.5179,-5.5478,-5.6077,-5.5508,-5.5179,-5.5179,-5.5179,-5.5179,-5.5179,-5.5179,-5.5508,-5.6158,-5.6158,-5.6406,-5.6944,-5.6944,-5.7304,-5.7902,-5.7902,-5.8291,-5.889,-5.889,-5.9279,-5.9877,-5.9877,-6.0326,-6.0864,-6.1792,-6.1732,-6.1523,-6.0835,-6.0715,-6.0505,-5.9817,-5.9727,-5.9578,-5.9159,-5.9099,-5.9099,-5.9099,-5.9099,-5.9099,-5.9099,-5.9099,-5.9099,-5.9099,-5.9099,-5.9099,-5.9099,-5.9099,-5.9099,-5.9099,-5.9099,-5.9099,-5.9099,-5.9099,-5.9099,-5.9099,-5.9099,-5.9099,-5.9099,-5.9099,-5.9099,-5.9099,-5.9099,-5.9099,-5.9099,-5.9099,-5.9099,-5.9099,-5.9099,-5.9099,-5.9099,-5.9099,-5.9099,-5.9099,-5.9099,-5.9099,-5.9099,-5.9099,-5.9099,-5.9153,-5.9315,-5.9667,-5.9948,-5.964,-5.9492,-5.9358,-5.895,-5.844,-5.784,-5.7187,-5.6921,-5.6555,-5.5927,-5.5807,-5.5658,-5.5269,-5.5179,-5.5179,-5.5179,-5.5179,-5.5179,-5.5179,-5.5179,-5.5329,-5.5748,-5.5807,-5.5957,-5.6346,-5.6376,-5.6376,-5.6376,-5.6376,-5.6376,-5.6376,-5.6376,-5.6496,-5.6735,-5.6496,-5.6376,-5.6376,-5.6376,-5.6376,-5.6376,-5.6376,-5.6496,-5.6765,-5.7184,-5.7513,-5.7752,-5.8171,-5.8471,-5.874,-5.874,-5.9129,-5.9727,-5.9727,-6.0116,-6.0685,-6.0236,-6.0505,-6.1014,-6.248,-6.2391,-6.2181,-6.1523,-6.1433,-6.1194,-6.0505,-6.0416,-6.0176,-5.9488,-5.9398,-5.9338,-5.9129,-5.9099,-5.9099,-5.9099,-5.9099,-5.9099,-5.9099,-5.9099,-5.9099,-5.9099,-5.9099,-5.9099,-5.9099,-5.9099,-5.9099,-5.9099,-5.9099,-5.9099,-5.9099,-5.9099,-5.9099,-5.9099,-5.9099,-5.9099,-5.9099,-5.9099,-5.9099,-5.9099,-5.9099,-5.9099,-5.9099,-5.9099,-5.9099,-5.9099,-5.9099,-5.9099,-5.9099,-5.9099,-5.9099,-5.9099,-5.9099,-5.9099,-5.9153,-5.9315,-5.9667,-6.0016,-6.0016,-6.0071,-6.0014,-5.9704,-5.9131,-5.8632,-5.814,-5.782,-5.7401,-5.677,-5.6569,-5.6316,-5.5867,-5.5777,-5.5777,-5.5777,-5.5777,-5.5777,-5.5777,-5.5777,-5.5957,-5.6406,-5.6466,-5.6645,-5.7064,-5.7094,-5.7094,-5.7094,-5.7094,-5.7094,-5.7094,-5.7304,-5.7423,-5.7423,-5.7633,-5.7723,-5.7723,-5.7304,-5.7214,-5.7423,-5.7423,-5.7633,-5.8052,-5.853,-5.886,-5.9099,-5.9548,-5.9847,-6.0057,-6.0057,-6.0296,-6.0715,-6.0715,-6.0864,-6.1044,-6.0595,-6.0715,-6.1014,-6.3079,-6.3079,-6.2869,-6.2211,-6.2121,-6.1882,-6.1224,-6.1134,-6.0864,-6.0176,-6.0086,-5.9847,-5.9189,-5.9129,-5.9129,-5.9129,-5.9099,-5.9099,-5.9099,-5.9099,-5.9099,-5.9099,-5.9099,-5.9099,-5.9099,-5.9099,-5.9099,-5.9099,-5.9099,-5.9099,-5.9099,-5.9099,-5.9099,-5.9099,-5.9099,-5.9099,-5.9099,-5.9099,-5.9099,-5.9099,-5.9099,-5.9099,-5.9099,-5.9099,-5.9099,-5.9099,-5.9099,-5.9099,-5.9099,-5.9099,-5.9099,-5.9099,-5.9099,-5.9099,-5.9099,-5.9099,-5.9506,-6.0016,-6.0016,-6.0407,-6.0638,-6.0144,-6.0197,-6.0141,-5.921,-5.8775,-5.8414,-5.7773,-5.7333,-5.7094,-5.7094,-5.7094,-5.7094,-5.7094,-5.7094,-5.7094,-5.7094,-5.7094,-5.7094,-5.7094,-5.7094,-5.7094,-5.7124,-5.7124,-5.7124,-5.7124,-5.7124,-5.7124,-5.7124,-5.7752,-5.8141,-5.8141,-5.877,-5.9099,-5.9099,-5.7782,-5.7453,-5.8141,-5.8141,-5.88,-6.0086,-6.0086,-6.0446,-6.1104,-6.1104,-6.1493,-6.2091,-6.2091,-6.2091,-6.2091,-6.2091,-6.1702,-6.1104,-6.1104,-6.1104,-6.1014,-6.3079,-6.3079,-6.3019,-6.281,-6.278,-6.257,-6.1912,-6.1792,-6.1553,-6.0894,-6.0805,-6.0745,-6.0535,-6.0086,-5.9787,-5.9787,-5.9368,-5.9099,-5.9099,-5.9099,-5.9099,-5.9099,-5.9099,-5.9099,-5.9099,-5.9099,-5.9099,-5.9099,-5.9099,-5.9099,-5.9099,-5.9099,-5.9099,-5.9099,-5.9099,-5.9099,-5.9099,-5.9099,-5.9099,-5.9099,-5.9099,-5.9099,-5.9099,-5.9099,-5.9099,-5.9099,-5.9099,-5.9099,-5.9099,-5.9099,-5.9099,-5.9099,-5.9099,-5.9099,-5.9099,-5.9099,-5.9369,-5.9583,-5.9452,-5.9902,-6.0534,-6.0534,-6.0481,-6.0316,-6.008,-5.9788,-5.9372,-5.8467,-5.8211,-5.7956,-5.7236,-5.7094,-5.7094,-5.7094,-5.7094,-5.7094,-5.7094,-5.7094,-5.7274,-5.7752,-5.7812,-5.7992,-5.8471,-5.8501,-5.8501,-5.8501,-5.8501,-5.8501,-5.8501,-5.871,-5.88,-5.88,-5.9009,-5.9099,-5.9099,-5.871,-5.859,-5.88,-5.88,-5.9009,-5.9398,-5.9877,-6.0206,-6.0416,-6.0894,-6.1224,-6.1403,-6.1403,-6.1403,-6.1403,-6.1403,-6.1283,-6.1044,-6.0565,-6.0386,-6.0296,-6.3079,-6.3079,-6.3079,-6.3079,-6.3079,-6.2929,-6.254,-6.248,-6.2241,-6.1583,-6.1493,-6.1403,-6.1134,-6.0745,-6.0505,-6.0505,-5.9877,-5.9488,-5.9488,-5.9249,-5.9099,-5.9099,-5.9099,-5.9099,-5.9099,-5.9099,-5.9099,-5.9099,-5.9099,-5.9099,-5.9099,-5.9099,-5.9099,-5.9099,-5.9099,-5.9099,-5.9099,-5.9099,-5.9099,-5.9099,-5.9099,-5.9099,-5.9099,-5.9099,-5.9099,-5.9099,-5.9099,-5.9099,-5.9099,-5.9099,-5.9099,-5.9099,-5.9099,-5.9099,-5.9099,-5.9099,-5.9315,-5.9476,-5.9315,-5.9743,-6.0302,-6.046,-6.0534,-6.0534,-6.0534,-6.0324,-5.997,-5.9417,-5.9251,-5.8942,-5.8174,-5.8031,-5.7978,-5.7902,-5.7902,-5.7902,-5.7902,-5.7902,-5.8052,-5.8471,-5.853,-5.865,-5.9069,-5.9099,-5.9099,-5.9099,-5.9099,-5.9099,-5.9099,-5.9099,-5.9099,-5.9099,-5.9099,-5.9099,-5.9099,-5.9099,-5.9249,-5.9488,-5.9488,-5.9638,-5.9907,-6.0326,-6.0505,-6.0505,-6.0924,-6.1104,-6.1104,-6.1104,-6.0954,-6.0715,-6.0715,-6.0535,-6.0266,-5.9847,-5.9697,-5.9638,-6.3079,-6.3079,-6.3079,-6.3079,-6.3079,-6.3079,-6.3079,-6.3079,-6.2869,-6.2271,-6.2181,-6.1972,-6.1373,-6.1253,-6.1194,-6.1194,-6.0565,-6.0176,-6.0176,-5.9608,-5.9249,-5.9189,-5.9189,-5.9159,-5.9099,-5.9099,-5.9099,-5.9099,-5.9099,-5.9099,-5.9099,-5.9099,-5.9099,-5.9099,-5.9099,-5.9099,-5.9099,-5.9099,-5.9099,-5.9099,-5.9099,-5.9099,-5.9099,-5.9099,-5.9099,-5.9099,-5.9099,-5.9099,-5.9099,-5.9099,-5.9099,-5.9099,-5.9099,-5.9099,-5.9099,-5.9099,-5.9261,-5.9476,-5.9476,-5.972,-5.9963,-5.9963,-6.0355,-6.0742,-6.0742,-6.0586,-6.0429,-6.0429,-6.0197,-5.9933,-5.9583,-5.9529,-5.9422,-5.9153,-5.9099,-5.9099,-5.9099,-5.9099,-5.9099,-5.9099,-5.9099,-5.9099,-5.9099,-5.9099,-5.9099,-5.9099,-5.9099,-5.9099,-5.9099,-5.9099,-5.9099,-5.9099,-5.9099,-5.9099,-5.9099,-5.9099,-5.9398,-5.9997,-5.9997,-6.0326,-6.0924,-6.0924,-6.0924,-6.0924,-6.0924,-6.0924,-6.0924,-6.0924,-6.0565,-5.9997,-5.9997,-5.9638,-5.9099,-5.9099,-5.9099,-5.9099,-6.3079,-6.3079,-6.3079,-6.3079,-6.3079,-6.3079,-6.3079,-6.3079,-6.3019,-6.2869,-6.2869,-6.281,-6.266,-6.2181,-6.1882,-6.1882,-6.1283,-6.0894,-6.0894,-6.0775,-6.0446,-5.9907,-5.9877,-5.9638,-5.9129,-5.9099,-5.9099,-5.9099,-5.9099,-5.9099,-5.9099,-5.9099,-5.9099,-5.9099,-5.9099,-5.9099,-5.9099,-5.9099,-5.9099,-5.9099,-5.9099,-5.9099,-5.9099,-5.9099,-5.9099,-5.9099,-5.9099,-5.9099,-5.9099,-5.9099,-5.9099,-5.9099,-5.9099,-5.9099,-5.9099,-5.9099,-5.9153,-5.9207,-5.9207,-5.9369,-5.9583,-5.9583,-5.988,-6.025,-6.0429,-6.0586,-6.0638,-6.0429,-6.0324,-6.025,-5.9933,-5.969,-5.9476,-5.9422,-5.9261,-5.9099,-5.9099,-5.9099,-5.9099,-5.9099,-5.9099,-5.9099,-5.9099,-5.9099,-5.9099,-5.9099,-5.9099,-5.9099,-5.9099,-5.9099,-5.9099,-5.9099,-5.9099,-5.9099,-5.9099,-5.9099,-5.9189,-5.9308,-5.9308,-5.9398,-5.9548,-5.9548,-5.9548,-5.9548,-5.9548,-5.9548,-5.9548,-5.9548,-5.9458,-5.9308,-5.9308,-5.9219,-5.9099,-5.9099,-5.9099,-5.9099,-6.3079,-6.3079,-6.3079,-6.3079,-6.3079,-6.3079,-6.3079,-6.3079,-6.3079,-6.3079,-6.3079,-6.3079,-6.3079,-6.278,-6.257,-6.257,-6.1972,-6.1583,-6.1583,-6.1283,-6.0954,-6.0595,-6.0565,-6.0416,-6.0086,-6.0057,-5.9757,-5.9099,-5.9099,-5.9249,-5.9578,-5.9578,-5.9757,-6.0057,-6.0057,-6.0057,-6.0057,-6.0057,-6.0057,-6.0057,-6.0057,-6.0057,-6.0057,-6.0057,-6.0057,-6.0027,-5.9697,-5.9368,-5.9099,-5.9099,-5.9099,-5.9099,-5.9099,-5.9099,-5.9099,-5.9099,-5.9099,-5.9099,-5.9099,-5.9207,-5.9315,-5.9315,-5.9529,-5.988,-6.0272,-6.0534,-6.0586,-6.0586,-6.0586,-6.0481,-6.025,-6.0061,-5.9849,-5.9529,-5.9369,-5.9261,-5.9099,-5.9099,-5.9099,-5.9099,-5.9099,-5.9099,-5.9099,-5.9099,-5.9099,-5.9099,-5.9099,-5.9099,-5.9099,-5.9099,-5.9099,-5.9099,-5.9099,-5.9099,-5.9099,-5.9099,-5.9099,-5.9099,-5.9099,-5.9099,-5.9099,-5.9099,-5.9099,-5.9099,-5.9099,-5.9099,-5.9099,-5.9099,-5.9099,-5.9099,-5.9099,-5.9099,-5.9099,-5.9099,-5.9099,-5.9099,-6.3079,-6.3079,-6.3079,-6.3079,-6.3079,-6.3079,-6.3079,-6.3079,-6.3079,-6.3079,-6.3079,-6.3079,-6.3079,-6.3079,-6.3079,-6.3079,-6.257,-6.2271,-6.2271,-6.1762,-6.1403,-6.1283,-6.1283,-6.1224,-6.1104,-6.1104,-6.0565,-5.9458,-5.9458,-5.9727,-6.0266,-6.0266,-6.0565,-6.1104,-6.1104,-6.1104,-6.1104,-6.1104,-6.1104,-6.1104,-6.1104,-6.1104,-6.1104,-6.1104,-6.1104,-6.1044,-6.0475,-5.9907,-5.9458,-5.9458,-5.9368,-5.9279,-5.9279,-5.9189,-5.9099,-5.9099,-5.9099,-5.9099,-5.9099,-5.9099,-5.9099,-5.9099,-5.9261,-5.9583,-6.0114,-6.0272,-6.0377,-6.069,-6.0742,-6.069,-6.0481,-6.0429,-6.0219,-5.9743,-5.9583,-5.9422,-5.9207,-5.9153,-5.9099,-5.9099,-5.9099,-5.9099,-5.9099,-5.9099,-5.9099,-5.9099,-5.9099,-5.9099,-5.9099,-5.9099,-5.9099,-5.9099,-5.9099,-5.9099,-5.9099,-5.9099,-5.9099,-5.9099,-5.9099,-5.9099,-5.9099,-5.9099,-5.9099,-5.9099,-5.9099,-5.9099,-5.9099,-5.9099,-5.9099,-5.9099,-5.9099,-5.9099,-5.9099,-5.9099,-5.9099,-5.9099,-6.3079,-6.3079,-6.3079,-6.3079,-6.3079,-6.3079,-6.3079,-6.3079,-6.3079,-6.3079,-6.3079,-6.3079,-6.3079,-6.3079,-6.3079,-6.3079,-6.2989,-6.2929,-6.2929,-6.2869,-6.257,-6.2002,-6.1972,-6.1702,-6.1134,-6.1104,-6.1014,-6.0835,-6.0835,-6.0894,-6.0984,-6.0984,-6.1014,-6.1104,-6.1104,-6.1104,-6.1104,-6.1104,-6.1104,-6.1104,-6.1104,-6.1104,-6.1104,-6.1104,-6.1104,-6.1104,-6.1014,-6.0924,-6.0835,-6.0835,-6.0446,-5.9937,-5.9937,-5.9548,-5.9099,-5.9099,-5.9099,-5.9099,-5.9099,-5.9099,-5.9099,-5.9099,-5.9099,-5.9261,-5.9529,-5.988,-6.0144,-6.0377,-6.0429,-6.0534,-6.069,-6.0534,-6.0377,-6.0272,-5.9849,-5.9476,-5.9476,-5.9261,-5.9099,-5.9099,-5.9099,-5.9099,-5.9099,-5.9099,-5.9099,-5.9099,-5.9099,-5.9099,-5.9099,-5.9099,-5.9099,-5.9099,-5.9099,-5.9099,-5.9099,-5.9099,-5.9099,-5.9099,-5.9099,-5.9099,-5.9099,-5.9099,-5.9099,-5.9099,-5.9099,-5.9099,-5.9099,-5.9099,-5.9099,-5.9099,-5.9099,-5.9099,-5.9099,-5.9099,-5.9099,-5.9099,-6.3079,-6.3079,-6.3079,-6.3079,-6.3079,-6.3079,-6.3079,-6.3079,-6.3079,-6.3079,-6.3079,-6.3079,-6.3079,-6.3079,-6.3079,-6.3079,-6.3079,-6.3079,-6.3079,-6.3079,-6.2959,-6.266,-6.266,-6.251,-6.2211,-6.2211,-6.2211,-6.2211,-6.1463,-6.1313,-6.1672,-6.1672,-6.1852,-6.2211,-6.2211,-6.2211,-6.2211,-6.2211,-6.2211,-6.2211,-6.2211,-6.2211,-6.2211,-6.2211,-6.2211,-6.2151,-6.1792,-6.1433,-6.1104,-6.1104,-6.0894,-6.0655,-6.0655,-6.0475,-6.0146,-5.9757,-5.9668,-5.9578,-5.9189,-5.9099,-5.9099,-5.9099,-5.9099,-5.9153,-5.9261,-5.9369,-5.9667,-6.0272,-6.0377,-6.0481,-6.0742,-6.069,-6.0586,-6.0429,-6.0167,-5.9902,-5.9529,-5.9422,-5.9261,-5.9099,-5.9428,-5.9668,-5.9668,-5.9997,-6.0236,-6.0236,-6.0236,-6.0236,-6.0236,-6.0236,-6.0236,-6.0236,-6.0236,-6.0236,-6.0236,-6.0236,-6.0236,-6.0236,-6.0236,-5.9847,-5.9099,-5.9099,-5.9099,-5.9099,-5.9099,-5.9099,-5.9099,-5.9099,-5.9099,-5.9099,-5.9099,-5.9099,-5.9099,-5.9099,-5.9099,-5.9099]},{"header":{"parameterUnit":"m.s-1","parameterCategory":1,"la1":30.6,"la2":28.766,"lo1":-90.7593,"lo2":-88.6598,"dy":0.0162,"dx":0.0183,"nx":116,"ny":114,"refTime":"2024-04-03T18:00:00:Z","depth":0,"parameterNumber":3,"parameterNumberName":"V-component_of_WINDS"},"data":[0.0,0.0,0.0,0.0,0.0,0.0,0.0,0.0,0.0,0.0,0.0,0.0,0.0,0.0,0.0,0.0,0.0,0.0,0.0,0.0,0.0,0.0,0.0,0.0,0.0,0.0,0.0,0.0,0.0,0.0,0.0,0.0,0.0,0.0,0.0,0.0,0.0,0.0,0.0,0.0,0.0,0.0,0.0,0.0,0.0,0.0,0.0,0.0,0.0,0.0,0.0,0.0,0.0,0.0,0.0,0.0,0.0,0.0,0.0,0.0,0.0,0.0,0.0,0.0,0.0,0.0,0.0,0.0,0.0,0.0,0.0,0.0,0.0,0.0,0.0,0.0,0.0,0.0,0.0,0.0,0.0,0.0,0.0,0.0,0.0,0.0,0.0,0.0,0.0,0.0,0.0,0.0,0.0,0.0,0.0,0.0,0.0,0.0,0.0,0.0,0.0,0.0,0.0,0.0,0.0,0.0,0.0,0.0,0.0,0.0,0.0,0.0,0.0,0.0,0.0,0.0,0.0,0.0,0.0,0.0,0.0,0.0,0.0,0.0,0.0,0.0,0.0,0.0,0.0,0.0,0.0,0.0,0.0,0.0,0.0,0.0,0.0,0.0,0.0,0.0,0.0,0.0,0.0,0.0,0.0,0.0,0.0,0.0,0.0,0.0,0.0,0.0,0.0,0.0,0.0,0.0,0.0,0.0,0.0,0.0,0.0,0.0,0.0,0.0,0.0,0.0,0.0,0.0,0.0,0.0,0.0,0.0,0.0,0.0,0.0,0.0,0.0,0.0,0.0,0.0,0.0,0.0,0.0,0.0,0.0,0.0,0.0,0.0,0.0,0.0,0.0,0.0,0.0,0.0,0.0,0.0,0.0,0.0,0.0,0.0,0.0,0.0,0.0,0.0,0.0,0.0,0.0,0.0,0.0,0.0,0.0,0.0,0.0,0.0,0.0,0.0,0.0,0.0,0.0,0.0,0.0,0.0,0.0,0.0,0.0,0.0,0.0,0.0,0.0,0.0,0.0,0.0,0.0,0.0,0.0,0.0,0.0,0.0,0.0,0.0,0.0,0.0,0.0,0.0,0.0,0.0,0.0,0.0,0.0,0.0,0.0,0.0,0.0,0.0,0.0,0.0,0.0,0.0,0.0,0.0,0.0,0.0,0.0,0.0,0.0,0.0,0.0,0.0,0.0,0.0,0.0,0.0,0.0,0.0,0.0,0.0,0.0,0.0,0.0,0.0,0.0,0.0,0.0,0.0,0.0,0.0,0.0,0.0,0.0,0.0,0.0,0.0,0.0,0.0,0.0,0.0,0.0,0.0,0.0,0.0,0.0,0.0,0.0,0.0,0.0,0.0,0.0,0.0,0.0,0.0,0.0,0.0,0.0,0.0,0.0,0.0,0.0,0.0,0.0,0.0,0.0,0.0,0.0,0.0,0.0,0.0,0.0,0.0,0.0,0.0,0.0,0.0,0.0,0.0,0.0,0.0,0.0,0.0,0.0,0.0,0.0,0.0,0.0,0.0,0.0,0.0,0.0,0.0,0.0,0.0,0.0,0.0,0.0,0.0,0.0,0.0,0.0,0.0,0.0,0.0,0.0,0.0,0.0,0.0,0.0,0.0,0.0,0.0,0.0,0.0,0.0,0.0,0.0,0.0,0.0,0.0,0.0,0.0,0.0,0.0,0.0,0.0,0.0,0.0,0.0,0.0,0.0,0.0,0.0,0.0,0.0,0.0,0.0,0.0,0.0,0.0,0.0,0.0,0.0,0.0,0.0,0.0,0.0,0.0,0.0,0.0,0.0,0.0,0.0,0.0,0.0,0.0,0.0,0.0,0.0,0.0,0.0,0.0,0.0,0.0,0.0,0.0,0.0,0.0,0.0,0.0,0.0,0.0,0.0,0.0,0.0,0.0,0.0,0.0,0.0,0.0,0.0,0.0,0.0,0.0,0.0,0.0,0.0,0.0,0.0,0.0,0.0,0.0,0.0,0.0,0.0,0.0,0.0,0.0,0.0,0.0,0.0,0.0,0.0,0.0,0.0,0.0,0.0,0.0,0.0,0.0,0.0,0.0,0.0,0.0,0.0,0.0,0.0,0.0,0.0,0.0,0.0,0.0,0.0,0.0,0.0,0.0,0.0,0.0,0.0,0.0,0.0,0.0,0.0,0.0,0.0,0.0,0.0,0.0,0.0,0.0,0.0,0.0,0.0,0.0,0.0,0.0,0.0,0.0,0.0,0.0,0.0,0.0,0.0,0.0,0.0,0.0,0.0,0.0,0.0,0.0,0.0,0.0,0.0,0.0,0.0,0.0,0.0,0.0,0.0,0.0,0.0,0.0,0.0,0.0,0.0,0.0,0.0,0.0,0.0,0.0,0.0,0.0,0.0,0.0,0.0,0.0,0.0,0.0,0.0,0.0,0.0,0.0,0.0,0.0,0.0,0.0,0.0,0.0,0.0,0.0,0.0,0.0,0.0,0.0,0.0,0.0,0.0,0.0,0.0,0.0,0.0,0.0,0.0,0.0,0.0,0.0,0.0,0.0,0.0,0.0,0.0,0.0,0.0,0.0,0.0,0.0,0.0,0.0,0.0,0.0,0.0,0.0,0.0,0.0,0.0,0.0,0.0,0.0,0.0,0.0,0.0,0.0,0.0,0.0,0.0,0.0,0.0,0.0,0.0,0.0,0.0,0.0,0.0,0.0,0.0,0.0,0.0,0.0,0.0,0.0,0.0,0.0,0.0,0.0,0.0,0.0,0.0,0.0,0.0,0.0,0.0,0.0,0.0,0.0,0.0,0.0,0.0,0.0,0.0,0.0,0.0,0.0,0.0,0.0,0.0,0.0,0.0,0.0,0.0,0.0,0.0,0.0,0.0,0.0,0.0,0.0,0.0,0.0,0.0,0.0,0.0,0.0,0.0,0.0,0.0,0.0,0.0,0.0,0.0,0.0,0.0,0.0,0.0,0.0,0.0,0.0,0.0,0.0,0.0,0.0,0.0,0.0,0.0,0.0,0.0,0.0,0.0,0.0,0.0,0.0,0.0,0.0,0.0,0.0,0.0,0.0,0.0,0.0,0.0,0.0,0.0,0.0,0.0,0.0,0.0,0.0,0.0,0.0,0.0,0.0,0.0,0.0,0.0,0.0,0.0,0.0,0.0,0.0,0.0,0.0,0.0,0.0,0.0,0.0,0.0,0.0,0.0,0.0,0.0,0.0,0.0,0.0,0.0,0.0,0.0,0.0,0.0,0.0,0.0,0.0,0.0,0.0,0.0,0.0,0.0,0.0,0.0,0.0,0.0,0.0,0.0,0.0,0.0,0.0,0.0,0.0,0.0,0.0,0.0,0.0,0.0,0.0,0.0,0.0,0.0,0.0,0.0,0.0,0.0,0.0,0.0,0.0,0.0,0.0,0.0,0.0,0.0,0.0,0.0,0.0,0.0,0.0,0.0,0.0,0.0,0.0,0.0,0.0,0.0,0.0,0.0,0.0,0.0,0.0,0.0,0.0,0.0,0.0,0.0,0.0,0.0,0.0,0.0,0.0,0.0,0.0,0.0,0.0,0.0,0.0,0.0,0.0,0.0,0.0,0.0,0.0,0.0,0.0,0.0,0.0,0.0,0.0,0.0,0.0,0.0,0.0,0.0,0.0,0.0,0.0,0.0,0.0,0.0,0.0,0.0,0.0,0.0,0.0,0.0,0.0,0.0,0.0,0.0,0.0,0.0,0.0,0.0,0.0,0.0,0.0,0.0,0.0,0.0,0.0,0.0,0.0,0.0,0.0,0.0,0.0,0.0,0.0,0.0,0.0,0.0,0.0,0.0,0.0,0.0,0.0,0.0,0.0,0.0,0.0,0.0,0.0,0.0,0.0,0.0,0.0,0.0,0.0,0.0,0.0,0.0,0.0,0.0,0.0,0.0,0.0,0.0,0.0,0.0,0.0,0.0,0.0,0.0,0.0,0.0,0.0,0.0,0.0,0.0,0.0,0.0,0.0,0.0,0.0,0.0,0.0,0.0,0.0,0.0,0.0,0.0,0.0,0.0,0.0,0.0,0.0,0.0,0.0,0.0,0.0,0.0,0.0,0.0,0.0,0.0,0.0,0.0,0.0,0.0,0.0,0.0,0.0,0.0,0.0,0.0,0.0,0.0,0.0,0.0,0.0,0.0,0.0,0.0,0.0,0.0,0.0,0.0,0.0,0.0,0.0,0.0,0.0,0.0,0.0,0.0,0.0,0.0,0.0,0.0,0.0,0.0,0.0,0.0,0.0,0.0,0.0,0.0,0.0,0.0,0.0,0.0,0.0,0.0,0.0,0.0,0.0,0.0,0.0,0.0,0.0,0.0,0.0,0.0,0.0,0.0,0.0,0.0,0.0,0.0,0.0,0.0,0.0,0.0,0.0,0.0,0.0,0.0,0.0,0.0,0.0,0.0,0.0,0.0,0.0,0.0,0.0,0.0,0.0,0.0,0.0,0.0,0.0,0.0,0.0,0.0,0.0,0.0,0.0,0.0,0.0,0.0,0.0,0.0,0.0,0.0,0.0,0.0,0.0,0.0,0.0,0.0,0.0,0.0,0.0,0.0,0.0,0.0,0.0,0.0,0.0,0.0,0.0,0.0,0.0,0.0,0.0,0.0,0.0,0.0,0.0,0.0,0.0,0.0,0.0,0.0,0.0,0.0,0.0,0.0,0.0,0.0,0.0,0.0,0.0,0.0,0.0,0.0,0.0,0.0,0.0,0.0,0.0,0.0,0.0,0.0,0.0,0.0,0.0,0.0,0.0,0.0,0.0,0.0,0.0,0.0,0.0,0.0,0.0,0.0,0.0,0.0,0.0,0.0,0.0,0.0,0.0,0.0,0.0,0.0,0.0,0.0,0.0,0.0,0.0,0.0,0.0,0.0,0.0,0.0,0.0,0.0,0.0,0.0,0.0,0.0,0.0,0.0,0.0,0.0,0.0,0.0,0.0,0.0,0.0,0.0,0.0,0.0,0.0,0.0,0.0,0.0,0.0,0.0,0.0,0.0,0.0,0.0,0.0,0.0,0.0,0.0,0.0,0.0,0.0,0.0,0.0,0.0,0.0,0.0,0.0,0.0,0.0,0.0,0.0,0.0,0.0,0.0,0.0,0.0,0.0,0.0,0.0,0.0,0.0,0.0,0.0,0.0,0.0,0.0,0.0,0.0,0.0,0.0,0.0,0.0,0.0,0.0,0.0,0.0,0.0,0.0,0.0,0.0,0.0,0.0,0.0,0.0,0.0,0.0,0.0,0.0,0.0,0.0,0.0,0.0,0.0,0.0,0.0,0.0,0.0,0.0,0.0,0.0,0.0,0.0,0.0,0.0,0.0,0.0,0.0,0.0,0.0,0.0,0.0,0.0,0.0,0.0,0.0,0.0,0.0,0.0,0.0,0.0,0.0,0.0,0.0,0.0,0.0,0.0,0.0,0.0,0.0,0.0,0.0,0.0,0.0,0.0,0.0,0.0,0.0,0.0,0.0,0.0,0.0,0.0,0.0,0.0,0.0,0.0,0.0,0.0,0.0,0.0,0.0,0.0,0.0,0.0,0.0,0.0,0.0,0.0,0.0,0.0,0.0,0.0,0.0,0.0,0.0,0.0,0.0,0.0,0.0,0.0,0.0,0.0,0.0,0.0,0.0,0.0,0.0,0.0,0.0,0.0,0.0,0.0,0.0,0.0,0.0,0.0,0.0,0.0,0.0,0.0,0.0,0.0,0.0,0.0,0.0,0.0,0.0,0.0,0.0,0.0,0.0,0.0,0.0,0.0,0.0,0.0,0.0,0.0,0.0,0.0,0.0,0.0,0.0,0.0,0.0,0.0,0.0,0.0,0.0,0.0,0.0,0.0,0.0,0.0,0.0,0.0,0.0,0.0,0.0,0.0,0.0,0.0,0.0,0.0,0.0,0.0,0.0,0.0,0.0,0.0,0.0,0.0,0.0,0.0,0.0,0.0,0.0,0.0,0.0,0.0,0.0,0.0,0.0,0.0,0.0,0.0,0.0,0.0,0.0,0.0,0.0,0.0,0.0,0.0,0.0,0.0,0.0,0.0,0.0,0.0,0.0,0.0,0.0,0.0,0.0,0.0,0.0,4.9839,4.9434,0.0,0.0,0.0,0.0,0.0,0.0,0.0,0.0,0.0,0.0,0.0,0.0,0.0,0.0,0.0,0.0,0.0,0.0,0.0,0.0,0.0,0.0,0.0,4.6482,4.6482,4.6482,4.6482,4.6482,4.6482,4.6482,0.0,0.0,0.0,0.0,4.6482,4.6482,4.6482,4.6482,4.6482,4.6605,4.6712,4.6155,4.5248,4.4203,0.0,0.0,0.0,0.0,0.0,0.0,0.0,0.0,0.0,0.0,0.0,0.0,0.0,0.0,0.0,0.0,0.0,0.0,0.0,0.0,0.0,0.0,0.0,0.0,0.0,0.0,0.0,0.0,0.0,0.0,0.0,0.0,0.0,0.0,0.0,0.0,0.0,0.0,0.0,0.0,0.0,0.0,0.0,0.0,0.0,0.0,0.0,0.0,0.0,0.0,0.0,0.0,0.0,0.0,0.0,0.0,0.0,0.0,0.0,0.0,0.0,0.0,0.0,0.0,0.0,0.0,0.0,0.0,0.0,0.0,5.0511,5.0212,0.0,0.0,0.0,0.0,0.0,0.0,0.0,0.0,0.0,0.0,0.0,0.0,0.0,0.0,0.0,0.0,0.0,0.0,0.0,0.0,0.0,4.6482,4.6482,4.6482,4.6482,4.6482,4.6482,4.6482,4.6482,4.6482,4.6482,4.6482,4.6482,4.6482,4.6482,4.6482,4.6482,4.6482,4.6665,4.7208,4.8021,4.7488,4.6634,4.5518,4.4952,0.0,0.0,0.0,0.0,0.0,0.0,0.0,0.0,0.0,0.0,0.0,0.0,0.0,0.0,0.0,0.0,0.0,0.0,0.0,0.0,0.0,0.0,0.0,0.0,0.0,0.0,0.0,0.0,0.0,0.0,0.0,0.0,0.0,0.0,0.0,0.0,0.0,0.0,0.0,0.0,0.0,0.0,0.0,0.0,0.0,0.0,0.0,0.0,0.0,0.0,0.0,0.0,0.0,0.0,0.0,0.0,0.0,0.0,0.0,0.0,0.0,0.0,0.0,5.1229,5.1229,5.1229,5.1229,5.1229,5.1229,5.1229,5.1229,5.1229,5.1229,0.0,0.0,0.0,0.0,0.0,0.0,0.0,0.0,0.0,0.0,0.0,0.0,0.0,0.0,0.0,0.0,0.0,0.0,0.0,4.6482,4.6482,4.6482,4.6482,4.6482,4.6482,4.6482,4.6482,4.6482,4.6482,4.6482,4.6482,4.6482,4.6482,4.6482,4.6482,4.6482,4.7387,4.7869,4.8021,4.7937,4.8304,4.8853,4.5957,4.4334,4.3795,0.0,0.0,0.0,0.0,0.0,0.0,0.0,0.0,0.0,0.0,0.0,0.0,0.0,0.0,0.0,0.0,0.0,0.0,0.0,0.0,0.0,0.0,0.0,0.0,0.0,0.0,0.0,0.0,0.0,0.0,0.0,0.0,0.0,0.0,0.0,0.0,0.0,0.0,0.0,0.0,0.0,5.096,5.096,0.0,0.0,0.0,0.0,0.0,0.0,0.0,0.0,0.0,0.0,0.0,0.0,0.0,5.1169,5.1079,5.1169,5.1229,5.1229,5.1229,5.1229,5.1229,5.1229,5.1229,5.1229,5.1229,0.0,5.1229,5.1229,0.0,0.0,0.0,0.0,0.0,0.0,0.0,0.0,0.0,0.0,0.0,0.0,0.0,0.0,0.0,0.0,0.0,0.0,0.0,0.0,0.0,4.6482,4.6482,4.6482,4.6482,4.6482,4.6482,4.6482,4.6482,4.6482,4.6482,4.6482,4.6482,4.7053,4.7643,4.8223,4.9239,4.9747,4.9776,4.9659,4.9727,4.994,4.7879,4.674,4.6305,4.5806,0.0,0.0,0.0,0.0,0.0,0.0,0.0,0.0,0.0,0.0,0.0,0.0,0.0,0.0,0.0,0.0,0.0,0.0,0.0,0.0,0.0,0.0,0.0,0.0,0.0,0.0,0.0,0.0,0.0,0.0,0.0,0.0,0.0,0.0,0.0,0.0,0.0,0.0,0.0,5.1229,5.1229,5.1229,5.1229,5.1276,0.0,0.0,0.0,0.0,0.0,0.0,0.0,0.0,0.0,5.0805,5.0805,5.0805,5.0805,5.0805,5.0805,5.0805,5.0805,5.0805,5.0805,5.0805,5.0805,5.0805,5.0805,5.0805,5.0805,5.1088,5.1229,5.1229,0.0,0.0,0.0,0.0,5.1229,5.1229,0.0,0.0,0.0,0.0,0.0,0.0,0.0,0.0,0.0,0.0,0.0,0.0,4.6482,4.6482,4.6482,4.6482,4.6482,4.6482,4.6482,4.6482,4.6482,4.6482,4.6482,4.6612,4.6873,4.7869,4.8795,4.963,5.0639,5.1109,5.1109,5.0952,5.0857,5.078,4.9776,4.8735,4.7765,4.7041,4.6036,4.4864,0.0,0.0,0.0,0.0,0.0,0.0,0.0,0.0,0.0,0.0,0.0,0.0,0.0,0.0,0.0,0.0,0.0,0.0,0.0,0.0,0.0,0.0,0.0,0.0,0.0,0.0,0.0,0.0,0.0,0.0,0.0,0.0,0.0,0.0,0.0,0.0,0.0,5.1229,5.1229,5.1229,5.1229,5.1276,0.0,0.0,0.0,0.0,0.0,0.0,5.0501,5.0501,5.0501,5.0501,5.0501,5.0501,5.0501,5.0501,5.0548,5.0567,5.0567,5.0567,5.0567,5.0567,5.0548,5.0501,5.0501,5.0501,5.0548,5.0852,5.1041,5.1041,5.1041,5.1041,5.1041,5.1041,5.1041,5.1041,0.0,0.0,0.0,0.0,0.0,0.0,0.0,0.0,0.0,0.0,0.0,4.6482,4.6482,4.6482,4.6482,4.6482,4.6482,4.6482,4.6482,4.6482,4.6482,4.6482,4.6482,4.695,4.7869,4.8993,4.9582,4.963,5.0639,5.1109,5.1109,5.1063,5.1466,5.217,5.1122,4.9112,4.6476,4.6684,4.6005,4.4698,4.4698,0.0,0.0,0.0,0.0,0.0,0.0,0.0,0.0,0.0,0.0,0.0,0.0,0.0,0.0,0.0,0.0,0.0,0.0,0.0,0.0,0.0,0.0,0.0,0.0,0.0,0.0,0.0,0.0,0.0,0.0,0.0,0.0,0.0,0.0,0.0,0.0,0.0,0.0,5.1229,5.1229,0.0,0.0,0.0,0.0,5.0822,5.0614,5.0501,5.0501,5.0501,5.0501,5.0501,5.0501,5.0501,5.0501,5.0501,5.0614,5.0775,5.0775,5.0775,5.0775,5.0775,5.068,5.0501,5.0501,5.0501,5.0501,5.0548,5.0548,5.0548,5.0548,5.0548,5.0548,5.0548,5.0548,5.0548,0.0,0.0,0.0,0.0,0.0,4.6692,4.6535,4.6482,4.6482,4.6482,4.6482,4.6482,4.6482,4.6482,4.6482,4.6482,4.6482,4.6769,4.7438,4.7438,4.7768,4.8446,4.8496,4.8993,4.994,5.0401,5.0875,5.1588,5.1957,5.2124,5.2124,5.1803,5.1803,5.2063,5.1339,5.0095,4.8446,4.8745,4.8496,4.7791,4.7126,4.6816,0.0,0.0,0.0,0.0,0.0,0.0,0.0,0.0,0.0,0.0,0.0,0.0,0.0,0.0,0.0,0.0,0.0,0.0,0.0,0.0,0.0,0.0,0.0,0.0,0.0,0.0,0.0,0.0,0.0,0.0,0.0,0.0,0.0,0.0,0.0,0.0,0.0,5.1229,5.1058,0.0,5.1182,5.0852,5.0614,5.0614,5.0375,5.0183,4.999,4.999,4.999,4.999,4.999,4.999,4.999,4.999,5.0135,5.0346,5.0154,5.025,5.0614,5.0423,5.0423,5.0501,5.0357,5.0231,5.0231,5.0038,5.0183,5.0501,5.0501,5.0501,5.0501,5.0501,5.0501,5.0501,0.0,0.0,0.0,0.0,4.6796,4.6744,4.6535,4.6482,4.6482,4.6482,4.6482,4.6482,4.6482,4.6482,4.6482,4.6482,4.6482,4.6769,4.7438,4.7489,4.7971,4.8993,4.9727,5.0449,5.1063,5.1466,5.1957,5.2698,5.2698,5.2698,5.2698,5.2413,5.22,5.2063,5.1649,5.1011,5.0268,5.0335,4.9902,4.8993,4.8296,4.8016,4.7915,0.0,0.0,0.0,0.0,0.0,0.0,0.0,0.0,0.0,0.0,0.0,0.0,0.0,0.0,0.0,0.0,0.0,0.0,0.0,0.0,0.0,0.0,0.0,0.0,0.0,0.0,0.0,0.0,0.0,0.0,0.0,0.0,0.0,0.0,5.1105,5.1182,5.1058,5.0917,5.087,5.1058,5.0662,5.0357,5.0357,5.0135,4.9892,4.9717,4.9717,4.9717,4.9717,4.9717,4.9717,4.9717,4.9717,4.9815,5.0086,4.9941,5.0038,5.0357,5.0183,5.0135,5.0231,5.0038,5.0038,5.0086,4.9815,4.999,5.0357,5.0279,5.0231,5.0231,5.0231,5.0231,5.0231,0.0,0.0,0.0,4.6482,4.6482,4.6482,4.6482,4.6482,4.6482,4.6482,4.6482,4.6482,4.6482,4.6482,4.6482,4.6482,4.6482,4.6508,4.6508,4.656,4.7053,4.8122,5.0114,5.1156,5.1156,5.217,5.2698,5.2698,5.2698,5.2698,5.2698,5.2698,5.2563,5.2306,5.2063,5.1834,5.1572,5.1323,4.9999,4.8117,4.8117,4.8066,4.8066,0.0,0.0,0.0,0.0,0.0,0.0,0.0,0.0,0.0,0.0,0.0,0.0,0.0,0.0,0.0,0.0,0.0,0.0,0.0,0.0,0.0,0.0,0.0,0.0,0.0,0.0,0.0,0.0,0.0,0.0,0.0,0.0,0.0,5.087,5.1011,5.1058,5.0822,5.0745,5.0775,5.0775,5.0346,5.0086,5.0086,4.9844,4.9717,4.9717,4.9717,4.9717,4.9717,4.9717,4.9717,4.9717,4.9717,4.9815,5.0086,5.0086,5.0086,5.0086,5.0086,4.999,4.9717,4.9717,4.9892,5.0086,4.9815,4.9892,5.0086,4.9766,4.9717,4.9717,4.9717,4.9717,4.9717,0.0,0.0,4.6482,4.6482,4.6482,4.6482,4.6482,4.6482,4.6482,4.6482,4.6482,4.6482,4.6482,4.6482,4.6482,4.6482,4.6482,4.6821,4.7541,4.8324,4.9533,5.1356,5.1987,5.2261,5.2261,5.2563,5.2698,5.2698,5.2698,5.2698,5.2698,5.2518,5.2352,5.2306,5.2063,5.1956,5.188,5.1602,5.1152,5.0573,5.0412,5.0316,5.0268,0.0,0.0,0.0,0.0,0.0,0.0,0.0,0.0,0.0,0.0,0.0,0.0,0.0,0.0,0.0,0.0,0.0,0.0,0.0,0.0,0.0,0.0,0.0,0.0,0.0,0.0,0.0,0.0,0.0,0.0,0.0,5.1229,5.1105,5.087,5.087,5.0822,5.0614,5.0423,5.0298,5.0298,5.0009,4.9815,4.9815,4.9717,4.9717,4.9717,4.9717,4.9717,4.9717,4.9717,4.9717,4.9717,4.9717,4.9815,5.0086,4.9892,5.0038,5.0405,5.0405,5.0357,5.0279,5.0442,5.0442,5.0405,5.0309,5.0183,5.0086,4.9766,4.9717,4.9717,4.9717,4.9717,4.9717,0.0,4.6796,4.664,4.6535,4.6482,4.6482,4.6482,4.6482,4.6482,4.6482,4.6482,4.6482,4.6482,4.6482,4.6482,4.6482,4.6482,4.6769,4.7335,4.8745,5.0162,5.1326,5.2215,5.2698,5.2698,5.2698,5.2698,5.2698,5.2698,5.2698,5.2698,5.2563,5.2442,5.2473,5.2246,5.2109,5.2109,5.188,5.1787,5.1741,5.1509,5.1293,5.1105,5.0537,4.9979,4.9415,4.8195,4.7434,4.6971,4.6294,0.0,0.0,0.0,0.0,0.0,0.0,0.0,0.0,0.0,0.0,0.0,0.0,0.0,0.0,0.0,0.0,0.0,0.0,0.0,0.0,0.0,0.0,0.0,0.0,5.0994,5.0917,5.0537,5.068,5.068,5.0375,5.0183,5.0086,5.0086,4.9892,4.9717,4.9717,4.9717,4.9717,4.9717,4.9717,4.9717,4.9717,4.9717,4.9717,4.9717,4.9815,4.9941,5.0086,5.0038,5.0183,5.0501,5.0501,5.0501,5.0501,5.0614,5.0662,5.0614,5.0423,5.0309,5.0231,0.0,0.0,0.0,0.0,4.9717,4.9717,0.0,4.6925,4.6901,4.664,4.6587,4.6587,4.6535,4.6535,4.6535,4.6482,4.6482,4.6482,4.6482,4.6482,4.6482,4.6482,4.6482,4.6535,4.6665,4.8424,4.9504,4.9776,5.1542,5.2563,5.2698,5.2698,5.2698,5.2698,5.2698,5.2698,5.2698,5.2698,5.2698,5.2698,5.2442,5.2352,5.2306,5.2109,5.2017,5.2002,5.1741,5.1479,5.1229,5.1229,5.0632,4.9757,4.9611,4.8993,4.8167,4.8016,0.0,0.0,0.0,0.0,0.0,0.0,0.0,0.0,0.0,0.0,0.0,0.0,0.0,0.0,0.0,0.0,0.0,0.0,0.0,0.0,0.0,0.0,0.0,0.0,5.0662,5.0632,5.0183,5.0442,5.0537,5.0135,5.0038,5.0038,5.0038,4.9815,4.9717,4.9717,4.9717,4.9717,4.9717,4.9717,0.0,0.0,0.0,4.9717,4.9717,4.999,5.0086,5.0038,5.0309,5.0405,5.0405,5.0453,5.0453,5.0405,5.0453,5.0567,5.068,5.0327,5.0279,5.0453,5.0135,4.9941,4.9717,4.9717,4.9717,4.9717,0.0,4.7184,4.7184,4.7133,4.7133,4.7081,4.6848,4.6848,4.6744,4.6535,4.6482,4.6482,4.6482,4.6482,4.6482,4.6482,4.6482,4.6873,4.7643,4.8072,4.9042,5.0733,5.1203,5.1819,5.2653,5.2698,5.2698,5.2698,5.2698,5.2698,5.2698,5.2698,5.2698,5.2698,5.2653,5.2608,5.2608,5.2352,5.2215,5.2215,5.2017,5.1741,5.1479,5.1276,5.1058,5.0775,4.9931,4.9464,4.917,4.8296,4.8016,4.8117,4.8993,4.9317,0.0,0.0,0.0,0.0,0.0,0.0,0.0,0.0,0.0,0.0,0.0,0.0,0.0,0.0,0.0,0.0,0.0,0.0,0.0,5.0596,5.0662,5.0632,5.0183,5.0183,5.0135,4.9815,4.9766,4.9766,4.9766,4.9717,4.9717,4.9717,4.9717,4.9717,4.9717,4.9717,4.9717,4.9717,4.9941,4.9941,4.9717,4.999,4.999,4.9766,4.9815,0.0,4.9892,5.0086,5.0038,4.9892,5.0309,5.0405,5.0231,5.0405,5.0357,5.0135,4.9892,4.9717,4.9717,4.9717,4.9717,4.9717,0.0,4.7081,4.7029,4.6925,4.6977,4.7029,4.6925,4.6977,4.6977,4.6744,4.6692,4.664,4.6535,4.6482,4.6482,4.6482,4.6482,4.6717,4.7208,4.7745,4.8446,4.9504,5.0544,5.1373,5.1911,5.2427,5.2698,5.2698,5.2698,5.2698,5.2698,5.2698,5.2698,5.2698,5.2698,5.2698,5.2698,5.2563,5.2518,5.2473,5.2246,5.2079,5.1895,5.1526,5.1386,5.1293,5.065,5.0412,5.0316,4.9805,4.9582,4.9679,5.022,5.0412,5.0537,0.0,0.0,0.0,0.0,0.0,0.0,0.0,0.0,0.0,0.0,0.0,0.0,0.0,0.0,5.1041,5.0596,0.0,5.0519,5.0183,5.0327,5.0298,4.9941,5.0038,4.999,4.9717,4.9717,4.9717,4.9717,4.9717,4.9717,4.9717,4.9717,4.9717,4.9717,4.9717,4.9717,4.9717,4.9815,4.9815,4.9717,5.0086,5.0231,5.0086,5.0346,5.0442,5.0442,5.0614,5.0614,5.0442,5.071,5.0757,5.0662,5.0548,5.0405,5.0231,4.9892,4.9717,4.9717,4.9717,4.9717,4.9717,0.0,4.6583,4.6796,4.6744,4.6901,4.7029,4.7029,4.7236,4.7288,4.6977,4.6925,4.6848,4.6587,4.6535,4.6482,4.6482,4.6482,4.6482,4.6482,4.726,4.7768,4.7971,4.9601,5.0591,5.0828,5.1681,5.217,5.2397,5.2397,5.2518,5.2698,5.2698,5.2698,5.2698,5.2698,5.2698,5.2698,5.2698,5.2698,5.2653,5.2442,5.2397,5.2306,5.1895,5.1711,5.1618,5.1369,5.1276,5.1276,5.1229,5.1229,5.1229,5.1229,5.1229,5.1229,5.1229,5.1229,0.0,0.0,0.0,0.0,0.0,0.0,0.0,0.0,5.1509,5.1526,5.1276,5.1182,5.0994,5.0596,5.0357,5.0086,4.9892,4.999,5.0038,4.9815,4.9941,4.9941,4.9717,4.9717,4.9717,4.9717,4.9717,4.9717,4.9717,4.9717,4.9717,4.9717,4.9717,4.9717,4.9717,4.9766,4.9815,4.9766,5.0279,5.0548,5.0501,5.0852,5.1088,5.1088,5.1088,5.1088,5.1088,5.1088,5.1088,5.1041,5.0644,5.0501,5.0453,5.0038,4.9892,4.9815,4.9717,4.9717,4.9717,0.0,4.5499,4.6796,4.7442,4.7596,4.7596,4.7596,4.7647,4.7545,4.7288,4.7029,4.6901,4.6848,4.664,4.6482,4.6482,4.6482,4.6482,4.6482,4.6612,4.7053,4.7971,4.8223,4.8795,4.9776,4.9921,5.0401,5.1249,5.1249,5.1773,5.2698,5.2698,5.2698,5.2698,5.2698,5.2698,5.2698,5.2698,5.2698,5.2698,5.2653,5.2653,5.2608,5.2306,5.2109,5.1926,5.1649,5.1556,5.1526,5.1276,5.1229,5.1229,5.1229,5.1229,5.1229,5.1229,5.1229,5.1229,5.1229,5.1229,5.1276,5.1479,5.1556,5.1649,0.0,5.1741,5.1526,5.1276,5.1011,5.0775,5.0548,5.0501,5.0453,5.0405,5.0231,5.0086,5.0038,4.9892,4.9717,4.9717,4.9717,4.9717,4.9717,4.9717,4.9717,4.9717,4.9717,4.9717,4.9717,4.9717,4.9717,4.9717,5.0135,5.0309,5.0038,5.0537,5.071,5.0501,5.0548,5.0596,5.0596,5.0596,5.0596,5.0596,5.0596,5.0596,5.0596,5.0501,5.0501,5.0501,5.0453,5.0405,5.0357,4.9892,4.9717,4.9717,0.0,0.0,4.6692,4.7133,4.7339,4.7442,4.7442,4.7726,4.7829,4.7545,4.7442,4.7236,4.6925,4.6692,4.6482,4.6482,4.6482,4.6482,4.6482,4.6482,4.6665,4.7105,4.7694,4.8223,4.8646,4.9288,4.9824,5.0258,5.0258,5.0449,5.0905,5.0733,5.0686,5.0639,5.0467,5.0798,5.1558,5.1558,5.2002,5.2698,5.2698,5.2698,5.2698,5.2563,5.2473,5.2367,5.1787,5.1572,0.0,5.1323,5.1229,5.1229,5.1229,5.1229,5.1229,5.1229,5.1229,5.1229,5.1229,5.1323,5.1463,5.1572,5.1741,5.1834,5.2002,5.2017,5.1895,5.1479,5.1463,5.1276,5.0644,5.0614,5.0567,5.0086,5.0086,5.0038,4.9892,4.9766,4.9717,4.9717,4.9717,4.9717,4.9717,4.9717,4.9717,4.9717,4.9717,4.9717,4.9717,4.9844,4.9941,4.9941,5.0135,5.0183,5.0086,5.0298,5.0375,5.0279,5.0567,5.068,5.068,5.0852,5.0899,5.0899,5.0899,5.0899,5.0899,5.0596,5.0692,5.0852,5.0423,5.0423,5.0585,5.0135,4.9941,4.9941,0.0,0.0,0.0,4.6054,4.6712,4.7184,4.7288,4.7726,4.7931,4.7726,4.7726,4.7494,4.6925,4.6744,4.6587,4.6535,4.6482,4.6482,4.6482,4.6482,4.6482,4.6482,4.7208,4.7592,4.7592,4.8374,4.8894,4.9141,4.9141,4.9337,4.963,4.9406,4.9308,4.9308,4.9083,4.9475,5.0419,5.0419,5.0922,5.1727,5.1819,5.1957,5.2124,5.1911,5.2033,5.217,5.1572,5.1572,5.1711,5.1058,5.1058,5.1246,5.087,5.0964,5.1105,5.087,5.0964,5.1229,5.1229,5.1416,5.1618,5.1695,5.188,5.2109,5.2185,5.22,5.2124,5.1849,5.1787,5.1556,5.0899,5.0775,5.0632,5.0105,5.0135,5.0135,4.9844,4.9815,4.9766,4.9717,4.9717,4.9717,4.9717,4.9717,4.9717,4.9717,4.9717,4.9717,4.9717,4.9892,4.999,4.999,5.0135,5.0183,5.0183,5.0327,5.0423,5.0423,5.0728,5.0917,5.0917,5.1105,5.1229,5.1229,5.1229,5.1229,5.1182,5.0805,5.0899,5.1182,5.0614,5.0585,5.087,5.0442,5.0279,5.0183,0.0,0.0,0.0,0.0,4.563,4.6977,4.7236,4.7494,4.7726,4.7726,4.7726,4.7494,4.6925,4.6901,4.6796,4.6535,4.6482,4.6482,4.6482,4.6482,4.6482,4.6482,4.6535,4.6535,4.6535,4.656,4.7053,4.8072,4.8072,4.8546,4.963,4.9582,4.9582,4.9582,4.9582,4.963,4.9601,4.9601,4.9504,4.9308,4.9601,5.0132,5.0704,4.9969,5.0305,5.1109,5.0887,5.1449,5.2079,5.0555,5.0698,5.1386,5.0076,5.0364,5.1011,4.9979,5.0364,5.1229,5.1229,5.1416,5.1695,5.1926,5.2155,5.2352,5.2608,5.2337,5.2063,5.2261,5.1711,5.1293,5.1526,5.1152,5.0793,5.0775,5.0614,5.0405,5.0135,5.0086,4.999,4.9717,4.9717,4.9717,4.9717,4.9717,4.9717,4.9717,4.9717,4.9717,4.9717,4.9717,4.9717,4.9717,5.0231,5.0501,5.0501,5.0947,5.1182,5.1182,5.1182,5.1182,5.1182,5.1229,5.1229,5.1229,5.1229,5.1229,5.1229,5.1182,5.1182,5.1229,5.1182,5.1182,5.1152,5.087,5.0662,5.0501,0.0,0.0,0.0,0.0,0.0,4.3308,4.3335,4.5678,4.7494,4.7647,4.7726,0.0,0.0,0.0,0.0,0.0,4.6796,4.6692,4.6535,4.6482,4.6482,4.6482,4.6482,4.6482,4.6482,4.6482,4.6665,4.7002,4.7002,4.7208,4.7541,4.7308,4.7205,4.7205,4.705,4.7434,4.8245,4.8245,4.8745,4.9455,4.9357,4.9601,4.994,4.9504,4.965,5.0017,0.0,4.9484,5.0114,4.9464,4.9337,4.9533,4.9757,4.9979,5.022,5.0555,5.0917,5.1229,5.1229,5.1509,5.188,5.2002,5.2291,5.2608,5.2653,5.2001,5.1516,5.2169,5.1348,5.0707,5.1233,5.1199,5.0964,5.0662,5.0548,5.0453,5.0405,5.0038,4.9892,4.9941,4.9815,4.9717,4.9717,4.9717,4.9717,4.9717,4.9717,4.9717,4.9717,4.9892,5.0038,5.0231,5.0405,5.0567,5.068,5.071,5.0739,5.071,5.087,5.1011,5.1229,5.1229,5.1229,5.1229,5.1229,5.1229,5.1182,5.1011,5.1058,5.1182,5.1011,5.1058,5.1182,5.1105,5.1041,5.0899,0.0,0.0,0.0,0.0,0.0,0.0,0.0,0.0,0.0,0.0,0.0,0.0,0.0,0.0,0.0,0.0,0.0,4.6796,4.6535,4.6482,4.6482,4.6482,4.6482,4.6482,4.6482,4.6482,4.6482,4.6482,4.6482,4.6482,4.6482,4.6297,4.6192,4.6192,4.6086,4.648,4.7232,4.7284,4.7666,4.8167,4.8195,4.8446,4.8745,4.8346,4.8546,0.0,4.7819,4.7796,4.8223,4.8374,4.8496,4.8745,4.8923,4.8972,4.912,5.0268,5.0775,5.0994,5.1182,5.1509,5.1834,5.1741,5.1835,5.1925,5.1834,5.1319,5.091,5.1182,5.0925,5.0723,5.0747,5.0815,5.0775,5.0279,5.0183,5.0086,4.9844,4.9746,4.9669,4.9698,4.9698,4.9717,4.9717,4.9717,4.9717,4.9717,4.9717,4.9717,4.9815,5.0038,5.0231,5.0501,5.0501,5.0614,5.0793,5.068,5.0662,5.0757,5.087,5.1011,5.1229,5.1229,5.1229,5.1229,5.1229,5.1229,5.1182,5.1011,5.1058,5.1182,5.1011,5.1058,5.1229,5.1229,5.1229,5.1182,0.0,0.0,0.0,0.0,0.0,0.0,0.0,0.0,0.0,0.0,0.0,0.0,0.0,0.0,0.0,0.0,0.0,0.0,4.6535,4.6482,4.6482,4.6482,4.6482,4.6482,4.6482,4.6482,4.6482,4.6482,4.6482,4.6482,4.6482,4.6482,4.6482,4.6535,4.6796,4.6744,4.6482,4.6769,4.6403,4.5662,4.6245,4.6742,4.7102,4.6665,4.7105,4.7768,4.6821,4.6482,4.6612,4.7363,4.8302,4.8844,4.7638,4.7462,4.792,4.9268,5.0057,5.0596,5.1088,5.1369,5.1479,5.1276,5.0936,5.0547,5.0258,5.0365,5.0276,4.9494,5.0425,5.1116,5.0143,5.0171,5.022,4.9766,4.9669,4.9424,4.8681,4.9227,4.9473,4.9009,4.9375,4.9669,4.9669,4.9669,4.9717,4.9717,4.9717,4.9815,5.0086,5.0086,5.0231,5.0501,5.0501,5.0614,5.0822,5.0822,5.0964,5.1229,5.1229,5.1229,5.1229,5.1229,5.1229,5.1229,5.1229,5.1229,5.1229,5.1229,5.1229,5.1229,5.1229,5.1229,5.1229,5.1229,5.1229,5.1229,0.0,0.0,0.0,0.0,0.0,0.0,0.0,0.0,0.0,0.0,0.0,0.0,0.0,0.0,0.0,0.0,0.0,0.0,4.6535,4.6482,4.6482,4.6482,4.6482,4.6482,4.6482,4.6482,4.635,4.6139,4.635,4.635,4.6112,4.635,4.6482,4.6482,4.6587,4.6403,4.6139,4.6455,4.635,4.5901,4.6086,4.635,4.6665,4.6297,4.6428,4.6821,4.6086,4.6139,4.6535,4.6717,4.6922,4.715,4.7892,4.8117,4.8468,5.0268,5.0662,5.0596,5.1088,5.1105,5.1058,5.1182,5.1126,5.0887,5.0301,4.9594,4.9234,4.9837,4.9317,4.9169,5.0342,5.018,4.9912,4.999,4.9649,4.9551,4.9941,4.9502,4.9178,4.9473,4.9453,4.9404,4.9424,4.9571,4.9892,5.0279,5.0086,5.0038,5.0086,5.0086,5.0231,5.0501,5.0501,5.0662,5.1058,5.1105,5.1105,5.1229,5.1229,5.1229,5.1229,5.1229,5.1229,5.1229,5.1229,5.1229,5.1229,5.1229,5.1229,5.1229,5.1229,5.1229,5.1229,5.1229,5.1229,5.1229,0.0,0.0,0.0,0.0,0.0,0.0,0.0,0.0,0.0,0.0,0.0,0.0,0.0,0.0,0.0,0.0,0.0,0.0,0.0,4.6587,4.6482,4.6482,4.635,4.6297,4.6297,4.6297,4.6192,4.6007,4.635,4.6403,4.6245,4.6403,4.6482,4.6535,4.664,4.6508,4.6245,4.6245,4.6192,0.0,0.0,4.5742,4.6245,4.5635,4.5715,4.6034,4.5448,4.5448,4.5715,4.5715,4.5848,4.6058,4.6451,4.7023,4.774,4.9042,4.9717,5.0086,5.071,5.0805,5.071,5.071,5.0312,4.9774,4.9469,4.8845,4.8446,4.8875,4.8875,4.9026,4.9751,4.9592,4.9404,4.9551,4.9108,4.8909,4.9207,4.8959,4.8731,4.8781,4.9009,4.9108,4.898,4.9079,4.9326,4.9746,4.9892,5.0038,5.0231,5.0279,5.0375,5.0614,5.0614,5.0757,5.1011,5.1105,5.1229,5.1229,5.1229,5.1229,5.1229,5.1229,5.1229,5.1229,5.1229,5.1229,5.1229,5.1229,5.1229,5.1229,5.1229,5.1229,5.1229,5.1229,5.1229,5.1229,0.0,0.0,0.0,0.0,0.0,0.0,0.0,0.0,0.0,0.0,4.2389,4.3651,0.0,0.0,0.0,0.0,0.0,0.0,0.0,0.0,4.6535,4.6482,4.6192,4.6007,4.6007,4.5954,4.5954,4.5954,4.6245,4.6377,4.6377,4.6377,4.6377,4.6377,4.6612,4.656,4.6297,4.6086,4.5901,4.5795,4.5046,4.5207,4.5795,0.0,4.4992,4.5448,4.4884,4.4668,4.4559,4.4559,4.4884,4.5207,4.4668,4.5207,4.6191,4.6947,4.805,4.9227,4.999,5.0279,5.0357,5.0135,4.9179,4.826,4.8307,4.817,4.7876,4.752,4.875,4.9649,4.8895,4.8882,4.8959,4.8959,4.8509,4.8134,4.7953,4.8207,4.8308,4.7852,4.8409,4.876,4.8531,4.8481,4.8631,4.9009,4.9326,4.9795,5.0357,5.0357,5.0375,5.0585,5.0728,5.0775,5.0775,5.1058,5.1229,5.1229,5.1229,5.1229,5.1229,5.1229,5.1229,5.1229,5.1229,5.1229,5.1229,5.1229,5.1229,5.1229,5.1229,5.1229,5.1229,5.1229,5.1229,5.1229,0.0,0.0,0.0,0.0,0.0,0.0,0.0,0.0,0.0,0.0,3.8671,3.9824,0.0,0.0,0.0,0.0,0.0,0.0,0.0,0.0,0.0,4.6535,4.6192,4.6007,4.6007,4.5742,4.5662,4.5662,4.5715,4.5768,4.5768,4.5768,4.5768,4.5768,4.5822,4.5662,4.5448,4.5609,4.5555,4.5341,4.518,4.518,4.5287,4.483,0.0,0.0,4.4722,4.4422,4.4064,4.4064,4.3929,4.3987,4.5235,4.4967,4.4563,4.6292,4.7304,4.8044,4.8567,4.9268,4.9892,5.0038,4.9358,4.8547,4.8346,4.7913,4.7549,4.7749,4.8229,4.8711,4.9095,4.9248,4.9207,4.9207,4.881,4.8559,4.8959,4.8509,4.8207,4.8358,4.8481,4.8531,4.8481,4.8481,4.8781,4.9522,4.9029,4.9029,4.9766,4.9453,4.9305,4.9551,5.0183,5.0519,5.0519,5.0994,5.1229,5.1229,5.1229,5.1229,5.1229,5.1229,5.1229,5.1229,5.1229,5.1229,5.1229,5.1229,5.1229,5.1229,5.1229,5.1229,5.1229,5.1229,5.1229,5.1229,0.0,0.0,0.0,0.0,0.0,0.0,0.0,3.6332,3.6332,3.6332,3.7006,3.7922,3.9077,4.0771,4.1843,0.0,0.0,0.0,0.0,0.0,0.0,0.0,4.4572,4.4837,4.5609,4.5448,4.5395,4.5395,0.0,4.5609,4.5609,4.5609,4.5609,4.5609,4.5609,4.5555,4.5395,4.5207,4.5234,4.5341,4.4748,4.4802,4.5126,0.0,0.0,0.0,4.3793,4.3653,4.3432,4.3432,4.3321,4.3351,4.4126,4.4235,4.4264,4.5316,4.6057,4.6736,4.7864,4.8396,4.8774,4.9473,4.8972,4.8296,4.8526,4.7951,4.7645,4.8448,4.8747,4.898,4.9444,4.9404,4.9305,4.9305,4.8859,4.8581,4.8859,4.8409,4.8134,4.8106,4.8207,4.8258,4.8106,4.8106,4.8258,4.866,4.8179,4.833,4.9453,4.9256,4.9355,4.9892,5.0038,5.0327,5.0852,5.0537,5.0537,5.0805,5.0537,5.0567,5.0805,5.0805,5.0947,5.1229,5.1229,5.1229,5.1229,5.1229,5.1229,5.1229,5.1229,5.1229,5.1229,5.1229,5.1229,5.1229,0.0,0.0,0.0,0.0,0.0,0.0,3.6346,3.6332,3.6332,3.6332,3.6332,3.6882,3.8425,3.9804,4.0693,0.0,0.0,0.0,0.0,0.0,0.0,0.0,0.0,0.0,4.518,0.0,0.0,4.518,4.5341,0.0,0.0,0.0,0.0,0.0,4.5448,4.5448,4.5395,4.4884,4.4938,0.0,0.0,4.4393,4.491,0.0,0.0,0.0,0.0,4.2986,4.2986,4.2986,4.2986,4.2986,4.2986,4.3406,4.3932,4.4152,4.467,4.5502,4.7023,4.7536,4.7892,4.9029,4.8548,4.7959,4.8722,4.8132,4.7731,4.8899,4.9207,4.9355,4.96,4.9502,4.9404,4.9404,4.9009,4.8681,4.8681,4.8409,4.8106,4.7903,4.8004,4.8032,4.7829,4.7726,4.7726,4.7778,4.7596,4.7903,4.8909,4.9108,4.9453,4.9941,4.9698,4.9912,5.068,5.0057,4.9941,5.0357,4.9892,4.999,5.0501,5.0501,5.0787,5.1229,5.1229,5.1229,5.1229,5.1229,5.1229,5.1229,5.1229,5.1229,5.1229,5.1229,5.1229,5.1229,0.0,0.0,0.0,0.0,0.0,0.0,3.6346,3.6332,3.6332,3.6332,3.6332,3.6386,3.6541,3.6696,3.6828,0.0,0.0,0.0,0.0,0.0,0.0,0.0,0.0,0.0,0.0,0.0,0.0,4.518,4.491,0.0,0.0,0.0,0.0,0.0,0.0,4.4776,4.4776,4.4722,0.0,0.0,0.0,0.0,0.0,0.0,0.0,0.0,0.0,4.2986,4.2986,4.2986,4.2986,4.2986,4.2986,4.2874,4.2681,4.2681,4.33,4.4183,4.5395,4.6632,4.7892,4.9029,4.8548,4.7959,4.8722,4.8132,4.7635,4.8375,4.8959,4.9305,4.9305,4.9551,4.9669,4.9669,4.9404,4.9207,4.9207,4.881,4.8431,4.8431,4.8207,4.8083,4.8083,4.7829,4.7829,4.8032,4.8032,4.7953,4.7852,4.8559,4.876,4.8308,4.876,4.9009,4.9079,4.9473,4.9717,4.9766,4.9717,4.999,5.0501,5.0501,5.0787,5.1229,5.1229,5.1229,5.1229,5.1229,5.1229,5.1229,5.1229,5.1229,5.1229,5.1229,5.1229,5.1229,0.0,0.0,0.0,0.0,0.0,0.0,3.6805,3.6461,3.6332,3.6332,3.6332,3.6283,3.6193,3.6219,3.6332,3.6332,0.0,0.0,0.0,0.0,0.0,0.0,0.0,0.0,0.0,0.0,4.267,4.3797,4.3687,0.0,0.0,0.0,0.0,0.0,0.0,4.4668,4.4668,4.4668,0.0,0.0,0.0,0.0,0.0,0.0,0.0,0.0,0.0,0.0,4.2986,4.2986,4.2986,4.2986,4.2986,4.293,4.2818,4.2818,4.2905,4.3245,4.4427,4.4994,4.5714,4.7359,4.7325,4.7151,4.8382,4.8146,4.7921,4.8808,4.9157,4.9355,4.9502,4.962,4.9717,4.9717,4.9502,4.9305,4.9305,4.9009,4.8681,4.8531,4.8409,4.8258,4.8134,4.8032,4.7981,4.8083,4.8134,4.8083,4.7981,4.8258,4.8459,4.8559,4.8459,4.876,4.9404,4.8959,4.8909,4.9178,4.8909,4.9207,5.0038,4.9698,5.0183,5.1182,5.0899,5.0947,5.1229,5.1229,5.1229,5.1229,5.1229,5.1229,5.1229,5.1229,5.1229,5.1229,0.0,0.0,0.0,0.0,0.0,3.7862,3.7333,3.6828,3.6507,3.6507,3.6369,3.6251,3.615,3.6264,3.6269,3.6264,3.5711,0.0,0.0,0.0,0.0,0.0,0.0,0.0,0.0,0.0,4.1484,4.2715,4.3199,4.3878,0.0,0.0,4.4668,4.4668,0.0,0.0,0.0,0.0,0.0,0.0,0.0,0.0,0.0,0.0,0.0,0.0,0.0,0.0,0.0,0.0,0.0,4.2986,4.2986,4.2986,4.2986,4.2986,4.2737,4.2737,4.3907,4.3991,4.4292,4.6399,4.6582,4.6583,4.8139,4.8247,4.8256,4.9014,4.9305,4.9502,4.9669,4.9717,4.9717,4.9717,4.9551,4.9404,4.9404,4.9207,4.8959,4.876,4.8581,4.8459,4.8258,4.8185,4.8134,4.8134,4.8134,4.8134,4.8134,4.8134,4.8258,4.866,4.8308,4.8459,4.9227,4.8459,4.8258,4.866,4.8258,4.8559,4.9424,4.9058,4.9571,5.0728,5.0423,5.0471,5.0728,5.0728,5.0852,5.0994,5.0994,5.1088,5.1229,5.1229,5.1229,5.1229,0.0,0.0,0.0,0.0,0.0,0.0,3.7862,3.7356,3.6979,3.6979,3.6576,3.6332,3.6277,3.6277,3.6242,3.6129,3.5692,0.0,0.0,0.0,0.0,0.0,0.0,0.0,0.0,0.0,4.2217,4.2217,4.3893,4.4668,4.4668,4.4668,4.4668,4.4668,0.0,0.0,0.0,0.0,0.0,0.0,0.0,0.0,4.3844,0.0,0.0,0.0,0.0,0.0,0.0,0.0,0.0,0.0,0.0,4.2986,4.2986,4.2986,4.2737,4.2737,4.3987,4.4071,4.4346,4.6608,4.6657,4.6583,4.8139,4.8395,4.8402,4.8816,4.9326,4.9717,4.9717,4.9717,4.9717,4.9717,4.9717,4.9669,4.9669,4.9453,4.9305,4.9305,4.881,4.8481,4.8481,4.8258,4.8134,4.8134,4.8134,4.8134,4.8134,4.8134,4.8134,4.8134,4.8134,4.8134,4.8134,4.8134,4.8134,4.8134,4.8134,4.8358,4.8909,4.8909,4.9178,4.9717,4.9717,4.9717,4.9717,4.9717,5.0038,5.0501,5.0501,5.0757,5.1229,5.1229,5.1229,5.1229,0.0,0.0,0.0,0.0,0.0,0.0,3.8367,3.7885,3.7425,3.7025,3.6897,3.6617,3.6228,3.6172,3.5882,3.519,3.5279,0.0,0.0,0.0,0.0,0.0,0.0,0.0,0.0,3.7132,3.8166,3.9661,4.0201,4.1482,4.3466,4.3466,4.3907,4.4668,4.4668,4.4668,0.0,0.0,0.0,0.0,0.0,4.3819,4.3517,0.0,0.0,0.0,0.0,0.0,0.0,0.0,0.0,0.0,0.0,0.0,0.0,4.2986,4.293,4.2849,4.3017,4.3577,4.4372,4.5502,4.6211,4.6905,4.7999,4.8339,4.8553,4.8852,4.9207,4.9502,4.9669,4.9717,4.9717,4.9717,4.9717,4.9717,4.9717,4.962,4.9502,4.9305,4.8859,4.8459,4.8258,4.8185,4.8134,4.8134,4.8134,4.8134,4.8134,4.8134,4.8134,4.8134,4.8134,4.8134,4.8134,4.8134,4.8134,4.8134,4.8134,4.8358,4.8909,4.8509,4.8859,4.9669,4.9277,4.9375,4.9717,4.9717,5.0038,5.0501,5.0501,5.0757,5.1229,5.1229,5.1229,5.1229,0.0,0.0,0.0,0.0,0.0,0.0,3.8849,3.8413,3.7976,3.7655,3.7448,3.7074,3.6477,3.6454,3.6117,3.5303,3.54,0.0,0.0,0.0,0.0,0.0,0.0,0.0,3.4949,3.5555,3.6703,3.824,3.8883,4.0263,4.2213,4.2213,4.283,4.4042,4.4042,4.4261,0.0,0.0,0.0,0.0,4.401,4.3708,4.3406,0.0,0.0,0.0,0.0,0.0,0.0,0.0,0.0,0.0,0.0,0.0,0.0,0.0,4.2986,4.2986,4.2737,4.3103,4.3852,4.4967,4.5714,4.6478,4.7801,4.8409,4.8681,4.8859,4.9207,4.9502,4.9669,4.9717,4.9717,4.9717,4.9717,4.9717,4.9717,4.9717,4.9571,4.9305,4.8909,4.8559,4.8258,4.8185,4.8134,4.8134,4.8134,4.8134,4.8134,4.8134,4.8134,4.8134,4.8134,4.8134,4.8134,4.8134,4.8134,4.8134,4.8134,4.8258,4.861,4.8258,4.8459,4.9108,4.876,4.881,0.0,4.9108,4.9404,4.9892,5.0135,5.0519,5.0947,5.1135,5.1229,5.1229,0.0,0.0,0.0,0.0,0.0,0.0,0.0,3.8918,3.8619,3.8596,3.816,3.7655,3.715,3.7071,3.6792,3.6185,3.5846,0.0,0.0,0.0,0.0,0.0,0.0,0.0,3.4522,3.6105,3.714,3.769,3.9264,4.0377,4.0985,4.0985,4.1647,4.2886,4.2886,4.3577,4.4668,4.4668,4.4585,4.4258,4.401,4.3708,0.0,0.0,0.0,0.0,0.0,0.0,0.0,0.0,0.0,0.0,0.0,0.0,0.0,0.0,0.0,0.0,0.0,4.2793,4.3103,4.4913,4.5235,4.5635,4.7517,4.8409,0.0,4.8909,4.9277,4.9669,4.9717,4.9717,4.9717,4.9717,4.9717,4.9717,4.9717,4.9717,4.9571,4.9305,4.9058,4.881,4.8531,4.8258,4.8134,4.8134,4.8134,4.8134,4.8134,4.8134,4.8134,4.8134,4.8134,4.8134,4.8134,4.8134,4.8134,4.8134,4.8134,4.8134,4.8134,4.8134,4.8134,4.8134,4.8134,4.8134,4.8134,4.8134,4.8409,4.8959,4.9473,5.0038,5.0548,5.1041,5.1229,5.1229,0.0,0.0,0.0,0.0,0.0,0.0,0.0,0.0,0.0,0.0,3.8481,3.8206,3.7655,3.7553,3.7161,0.0,0.0,0.0,0.0,0.0,0.0,0.0,0.0,0.0,3.4704,3.4987,3.5533,3.6418,3.6796,3.7927,3.9627,3.9627,4.0822,4.2886,4.2886,4.3577,4.4668,4.4668,4.4585,4.4258,4.401,4.3708,0.0,0.0,0.0,0.0,4.2986,4.2986,0.0,0.0,0.0,0.0,0.0,0.0,0.0,0.0,4.2986,4.2986,4.2986,0.0,4.418,4.418,4.4805,4.5661,0.0,4.7078,4.7592,4.8681,4.9157,4.9453,4.9669,4.9717,4.9717,4.9717,4.9717,4.9717,4.9717,4.9717,4.9571,4.9305,4.9058,4.881,4.8531,4.8258,4.8134,4.8134,4.8134,4.8134,4.8134,4.8134,4.8134,4.8134,4.8134,4.8134,4.8134,4.8134,4.8134,4.8134,4.8134,4.8134,4.8134,4.8134,4.8134,4.8134,4.8134,4.8134,4.8134,4.8134,4.8409,4.8959,4.9473,5.0038,5.0548,5.1041,5.1229,5.1229,0.0,0.0,0.0,0.0,0.0,0.0,0.0,0.0,0.0,0.0,3.8918,3.8711,3.8206,3.7811,3.7475,0.0,0.0,0.0,0.0,0.0,0.0,0.0,0.0,3.4923,3.4819,3.471,3.5005,3.578,3.5896,3.6729,3.8134,3.8291,3.9393,4.1224,4.227,4.3381,4.4531,4.4531,4.4367,4.4119,4.3955,0.0,0.0,0.0,0.0,0.0,4.2986,4.2986,0.0,4.2986,4.2986,4.2986,0.0,0.0,0.0,0.0,4.2986,4.2986,4.2986,4.3462,4.3878,4.3823,4.4289,4.5021,4.6164,4.6635,4.7205,4.8581,4.9108,4.9404,4.962,4.9717,4.9717,4.9717,4.9717,4.9717,4.9717,4.9717,4.962,4.9502,4.9157,4.8859,4.8681,4.8308,4.8134,4.8134,4.8134,4.8134,4.8134,4.8134,4.8134,4.8134,4.8134,4.8134,4.8134,4.8134,4.8134,4.8134,4.8134,4.8134,4.8134,4.8134,4.8134,4.8134,4.8134,4.8134,4.8134,4.8134,4.8258,4.861,4.9128,4.9502,4.9844,5.0614,5.071,5.0585,0.0,0.0,0.0,0.0,0.0,0.0,0.0,0.0,0.0,0.0,0.0,0.0,0.0,0.0,0.0,0.0,0.0,0.0,0.0,0.0,0.0,0.0,3.5058,3.4987,3.4862,3.4827,3.5078,3.5537,3.5888,3.6286,3.685,3.7071,3.7894,3.9157,4.1476,4.3103,4.4094,4.4258,4.4148,4.3955,4.3844,0.0,0.0,0.0,0.0,0.0,0.0,0.0,0.0,4.2986,4.2986,4.2986,4.2986,0.0,0.0,0.0,0.0,0.0,4.2986,4.2986,4.3017,4.3436,4.3547,4.3962,4.5502,4.6084,4.6739,4.8302,4.8831,4.9207,4.962,4.9717,4.9717,4.9717,4.9717,4.9717,4.9717,4.9717,4.9669,4.962,4.9178,4.8909,4.8909,4.8459,4.8156,4.8156,4.8156,4.8134,4.8134,4.8134,4.8134,4.8134,4.8134,4.8134,4.8134,4.8134,4.8134,4.8134,4.8134,4.8134,4.8134,4.8134,4.8134,4.8134,4.8134,4.8134,4.8134,4.8134,4.8134,4.8185,4.871,4.8909,4.9009,4.999,5.0086,4.9815,0.0,0.0,0.0,0.0,0.0,0.0,0.0,0.0,0.0,0.0,0.0,0.0,0.0,0.0,0.0,0.0,0.0,0.0,0.0,0.0,0.0,3.5376,3.5107,3.5028,3.5128,3.4917,3.5113,3.5674,3.6032,3.6252,3.6484,3.6545,3.7231,3.8461,4.12,4.2662,4.3189,4.3958,4.4258,4.4203,4.3683,0.0,0.0,0.0,0.0,0.0,0.0,0.0,0.0,4.2986,4.2986,4.2986,4.2986,0.0,0.0,0.0,0.0,0.0,4.2986,4.2818,4.2513,4.2425,4.2369,4.2513,4.3275,4.3687,4.4615,4.6998,4.7666,4.8223,4.9473,4.9717,4.9717,4.9717,4.9717,4.9717,4.9717,4.9717,4.9649,4.9404,4.9108,4.8909,4.8909,4.861,4.8459,4.8459,4.8459,4.8358,4.8134,4.8134,4.8134,4.8134,4.8134,4.8134,4.8134,4.8134,4.8134,4.8134,4.8134,4.8134,4.8134,4.8134,4.8134,4.8134,4.8134,4.8134,4.8134,4.8134,4.8134,4.8185,4.871,4.8909,4.8959,4.9571,4.9766,4.9717,0.0,0.0,0.0,0.0,0.0,0.0,0.0,0.0,0.0,0.0,0.0,0.0,0.0,0.0,0.0,0.0,0.0,0.0,0.0,0.0,3.5788,3.5418,3.52,3.5128,3.5218,3.5236,3.5354,3.5399,3.596,3.6196,3.6116,3.63,3.6989,3.8067,4.0094,4.1419,4.2213,4.3326,4.3793,4.3793,0.0,0.0,0.0,0.0,0.0,0.0,0.0,0.0,0.0,0.0,4.2986,4.2986,4.2986,0.0,0.0,0.0,0.0,0.0,4.2986,4.2762,4.2425,4.2167,4.211,4.2312,4.2992,4.3411,4.418,4.6084,4.6608,4.7126,4.8524,4.8802,4.9001,4.962,4.9717,4.9717,4.9717,4.9717,4.9571,4.9305,4.9207,4.9058,4.8909,4.8631,4.8481,4.8481,4.8358,4.8207,4.8134,4.8134,4.8134,4.8134,4.8134,4.8134,4.8134,4.8134,4.8134,4.8134,4.8134,4.8134,4.8134,4.8134,4.8134,4.8134,4.8134,4.8134,4.8134,4.8134,4.8134,4.8134,4.8358,4.8459,4.8509,4.876,4.9178,4.9669,0.0,0.0,0.0,0.0,0.0,0.0,0.0,0.0,0.0,0.0,0.0,0.0,0.0,0.0,0.0,0.0,0.0,0.0,0.0,3.6239,3.5932,3.5418,3.5331,3.5265,3.5265,3.5462,3.5462,3.5265,3.5749,3.5879,3.5541,3.5911,3.6441,3.721,3.8944,4.0268,4.1281,4.2911,4.3517,4.3406,0.0,0.0,0.0,0.0,0.0,0.0,0.0,0.0,0.0,0.0,0.0,0.0,0.0,0.0,0.0,4.2986,4.2986,4.2986,4.2986,4.2706,4.2369,4.2167,4.2054,4.2142,4.2849,4.3215,4.3797,4.5235,4.5555,4.6032,4.7331,4.7819,4.8274,4.9149,4.9522,4.9717,4.9717,4.9717,4.96,4.9256,4.9256,4.9157,4.8859,4.8681,4.8581,4.8481,4.8308,4.8185,4.8134,4.8134,4.8134,4.8134,4.8134,4.8134,4.8134,4.8134,4.8134,4.8134,4.8134,4.8134,4.8134,4.8134,4.8134,4.8134,4.8134,4.8134,4.8134,4.8134,4.8134,4.8134,4.8134,4.8134,4.8134,4.8134,4.861,4.9305,0.0,0.0,0.0,0.0,0.0,0.0,0.0,0.0,0.0,0.0,0.0,0.0,0.0,0.0,0.0,0.0,0.0,0.0,0.0,3.5809,3.5418,3.5418,3.5397,3.5376,3.5376,3.5267,3.5307,3.5376,3.5438,3.5149,3.4548,3.4859,3.5046,3.5211,3.8305,3.9919,4.0384,4.3103,4.3903,4.3462,4.3708,0.0,0.0,0.0,0.0,0.0,0.0,0.0,0.0,0.0,0.0,0.0,0.0,0.0,4.2986,4.2986,4.2986,4.2986,4.2986,4.2594,4.211,4.211,4.1859,4.1663,4.172,4.1972,4.2625,4.4016,4.4561,4.5154,4.6242,4.728,4.8021,4.8122,4.9001,4.9717,4.9717,4.9717,4.9522,4.9009,4.9157,4.9108,4.8581,4.8731,4.876,4.8531,4.8481,4.8358,4.8134,4.8134,4.8134,4.8134,4.8134,4.8134,4.8134,4.8134,4.8134,4.8134,4.8134,4.8134,4.8134,4.8134,4.8134,4.8134,4.8134,4.8134,4.8134,4.8134,4.8134,4.8134,4.8134,4.8134,4.8134,4.8134,4.8134,4.8235,0.0,0.0,0.0,0.0,0.0,0.0,0.0,0.0,0.0,0.0,0.0,0.0,0.0,0.0,0.0,0.0,0.0,0.0,0.0,3.6524,3.6462,3.6055,3.5603,3.5418,3.5418,3.5559,3.5436,3.5108,3.4859,3.4673,3.4423,3.4548,3.461,3.4673,3.6924,3.8424,3.937,4.1419,4.2824,4.3708,4.3844,4.3789,0.0,0.0,0.0,0.0,0.0,0.0,0.0,0.0,4.2986,4.2986,4.2986,4.2986,4.2986,4.2986,4.2986,4.2986,4.2986,4.2538,4.211,4.211,4.1688,4.1459,4.1802,4.2142,4.2594,4.3295,4.3547,4.3987,4.5074,4.6189,4.7177,4.7869,4.8374,4.8902,4.962,4.9717,4.9571,4.9207,4.9404,4.9355,4.881,4.8859,4.881,4.8531,4.8358,4.8207,4.8134,4.8134,4.8134,4.8134,4.8134,4.8134,4.8134,4.8134,4.8134,4.8134,4.8134,4.8134,4.8134,4.8134,4.8134,4.8134,4.8134,4.8134,4.8134,4.8134,4.8134,4.8134,4.8134,4.8134,4.8134,4.8134,4.8134,4.8134,0.0,0.0,0.0,0.0,0.0,0.0,0.0,0.0,0.0,0.0,0.0,0.0,0.0,0.0,0.0,0.0,0.0,0.0,3.7065,3.7187,3.7068,3.6538,3.6123,3.5852,3.5852,3.604,3.577,3.4922,3.4485,3.4295,3.4455,3.4581,3.4768,3.5078,3.7044,3.835,3.9186,4.1263,4.2768,4.3899,4.4064,4.4148,0.0,0.0,0.0,0.0,0.0,0.0,0.0,0.0,4.2986,4.2986,4.2986,4.2986,4.2986,4.2986,4.2986,4.2986,4.2849,4.2538,4.2199,4.1972,4.1631,4.1459,4.1997,4.2256,4.2481,4.293,4.2986,4.324,4.4042,4.5021,4.6189,4.728,4.7434,4.7841,4.9001,4.9149,4.905,4.8781,4.9326,4.9473,4.8831,4.8859,4.876,4.8409,4.8207,4.8134,4.8134,4.8134,4.8134,4.8134,4.8134,4.8134,4.8134,4.8134,4.8134,4.8134,4.8134,4.8134,4.8134,4.8134,4.8134,4.8134,4.8134,4.8134,4.8134,4.8134,4.8134,4.8134,4.8134,4.8134,4.8134,4.8134,4.8134,4.8134,0.0,0.0,0.0,0.0,0.0,0.0,0.0,0.0,3.9308,3.9308,0.0,0.0,0.0,0.0,0.0,0.0,0.0,0.0,3.8135,3.7498,3.7023,3.6848,3.6784,3.6804,3.6804,3.6804,3.6159,3.4942,3.4235,3.416,3.4596,3.4979,3.5521,3.6377,3.9087,4.0131,4.0071,4.305,4.4119,4.3955,4.445,4.4668,4.4668,0.0,0.0,0.0,0.0,0.0,0.0,0.0,4.2986,4.2986,4.2986,4.2986,4.2986,4.2986,4.2986,4.293,4.2569,4.2513,4.2344,4.1777,4.1606,4.1663,4.2054,4.211,4.228,4.2874,4.2986,4.2986,4.2986,4.3932,4.5047,4.611,4.6267,4.6684,4.7819,4.7971,4.7869,4.7615,4.8802,4.9375,4.8531,4.8731,4.866,4.8134,4.8083,4.8083,4.8083,4.8083,4.8083,4.8083,4.8134,4.8134,4.8134,4.8134,4.8134,4.8134,4.8134,4.8134,4.8134,4.8134,4.8134,4.8134,4.8134,4.8134,4.8134,4.8134,4.8134,4.8134,4.8134,4.8134,4.8134,4.8134,4.8134,4.8134,0.0,0.0,0.0,0.0,0.0,0.0,0.0,0.0,3.9308,3.9308,3.9308,0.0,0.0,0.0,0.0,0.0,0.0,0.0,3.8259,3.8017,3.7872,3.7732,3.7369,3.7062,3.6784,3.6354,3.6017,3.5881,3.524,3.5042,3.544,3.557,3.5695,3.601,3.8012,3.9069,3.954,4.167,4.3059,4.3801,4.4002,4.4041,4.4042,0.0,0.0,0.0,0.0,0.0,0.0,0.0,0.0,0.0,4.2986,4.2986,4.2986,4.2986,4.2986,4.2986,4.2874,4.2538,4.2199,4.1972,4.1631,4.1459,4.1997,4.1915,4.1891,4.2513,4.2874,4.2986,4.2986,4.3295,4.3878,4.4993,4.5208,4.5555,4.666,4.6816,4.6736,4.6712,4.7074,4.7126,4.6712,4.6712,4.666,4.6321,4.6269,4.6269,4.6269,4.6818,4.7208,4.7208,4.775,4.8134,4.8134,4.8134,4.8134,4.8134,4.8134,4.8134,4.8134,4.8134,4.8134,4.8134,4.8134,4.8134,4.8134,4.8134,4.8134,4.8134,4.8134,4.8134,4.8134,4.8134,4.8134,4.8134,0.0,0.0,0.0,0.0,0.0,0.0,0.0,0.0,3.9836,3.9629,3.9607,3.9538,0.0,0.0,0.0,0.0,0.0,0.0,3.8604,3.8567,3.8487,3.8357,3.8033,3.773,3.7424,3.6647,3.6599,3.7376,3.5981,3.5656,3.6294,3.6294,3.6461,3.682,3.8231,3.9493,4.0507,4.2078,4.3514,4.4815,4.4855,4.4864,4.4838,0.0,0.0,0.0,0.0,0.0,0.0,0.0,0.0,0.0,4.2986,4.2986,4.2986,4.2874,4.2818,4.2737,4.2513,4.2256,4.2054,4.1826,4.1573,4.1459,4.1802,4.2004,4.2182,4.2351,4.2724,4.2911,4.274,4.2891,4.3351,4.4507,4.4315,4.4398,4.5502,4.5661,4.5661,4.5661,4.6005,4.6162,4.5926,4.5926,4.582,4.5502,4.5502,4.5502,4.5502,4.6006,4.6296,4.6296,4.6766,4.7078,4.7078,4.7414,4.7596,4.7596,4.7903,4.8134,4.8134,4.8134,4.8134,4.8134,4.8134,4.8134,4.8134,4.8134,4.8134,4.8134,4.8134,4.8134,4.8134,4.8134,4.8134,4.8134,0.0,0.0,4.0938,4.0892,0.0,0.0,0.0,0.0,0.0,0.0,4.0195,3.9951,0.0,0.0,0.0,0.0,0.0,0.0,0.0,3.9046,3.8965,3.8707,3.8709,3.8584,3.8309,3.7395,3.76,3.8959,3.6619,3.6093,3.7287,3.7156,3.7579,3.835,3.954,4.0864,4.2433,4.3678,4.5087,4.6402,4.646,4.6437,4.6245,4.5688,0.0,0.0,0.0,0.0,0.0,0.0,0.0,0.0,4.2986,4.2986,4.293,4.2625,4.2513,4.24,4.1834,4.1859,4.1915,4.1344,4.1459,4.1606,4.1606,4.2238,4.2785,4.2333,4.2585,4.276,4.2363,4.269,4.3351,4.437,4.3657,4.3351,4.4424,4.4533,4.4533,4.4533,4.5395,4.5899,4.5661,4.5661,4.5555,4.5289,4.5289,4.5289,4.5289,4.5342,4.5395,4.5395,4.5449,4.5502,4.5502,4.6296,4.6662,4.6662,4.7466,4.7903,4.7953,4.8055,4.8134,4.8134,4.8134,4.8134,4.8134,4.8134,4.8134,4.8134,4.8134,4.8134,4.8134,4.8134,4.8111,4.8167,0.0,0.0,4.188,4.1489,0.0,0.0,0.0,0.0,0.0,0.0,0.0,0.0,0.0,0.0,0.0,0.0,0.0,0.0,0.0,3.9231,3.9137,3.8942,3.8597,3.8404,3.8392,3.7529,3.7699,3.8864,3.7418,3.7703,3.9606,3.8489,3.8465,3.9451,4.0963,4.204,4.2747,4.4948,4.5788,4.5668,4.6257,4.5953,4.5047,4.4705,4.4177,0.0,0.0,0.0,0.0,0.0,0.0,0.0,4.2986,4.2986,4.2986,4.293,4.2706,4.2457,4.2344,4.2004,4.1663,4.1549,4.1549,4.1606,4.1606,4.1798,4.2077,4.2401,4.2393,4.2489,4.2791,4.2886,4.3073,4.3351,4.3129,4.3098,4.3351,4.3351,4.3351,4.3351,4.3547,4.3713,4.3602,4.3602,4.3602,4.3547,4.3547,4.3547,4.3547,4.4206,4.4587,4.4587,4.5208,4.5502,4.5502,4.5661,4.5767,4.5767,4.5953,4.6426,4.7105,4.7801,4.8134,4.8134,4.8134,4.8134,4.8134,4.8134,4.8134,4.8134,4.8134,4.8134,4.8134,4.8134,4.8392,4.8785,0.0,0.0,0.0,0.0,0.0,0.0,0.0,0.0,0.0,0.0,0.0,0.0,0.0,0.0,0.0,0.0,0.0,0.0,0.0,3.9446,3.9245,3.9115,3.8598,3.8348,3.838,3.756,3.7845,3.9339,3.827,3.8582,4.0192,3.9165,3.9144,4.004,4.1524,4.2809,4.3945,4.5883,4.6914,4.7205,4.7582,4.716,4.63,4.5608,4.5156,4.4838,4.4198,0.0,0.0,0.0,0.0,0.0,0.0,0.0,4.3321,4.2874,4.2625,4.2457,4.2174,4.1834,4.1549,4.1435,4.1402,4.1435,4.1549,4.1418,4.1509,4.2357,4.2368,4.2313,4.259,4.2866,4.2986,4.2986,4.2986,4.2986,4.2986,4.2986,4.2986,4.2986,4.2986,4.2986,4.2986,4.2986,4.2986,4.2986,4.2986,4.2986,4.2986,4.3406,4.3683,4.3683,4.4097,4.4289,4.4289,4.4724,4.494,4.494,4.5289,4.5741,4.6216,4.7517,4.8134,4.8134,4.8134,4.8134,4.8134,4.8134,4.8134,4.8134,4.8134,4.8252,4.8504,4.8504,4.8949,4.9483,0.0,0.0,0.0,0.0,0.0,0.0,0.0,0.0,0.0,0.0,0.0,0.0,0.0,0.0,0.0,0.0,0.0,0.0,0.0,0.0,0.0,3.9308,3.8738,3.838,3.838,3.7606,3.7978,3.9663,3.8933,3.9153,4.0321,3.9692,3.9844,4.0862,4.2034,4.366,4.5594,4.6874,4.8095,4.911,4.9222,4.8814,4.8109,4.7187,4.6755,4.6486,4.5306,4.4879,4.4853,4.4774,0.0,0.0,0.0,0.0,4.3874,4.3129,4.2849,4.2681,4.2061,4.1777,4.1549,4.1287,4.1172,4.123,4.1492,4.1136,4.1118,4.2188,4.2257,4.2183,4.2338,4.2715,4.2986,4.2986,4.2986,4.2986,4.2986,4.2986,4.2986,4.2986,4.2986,4.2986,4.2986,4.2986,4.2986,4.2986,4.2986,4.2986,4.2986,4.2986,4.2986,4.2986,4.2986,4.2986,4.2986,4.3738,4.4042,4.4097,4.4886,4.5289,4.5342,4.6922,4.775,4.7852,4.8004,4.8134,4.8134,4.8134,4.8139,4.8223,4.8223,4.8616,4.915,4.915,4.9595,5.0182,0.0,0.0,0.0,0.0,0.0,0.0,0.0,0.0,0.0,0.0,4.2224,4.2201,0.0,0.0,0.0,0.0,0.0,0.0,4.0709,0.0,0.0,3.9331,3.8738,3.838,3.838,3.7703,3.7824,3.8798,3.8747,3.9503,4.0941,4.0384,4.1184,4.3232,4.3707,4.5159,4.7339,4.8384,4.8961,4.9137,4.9675,4.9185,4.8198,4.8089,4.7742,4.7127,4.5884,4.5454,4.5401,4.4905,4.4668,0.0,0.0,0.0,4.4559,4.445,4.4232,4.3932,4.3326,4.24,4.1549,4.1287,4.1172,4.1172,4.123,4.1047,4.1086,4.1987,4.1923,4.2008,4.2785,4.2936,4.2986,4.2986,4.2986,4.2986,4.2986,4.2986,4.2986,4.2986,4.2986,4.2986,4.2986,4.2986,4.2986,4.2986,4.2986,4.2986,4.2986,4.2986,4.2986,4.2986,4.2986,4.2986,4.2986,4.3129,4.3184,4.3184,4.4042,4.4479,4.4479,4.5422,4.6269,4.7002,4.775,4.8134,4.8134,4.8134,4.8392,4.8869,4.8869,4.9286,4.99,4.99,5.0266,5.08,0.0,0.0,0.0,0.0,0.0,0.0,0.0,0.0,0.0,0.0,0.0,4.2275,0.0,0.0,0.0,4.1994,4.1535,4.1122,4.0846,4.0411,4.0007,3.9505,3.8844,3.8408,3.8141,3.7637,3.7797,3.8564,3.9157,3.998,4.1103,4.2063,4.3028,4.4065,4.5668,4.6925,4.7977,4.9103,4.9586,4.9613,4.9897,4.9678,4.9182,4.8859,4.8563,4.8267,4.7401,4.6863,4.6597,4.6276,4.5982,4.5662,4.5341,0.0,0.0,0.0,4.4613,4.4341,4.3381,4.2625,4.1948,4.1344,4.1172,4.1172,4.1172,4.1118,4.1168,4.1696,4.172,4.1903,4.2824,4.2986,4.2986,4.2986,4.2986,4.2986,4.2986,4.2986,4.2986,4.2986,4.2986,4.2986,4.2986,4.2986,4.2986,4.2986,4.2986,4.2986,4.2986,4.2986,4.2986,4.2986,4.2986,4.2986,4.2986,4.2986,4.2986,4.2986,4.3406,4.3572,4.3628,4.4453,4.5529,4.6846,4.7208,4.7842,4.8588,4.8588,4.9005,4.9567,4.9567,4.9932,5.0519,5.0519,5.0913,5.1393,0.0,0.0,0.0,0.0,0.0,0.0,0.0,0.0,0.0,0.0,0.0,0.0,0.0,0.0,0.0,0.0,4.1994,4.1496,4.093,4.0637,4.0225,3.9688,3.8981,3.8454,3.8077,3.7621,3.7797,3.8564,3.9467,4.0293,4.1166,4.3602,4.4767,4.489,4.7095,4.8268,4.8642,4.9586,5.001,5.001,5.001,5.001,4.9956,4.9521,4.9359,4.9277,4.8625,4.8192,4.7785,4.7649,4.7188,4.6647,4.6196,4.5929,0.0,0.0,0.0,4.4722,4.3713,4.3103,4.2513,4.1745,4.1402,4.1287,4.123,4.1172,4.1287,4.1549,4.1606,4.1834,4.265,4.2818,4.293,4.2986,4.2986,4.2986,4.2986,4.2986,4.2986,4.2986,4.2986,4.2986,4.2986,4.2986,4.2986,4.2986,4.2986,4.2986,4.2986,4.2986,4.2986,4.2986,4.2986,4.2986,4.2986,4.2986,4.2986,4.2986,4.2986,4.2986,4.3042,4.3683,4.4828,4.6407,4.6855,4.7809,4.9009,4.915,4.9623,5.0238,5.0238,5.0632,5.1112,5.1112,5.1393,5.1787,0.0,0.0,0.0,0.0,0.0,0.0,0.0,0.0,0.0,0.0,0.0,4.2275,4.2275,4.2275,4.2275,4.2275,4.2316,4.196,4.1143,4.1057,4.0706,3.9814,3.9037,0.0,3.8586,3.7797,3.7797,3.8564,3.9467,4.0293,4.1166,4.4537,4.6115,4.6175,4.7482,4.8758,4.9897,4.9953,5.001,5.001,5.001,5.001,5.001,4.9983,4.9956,4.9874,4.9304,4.906,4.8952,4.8327,4.7812,4.7377,4.7323,4.6916,4.6482,0.0,0.0,0.0,4.51,4.4206,4.3215,4.2569,4.2004,4.1492,4.123,4.1172,4.1287,4.1549,4.1606,4.172,4.2086,4.2369,4.2625,4.2986,4.2986,4.2986,4.2986,4.2986,4.2986,4.2986,4.2986,4.2986,4.2986,4.2986,4.2986,4.2986,4.2986,4.2986,4.2986,4.2986,4.2986,4.2986,4.2986,4.2986,4.2986,4.2986,4.2986,4.2986,4.2986,4.2986,4.2986,4.3042,4.3853,4.5285,4.7028,4.8249,4.9037,4.9679,5.0322,5.0885,5.0885,5.1197,5.1731,5.1731,5.1759,5.1787,0.0,0.0,0.0,0.0,0.0,0.0,0.0,0.0,0.0,0.0,0.0,0.0,0.0,4.1637,4.1637,4.1637,4.1637,4.1569,4.1261,4.1046,4.0631,4.0015,3.95,3.8938,3.8301,3.8003,3.7828,3.7819,3.8631,3.9898,4.1583,4.2819,4.4819,4.7482,4.8758,4.9586,5.001,5.001,5.001,5.001,5.001,5.001,5.001,5.001,5.001,4.9983,4.9766,4.944,4.9032,4.8815,4.8409,4.7866,4.754,4.7268,4.7024,4.6643,4.6377,4.6034,4.5315,4.4804,4.4206,4.3048,4.2457,4.2061,4.1549,4.1344,4.123,4.1344,4.1344,4.1459,4.1745,4.2029,4.2256,4.2369,4.2594,4.2706,4.2706,4.2874,4.2986,4.2986,4.2986,4.2986,4.2986,4.2986,4.2986,4.2986,4.2986,4.2986,4.2986,4.2986,4.2986,4.2986,4.2986,4.2986,4.2986,4.2986,4.2986,4.2986,4.2986,4.2986,4.2986,4.2986,4.3767,4.5141,4.6202,4.7291,4.8436,4.8653,4.9032,4.9405,4.9405,4.9934,5.0545,5.0545,5.11,5.1787,0.0,0.0,0.0,4.1806,0.0,4.1742,4.1678,4.1421,4.1315,4.1315,0.0,0.0,0.0,0.0,4.1315,4.1315,4.1315,4.1251,4.11,4.0906,4.0644,4.0206,3.9838,3.9316,3.8597,3.8423,3.8266,3.806,3.8636,3.9662,4.1158,4.162,4.3671,4.7056,4.8382,4.9341,5.001,5.001,5.001,5.001,5.001,5.001,5.001,5.001,5.001,5.001,5.001,4.9766,4.9413,4.9413,4.8978,4.8408,4.8083,4.773,4.7323,4.6942,4.6671,4.635,4.5742,4.5422,4.4992,4.3932,4.327,4.2824,4.2319,4.2004,4.1802,4.1802,4.1802,4.1802,4.1777,4.1972,4.211,4.211,4.2256,4.2425,4.2457,4.2681,4.2849,4.2986,4.2986,4.2986,4.2986,4.2986,4.2986,4.2986,4.2986,4.2986,4.2986,4.2986,4.2986,4.2986,4.2986,4.2986,4.2986,4.2986,4.2986,4.2986,4.2986,4.2986,4.2986,4.3162,4.3877,4.5001,4.5565,4.669,4.811,4.8209,4.8413,4.8584,4.8469,4.9019,4.9901,4.9901,5.074,5.1787,4.0062,4.0777,4.1164,4.0841,4.1293,4.1614,4.1293,4.1315,4.1251,4.1251,0.0,0.0,0.0,0.0,0.0,4.1251,4.1251,4.11,4.0841,4.0777,4.0647,4.0344,3.9885,3.9622,3.9622,3.91,3.9026,3.9379,3.9379,3.9566,3.9961,4.1196,4.294,4.5001,4.6315,4.8061,5.001,5.001,5.001,5.001,5.001,5.001,5.001,5.001,5.001,5.001,5.001,5.001,5.001,5.001,4.963,4.9142,4.9142,4.8327,4.7431,4.7404,4.6997,4.6535,0.0,0.0,0.0,4.5207,4.4479,4.3742,4.3492,4.3184,4.2986,4.2986,4.2986,4.2762,4.2224,4.211,4.2054,4.2054,4.211,4.2142,4.2481,4.2513,4.2625,4.2986,4.2986,4.2986,4.2986,4.2986,4.2986,4.2986,4.2986,4.2986,4.2986,4.2986,4.2986,4.2986,4.2986,4.2986,4.2986,4.2986,4.2986,4.2986,4.2986,4.2986,4.3011,4.3564,4.4116,4.4694,4.5246,4.6443,4.805,4.8404,4.8526,4.8469,4.8152,4.8789,4.9845,4.9845,5.0684,5.1787,3.9188,3.9866,4.0517,4.0388,4.0301,4.0431,4.0841,4.0712,4.0604,0.0,0.0,0.0,4.0604,4.0604,4.0604,4.0604,4.0604,4.0539,4.0474,4.0474,4.0409,4.0279,4.0148,3.9972,3.9622,3.9427,3.9075,3.8437,3.8437,3.9132,4.0421,4.0758,4.2874,4.6373,4.6746,4.8061,5.001,5.001,5.001,5.001,5.001,5.001,5.001,5.001,5.001,5.001,5.001,5.001,5.001,5.001,4.9901,4.9684,4.9277,4.8599,4.792,4.754,4.7295,4.7078,4.6643,0.0,0.0,0.0,0.0,0.0,4.3878,4.3103,4.2681,4.2986,4.2312,4.1802,4.2054,4.1769,4.1483,4.1483,4.1631,4.1859,4.2142,4.2369,4.2625,4.2986,4.2986,4.2986,4.2986,4.2986,4.2986,4.2986,4.2986,4.2986,4.2986,4.2986,4.2986,4.2986,4.2986,4.2986,4.2986,4.2986,4.2986,4.2986,4.2986,4.3187,4.3589,4.374,4.4342,4.5246,4.5422,4.5876,4.6467,4.656,4.6456,4.619,4.5828,4.6858,4.8616,4.8616,4.9928,5.1677,3.815,3.8859,3.9713,4.0105,4.0603,4.1203,4.212,4.231,4.2374,0.0,0.0,0.0,4.2374,4.2374,4.2056,4.1377,4.1312,4.1013,4.0344,4.0279,4.0279,4.0279,4.0279,4.0148,3.9929,3.9907,3.9384,3.8401,3.8401,3.8675,3.9317,4.0158,4.2372,4.561,4.6501,4.8061,5.001,5.001,5.001,5.001,5.001,5.001,5.001,5.001,5.001,5.001,5.001,5.001,5.001,5.001,5.001,4.9956,4.9603,4.9032,4.849,4.8192,4.7758,4.7323,4.6997,4.6725,4.643,4.6034,0.0,0.0,4.4696,4.4042,4.3572,4.3432,4.2818,4.2312,4.211,4.1826,4.1459,4.123,4.1344,4.1573,4.1859,4.2142,4.2425,4.2737,4.293,4.2986,4.2986,4.2986,4.2986,4.2986,4.2986,4.2986,4.2986,4.2986,4.2986,4.2986,4.2986,4.2986,4.2986,4.2986,4.2986,4.2986,4.2986,4.3263,4.3815,4.4041,4.4644,4.5497,4.5723,4.582,4.5757,4.5635,4.5392,4.5086,4.4717,4.5707,4.7331,4.7331,4.8558,5.0154,0.0,3.8395,3.9364,4.0387,4.1693,4.302,4.4141,4.4756,4.5122,0.0,4.5183,4.5183,4.5183,4.5183,4.451,4.2832,4.2706,4.2034,4.0409,4.0279,4.0279,4.0279,4.0279,4.0279,4.0279,4.0279,3.9842,3.8925,3.8797,3.8357,3.7583,3.9873,4.1981,4.3853,4.6193,4.8254,5.001,5.001,5.001,5.001,5.001,5.001,5.001,5.001,5.001,5.001,5.001,5.001,5.001,5.001,5.001,5.001,5.001,4.9657,4.9223,4.9142,4.8382,4.7594,4.754,4.7025,4.6564,4.6564,4.6299,0.0,4.5609,4.5341,4.491,4.4174,4.3874,4.3462,4.2506,4.2224,4.194,4.1402,4.123,4.1287,4.1549,4.1915,4.2199,4.2457,4.2818,4.2986,4.2986,4.2986,4.2986,4.2986,4.2986,4.2986,4.2986,4.2986,4.2986,4.2986,4.2986,4.2986,4.2986,4.2986,4.2986,4.2986,4.3037,4.3363,4.3915,4.4468,4.5045,4.5598,4.61,4.6059,4.5696,4.5453,4.5086,4.4779,4.4409,4.5098,4.6225,4.6225,4.6976,4.8094,4.0924,4.1181,4.1756,4.2517,4.2454,4.2895,4.4756,4.4633,4.4572,4.5122,4.5183,4.5183,4.5183,4.5183,4.451,4.2832,4.2706,4.2034,4.0409,4.0279,4.0279,4.0279,4.0279,4.0279,4.0279,4.0279,3.9995,3.9469,3.9012,3.8678,3.8415,4.1615,4.3438,4.4253,4.781,4.9592,5.001,5.001,5.001,5.001,5.001,5.001,5.001,5.001,5.001,5.001,5.001,5.001,5.001,5.001,5.001,5.001,5.001,4.9928,4.9739,4.9277,4.8952,4.868,4.8192,4.7649,4.7188,4.6894,4.641,0.0,4.5395,4.4856,4.4476,4.4531,4.3793,4.3265,4.3513,4.2762,4.2054,4.194,4.1541,4.1287,4.1549,4.1915,4.2199,4.2457,4.2818,4.2986,4.2986,4.2986,4.2986,4.2986,4.2986,4.2986,4.2986,4.2986,4.2986,4.2986,4.2986,4.2986,4.2986,4.2986,4.2986,4.2986,4.3438,4.394,4.4493,4.507,4.5623,4.615,4.625,4.5939,4.5392,4.5331,4.5086,4.4779,4.4409,4.5098,4.6225,4.6225,4.6976,4.7977,4.1565,4.1756,4.2264,4.3271,4.3583,4.4264,4.5935,4.6475,4.6773,4.7129,4.7424,4.76,4.76,4.76,4.6925,4.528,4.5134,4.4486,4.2855,4.273,4.2374,4.1546,4.1482,4.1119,4.0344,4.0279,4.0039,3.9622,4.0159,4.0253,4.0022,4.3625,4.536,4.5668,4.8646,5.001,5.001,4.984,4.9783,4.9783,4.9783,4.9783,4.9783,4.9613,4.9556,4.9556,4.9727,4.9897,5.001,5.001,4.9897,4.984,4.9953,4.9897,4.9729,4.9432,4.9135,4.8838,4.8541,4.7918,4.727,4.6975,4.6572,0.0,0.0,4.5072,4.4856,4.4367,4.4094,4.3738,4.3487,4.3098,4.2706,4.2594,4.2029,4.1688,4.1859,4.1972,4.2086,4.2061,4.2625,4.2905,4.2762,4.293,4.2986,4.2986,4.2986,4.2986,4.2986,4.2986,4.2986,4.2986,4.2986,4.2986,4.2986,4.2986,4.3112,4.3388,4.3664,4.4242,4.507,4.5347,4.5799,4.6301,4.6301,4.5939,4.5331,4.5331,4.5025,4.4532,4.4347,4.4693,4.522,4.522,4.582,4.6506,4.2264,4.2391,4.2958,4.4141,4.4964,4.5839,4.7205,4.8146,4.8842,4.9072,4.9613,5.001,5.001,5.001,4.9358,4.7717,4.76,4.6925,4.5305,4.5183,4.4572,4.3247,4.3185,4.2603,4.1271,4.1271,4.1069,4.0666,4.1885,4.2282,4.2063,4.533,4.6918,4.7059,4.909,5.001,4.9953,4.9727,4.9613,4.967,4.9499,4.9469,4.9469,4.9183,4.9125,4.9125,4.9412,4.9613,4.984,4.984,4.967,4.9556,4.9727,4.967,4.9499,4.9499,4.9177,4.8801,4.8801,4.8148,4.7393,4.7133,4.6837,4.6351,0.0,0.0,0.0,4.4284,4.4422,4.4396,4.3517,4.3295,4.3265,4.3168,4.2443,4.1964,4.2062,4.2046,4.1915,4.1606,4.2344,4.2762,4.2513,4.2818,4.2986,4.2986,4.2986,4.2986,4.2986,4.2986,4.2986,4.2986,4.2986,4.2986,4.2986,4.2986,4.3263,4.379,4.3915,4.4493,4.5497,4.5598,4.5899,4.6301,4.6301,4.5939,4.5392,4.5331,4.4963,4.4409,4.4347,4.4285,4.4285,4.4285,4.4621,4.5077,4.5732,4.5732,4.5949,4.6645,4.6431,4.6576,4.788,4.7677,4.7854,4.8957,4.9613,5.001,5.001,5.001,4.9358,4.7717,4.76,4.6925,4.5305,4.5183,4.5122,4.4939,4.4939,4.4817,4.4633,4.4633,4.4609,4.4536,4.4292,4.4263,4.4536,4.6115,4.7033,4.7314,4.9204,5.001,4.9953,4.9727,4.9727,4.9897,4.9125,4.8952,4.9125,4.9125,4.9125,4.9125,4.9125,4.9183,4.9183,4.9183,4.9183,4.9183,4.9183,4.9183,4.9183,4.9183,4.9129,4.9076,4.9076,4.8566,4.803,4.7751,4.7242,4.6602,4.5773,0.0,4.543,4.4744,0.0,4.4668,4.4505,0.0,0.0,4.3614,4.2348,4.1456,4.1938,4.1807,4.1663,4.1606,4.1972,4.2256,4.2457,4.2818,4.2986,4.2986,4.2986,4.2986,4.2986,4.2986,4.2986,4.2986,4.2986,4.2986,4.2986,4.2986,4.3263,4.3815,4.4292,4.4869,4.5497,4.5999,4.625,4.6301,4.6301,4.6059,4.5696,4.5453,4.5086,4.4717,4.4409,4.4285,4.4285,4.4285,4.4621,4.5077,4.6301,4.6301,4.6361,4.6636,4.6481,4.6481,4.7019,4.7172,4.7501,4.8463,4.8811,4.9098,4.9415,4.9472,4.9186,4.8526,4.8469,4.8152,4.7508,4.7424,4.7188,4.6628,4.6569,4.615,4.5183,4.5,4.5147,4.5687,4.587,4.6307,4.6993,4.8174,4.8729,4.8869,4.9675,5.001,4.9953,4.9727,4.967,4.9727,4.9183,4.8895,4.8837,4.8663,4.8779,4.9125,4.9125,4.924,4.9354,4.9183,4.901,4.8895,4.9068,4.901,4.8837,4.8837,4.8837,4.8837,4.8837,4.8279,4.7644,4.7788,4.7184,4.6529,4.6182,4.5957,4.5724,4.5297,0.0,0.0,0.0,0.0,0.0,0.0,4.2831,4.2273,4.2266,4.1867,4.1549,4.1402,4.1802,4.2199,4.2457,4.2818,4.2986,4.2986,4.2986,4.2986,4.2986,4.2986,4.2986,4.2986,4.2986,4.2986,4.2986,4.3288,4.374,4.4292,4.4844,4.5422,4.5974,4.62,4.6301,4.6301,4.6301,4.612,4.5757,4.5453,4.5086,4.4779,4.4409,4.4285,4.4285,4.4285,4.4813,4.5534,4.6301,4.6301,4.6301,4.6301,4.6301,4.6301,4.6301,4.6815,4.7383,4.788,4.8055,4.8347,4.8784,4.8842,4.8842,4.8842,4.8842,4.8842,4.8842,4.9014,4.87,4.7802,4.8094,4.76,4.6295,4.6361,4.6673,4.7354,4.7895,4.8512,4.9167,4.9741,5.001,5.001,5.001,5.001,4.9953,4.9727,4.9613,4.967,4.924,4.8952,4.8779,4.8489,4.8663,4.9125,4.9125,4.924,4.9412,4.9125,4.8837,4.8721,4.8837,4.8721,4.8548,4.8431,4.8431,4.8431,4.8548,4.7938,4.7457,4.7937,4.7456,4.6837,4.6725,4.6563,4.6225,4.5689,4.5599,0.0,0.0,0.0,4.4229,4.3806,0.0,4.27,4.2623,4.2046,4.1492,4.123,4.1631,4.2029,4.2231,4.2594,4.2762,4.2874,4.2874,4.293,4.2986,4.2986,4.2986,4.2986,4.2986,4.2986,4.2986,4.3514,4.4091,4.4644,4.5221,4.5773,4.6301,4.6301,4.6301,4.6301,4.6301,4.618,4.5878,4.5453,4.5147,4.4902,4.447,4.4285,4.4285,4.4285,4.4861,4.5718,4.6301,4.6301,4.6301,4.6301,4.6301,4.6301,4.6301,4.6815,4.7205,4.7205,4.7821,4.8172,4.823,4.823,4.823,4.823,4.823,4.823,4.823,4.8784,4.8842,4.823,4.9328,4.9613,4.9014,5.0094,5.0678,5.0763,5.0763,5.0821,5.0821,5.0281,5.001,5.001,5.001,5.001,4.9953,4.9727,4.9727,4.9953,4.9354,4.9068,4.9068,4.8779,4.8837,4.9125,4.9125,4.9125,4.9068,4.8779,4.8721,4.8606,4.8315,4.823,4.8114,4.7821,4.7762,4.7821,4.8114,4.7938,4.7821,4.8521,4.8405,4.8015,4.744,4.7283,4.697,4.5846,4.5611,4.5538,4.5232,4.4232,4.367,4.4428,4.32,0.0,0.0,4.2119,4.1492,4.123,4.1459,4.1606,4.1606,4.1915,4.2256,4.2538,4.2513,4.2625,4.2986,4.2986,4.2986,4.2986,4.2986,4.2986,4.2986,4.3514,4.4091,4.4644,4.5221,4.5773,4.6301,4.6301,4.6301,4.6301,4.6301,4.6301,4.624,4.5574,4.527,4.5208,4.4532,4.4285,4.4285,4.4285,4.4621,4.5173,4.6301,4.6301,4.6301,4.6301,4.6301,4.6301,4.6301,4.6481,4.6576,4.6576,4.678,4.7112,4.7501,4.756,4.756,4.756,4.756,4.7741,4.8128,4.8332,4.8666,4.9236,4.9653,4.9772,4.9534,5.0221,5.0869,5.1421,5.0905,5.0949,5.1502,5.0471,4.9897,4.9727,4.9897,4.9897,4.9727,4.984,4.9897,4.9953,4.9098,4.9156,4.967,4.9412,4.9354,4.9469,4.9469,4.9469,4.9412,4.9068,4.8952,4.8952,4.8837,4.8521,4.8198,4.8055,4.7703,4.7383,4.729,4.6874,4.6576,4.729,4.7172,4.6942,4.7,4.6843,4.6483,4.561,4.5342,4.4908,4.3866,4.3852,4.3745,4.3062,4.2806,4.2644,0.0,4.2265,4.1802,4.1492,4.1549,4.1606,4.1606,4.2061,4.2425,4.2457,4.2706,4.2874,4.2961,4.2986,4.2986,4.2986,4.2986,4.3162,4.3514,4.4066,4.4644,4.5196,4.5773,4.6125,4.6301,4.6301,4.6301,4.6301,4.6301,4.6301,4.624,4.5817,4.5635,4.5574,4.5147,4.484,4.4594,4.4409,4.4621,4.5101,4.6878,4.6878,4.6753,4.6376,4.6301,4.6301,4.6301,4.6301,4.6376,4.6577,4.6602,4.6773,4.7374,4.7434,4.7434,4.7434,4.7434,4.7612,4.7968,4.8263,4.8599,4.9081,4.9594,4.9716,4.9473,5.0167,5.0714,5.1054,5.0552,5.058,5.1125,5.0128,4.9613,4.9442,4.984,4.9783,4.9442,4.9613,4.9783,4.9953,4.9098,4.9041,4.9328,4.9156,4.9213,4.9442,4.9442,4.927,4.9041,4.8695,4.8579,4.8579,4.8463,4.8172,4.7821,4.7729,4.7409,4.7053,4.6968,4.6576,4.6301,4.6815,4.6695,4.6516,4.6755,4.6654,4.6348,4.5733,4.5522,4.515,4.4019,4.3998,4.386,0.0,0.0,4.2737,0.0,4.2369,4.2086,4.1663,4.1606,4.1606,4.1606,4.1948,4.2287,4.2457,4.2681,4.2849,4.2986,4.2986,4.2986,4.2986,4.3162,4.3438,4.379,4.4543,4.5121,4.5497,4.605,4.6301,4.6301,4.6301,4.6301,4.6301,4.6301,4.6301,4.624,4.5939,4.5817,4.5757,4.5453,4.5147,4.4963,4.4594,4.4746,4.5053,4.7908,4.7908,4.7581,4.6577,4.6376,4.6376,4.6376,4.6376,4.6577,4.7043,4.7179,4.7355,4.7857,4.7908,4.7908,4.7908,4.7908,4.7908,4.7958,4.8517,4.8604,4.7983,4.9122,4.9489,4.8938,5.0069,5.0463,4.9915,4.9923,4.9909,4.9946,4.9365,4.9072,4.9072,4.967,4.9586,4.9014,4.9072,4.9358,4.984,4.9244,4.8669,4.8172,4.8172,4.8521,4.9014,4.9014,4.8695,4.8114,4.7821,4.7703,4.7677,4.7324,4.7205,4.7146,4.69,4.6806,4.684,4.7053,4.6934,4.678,4.7087,4.6909,4.6755,4.6755,4.6755,4.6603,4.5952,4.6086,4.6167,4.5496,4.4503,4.3979,0.0,0.0,4.2562,4.2513,4.2513,4.2287,4.172,4.1663,4.1606,4.1606,4.1606,4.1834,4.2457,4.2538,4.2625,4.2986,4.2986,4.2986,4.3011,4.3539,4.384,4.389,4.4945,4.5497,4.5547,4.6075,4.6301,4.6301,4.6301,4.6301,4.6301,4.6301,4.6301,4.624,4.5939,4.5817,4.5757,4.5453,4.5331,4.527,4.4902,4.4908,4.502,4.7908,4.7908,4.7832,4.7556,4.7506,4.7506,4.7506,4.7506,4.7556,4.7682,4.7707,4.7757,4.7883,4.7908,4.7908,4.7908,4.7908,4.8083,4.851,4.875,4.8926,4.9138,4.9482,4.9609,4.9418,5.018,5.0558,5.0404,5.0071,4.9939,4.9876,4.8878,4.8289,4.8088,4.8463,4.8463,4.8088,4.8347,4.8521,4.8579,4.7971,4.7854,4.8114,4.7619,4.756,4.7736,4.8289,4.8347,4.8172,4.8114,4.8055,4.8055,4.7997,4.756,4.7205,4.7087,4.678,4.6361,4.624,4.612,4.6059,4.618,4.6301,4.6361,4.612,4.6059,4.5889,4.5195,4.517,4.4998,4.4192,4.4175,4.4249,4.397,4.3679,4.3325,4.2925,4.2849,4.265,4.2029,4.2142,4.2004,4.1344,4.1688,4.2029,4.2199,4.265,4.293,4.2986,4.2986,4.3162,4.3589,4.374,4.4217,4.5045,4.5347,4.5698,4.61,4.625,4.6301,4.6301,4.6301,4.6301,4.6301,4.6301,4.6301,4.6301,4.618,4.618,4.618,4.6059,4.5878,4.5574,4.5025,4.4999,4.5134,4.8636,4.8636,4.8636,4.8636,4.8636,4.8485,4.7983,4.7908,4.8008,4.8259,4.8284,4.8385,4.8611,4.8636,4.8636,4.8636,4.8636,4.8786,4.9113,4.9138,4.9264,4.959,4.959,4.959,4.959,4.9976,5.0041,4.9787,4.9271,4.9074,4.9084,4.8177,4.7619,4.7501,4.7997,4.7938,4.7501,4.7997,4.7906,4.7375,4.7265,4.729,0.0,4.6934,4.6815,4.6874,4.7231,4.7375,4.7375,4.7375,4.7375,4.7375,4.7375,4.7112,4.6815,4.6815,4.6601,4.624,4.6059,4.5999,4.5999,4.5817,4.5939,4.5999,4.5817,4.5817,4.5696,4.5331,4.5331,4.5232,4.461,4.4486,4.4323,4.3806,4.3648,4.3519,4.3388,4.3137,4.2762,4.2167,4.2199,4.2029,4.1287,4.1859,4.2199,4.211,4.2538,4.2918,4.3169,4.3169,4.3475,4.4141,4.4418,4.4844,4.5472,4.5723,4.5999,4.6301,4.6301,4.6301,4.6301,4.6301,4.6301,4.6301,4.6301,4.6301,4.6301,4.6301,4.6301,4.6301,4.6301,4.618,4.5939,4.5453,4.527,4.527,4.959,4.959,4.959,4.959,4.959,4.9264,4.8284,4.8134,4.8309,4.8812,4.8887,4.9063,4.954,4.959,4.959,4.959,4.959,4.959,4.959,4.959,4.959,4.959,4.959,4.959,4.959,4.959,4.9364,4.8887,4.8234,4.7966,4.8058,4.7394,4.7087,4.7087,4.7703,4.7645,4.7087,4.7703,4.729,4.6361,4.6874,4.6755,4.6301,4.6301,4.6301,4.6301,4.6301,4.6301,4.6301,4.6301,4.6301,4.6301,4.6301,4.6301,4.6301,4.6301,4.6301,4.6301,4.6301,4.6301,4.624,4.5939,4.5878,4.5878,4.5878,4.5817,4.5817,4.5817,4.5999,4.6059,4.5757,4.5154,4.4481,4.3905,4.3705,4.3647,4.3801,4.3489,4.2937,4.2209,4.2209,0.0,4.135,4.194,4.2312,4.2029,4.2386,4.2804,4.3358,4.3432,4.3904,4.4661,4.5221,4.5522,4.5598,4.6075,4.6301,4.6301,4.6301,4.6301,4.6301,4.6301,4.6301,4.6301,4.6301,4.6301,4.6301,4.6301,4.6301,4.6301,4.6301,4.6301,4.624,4.5939,4.5696,4.5392,4.959,4.959,4.959,4.959,4.959,4.9515,4.9339,4.9289,4.9339,4.9439,4.9439,4.949,4.959,4.959,4.959,4.959,4.959,4.959,4.959,4.959,4.959,4.959,4.959,4.959,4.959,4.959,4.954,4.9439,4.841,4.792,4.7918,4.6935,4.6481,4.6481,4.6601,4.6541,4.6481,4.6601,4.6481,4.6301,4.6421,4.6361,4.6301,4.6301,4.6301,4.6301,4.6301,4.6301,4.6301,4.6301,4.6301,4.6301,4.6301,4.6301,4.6301,4.6301,4.6301,4.6301,4.6301,4.6301,4.6301,4.624,4.618,4.618,4.618,4.5999,4.5817,4.5817,4.5635,4.5453,4.5392,4.55,4.5314,4.447,4.4774,4.4844,4.422,4.4244,4.3821,4.2485,4.2807,4.2832,4.1962,4.1816,4.172,4.1663,4.2389,4.2971,4.3382,4.3805,4.4477,4.5321,4.5422,4.5698,4.6175,4.625,4.6301,4.6301,4.6301,4.6301,4.6301,4.6301,4.6301,4.6301,4.6301,4.6301,4.6301,4.6301,4.6301,4.6301,4.6301,4.6301,4.6301,4.624,4.618,4.6059,4.959,4.959,4.959,4.959,4.959,4.959,4.959,4.959,4.959,4.959,4.959,4.959,4.959,4.959,4.959,4.959,4.959,4.959,4.959,4.959,4.959,4.959,4.959,4.959,4.959,4.959,4.959,4.959,4.8761,4.8209,4.7883,4.7104,4.6577,4.6301,4.6301,4.6301,4.6301,4.6301,4.6301,4.6301,4.6301,4.6301,4.6301,4.6301,4.6301,4.6301,4.6301,4.6301,4.6301,4.6301,4.6301,4.6301,4.6301,4.6301,4.6301,4.6301,4.6301,4.6301,4.6301,4.6301,4.6301,4.6301,4.6301,4.6301,4.6301,4.618,4.6059,4.6059,4.5939,4.5757,4.5574,4.5696,4.5682,4.5228,4.5196,4.516,4.4886,4.4586,4.4136,4.3398,4.349,4.3315,4.2646,4.2521,4.2433,4.2433,4.2993,4.3555,4.4202,4.4476,4.4992,4.5899,4.5924,4.605,4.6301,4.6301,4.6301,4.6301,4.6301,4.6301,4.6301,4.6301,4.6301,4.6301,4.6301,4.6301,4.6301,4.6301,4.6301,4.6301,4.6301,4.6301,4.6301,4.6301,4.6301,4.624,4.959,4.959,4.959,4.959,4.959,4.959,4.959,4.959,4.959,4.959,4.959,4.959,4.959,4.959,4.959,4.959,4.959,4.959,4.959,4.959,4.959,4.959,4.959,4.959,4.959,4.959,4.959,4.959,4.9038,4.8535,4.8083,4.7556,4.7054,4.6627,4.6401,4.6376,4.6476,4.6351,4.6301,4.6301,4.6301,4.6301,4.6301,4.6301,4.6301,4.6301,4.6301,4.6301,4.6301,4.6301,4.6301,4.6301,4.6301,4.6301,4.6301,4.6301,4.6301,4.6301,4.6301,4.6301,4.6301,4.6301,4.6301,4.6301,4.6301,4.6301,4.6301,4.6301,4.6301,4.618,4.5878,4.5878,4.5878,4.5817,4.553,4.535,4.5554,4.506,4.4559,4.4318,4.4116,4.3821,4.3476,4.3417,4.3465,4.3647,4.3692,4.4136,4.4973,4.5122,4.549,4.6301,4.6301,4.6301,4.6301,4.6301,4.6301,4.6301,4.6301,4.6301,4.6301,4.6301,4.6301,4.6301,4.6301,4.6301,4.6301,4.6301,4.6301,4.6301,4.6301,4.6301,4.6301,4.6301,4.6301,4.6301,4.959,4.959,4.959,4.959,4.959,4.959,4.959,4.959,4.959,4.959,4.959,4.959,4.959,4.959,4.959,4.959,4.959,4.959,4.959,4.959,4.959,4.959,4.959,4.959,4.959,4.959,4.959,4.959,4.9038,4.8736,4.8686,4.8109,4.7807,4.7707,4.6753,4.6602,4.6968,4.6527,4.6301,4.6301,4.6301,4.6301,4.6301,4.6301,4.6301,4.6301,4.6301,4.6301,4.6301,4.6301,4.6301,4.6301,4.6301,4.6301,4.6301,4.6301,4.6301,4.6301,4.6301,4.6301,4.6301,4.6301,4.6301,4.6301,4.6301,4.6301,4.6301,4.6301,4.6301,4.618,4.5878,4.6059,4.612,4.5817,4.601,4.6105,4.5803,4.5935,4.571,4.459,4.472,4.4744,4.4396,4.4097,4.4256,4.5012,4.439,4.4266,4.4938,4.547,4.5889,4.6301,4.6301,4.6301,4.6301,4.6301,4.6301,4.6301,4.6301,4.6301,4.6301,4.6301,4.6301,4.6301,4.6301,4.6301,4.6301,4.6301,4.6301,4.6301,4.6301,4.6301,4.6301,4.6301,4.6301,4.6301,4.959,4.959,4.959,4.959,4.959,4.959,4.959,4.959,4.959,4.959,4.959,4.959,4.959,4.959,4.959,4.959,4.959,4.959,4.959,4.959,4.959,4.959,4.959,4.959,4.959,4.959,4.959,4.959,4.9364,4.9088,4.8761,4.8535,4.8234,4.7883,4.7456,4.738,4.7581,4.7355,4.7079,4.6803,4.6803,4.6602,4.6301,4.6301,4.6301,4.6301,4.6301,4.6301,4.6301,4.6301,4.6301,4.6301,4.6301,4.6301,4.6301,4.6301,4.6301,4.6301,4.6301,4.6301,4.6301,4.6301,4.6301,4.6301,4.6301,4.6301,4.6301,4.6301,4.6301,4.624,4.612,4.618,4.6266,4.612,4.618,4.624,4.612,4.6059,4.5924,4.5615,4.5555,4.5434,4.5289,4.5168,4.5146,4.5306,4.4805,4.4744,4.5434,4.5693,4.5939,4.6301,4.6301,4.6301,4.6301,4.6301,4.6301,4.6301,4.6301,4.6301,4.6301,4.6301,4.6301,4.6301,4.6301,4.6301,4.6301,4.6301,4.6301,4.6301,4.6301,4.6301,4.6301,4.6301,4.6301,4.6301,4.959,4.959,4.959,4.959,4.959,4.959,4.959,4.959,4.959,4.959,4.959,4.959,4.959,4.959,4.959,4.959,4.959,4.959,4.959,4.959,4.959,4.959,4.959,4.959,4.959,4.959,4.959,4.959,4.959,4.9389,4.9012,4.8837,4.8636,4.8385,4.8058,4.8008,4.8159,4.7983,4.7682,4.7355,4.7355,4.7029,4.6552,4.6552,4.6451,4.6301,4.6301,4.6301,4.6301,4.6301,4.6301,4.6301,4.6301,4.6301,4.6301,4.6301,4.6301,4.6301,4.6301,4.6301,4.6301,4.6301,4.6301,4.6301,4.6301,4.6301,4.6301,4.6301,4.6301,4.6301,4.6301,4.6301,4.6301,4.6301,4.6301,4.6301,4.6301,4.612,4.5999,4.624,4.6059,4.5939,4.5939,4.5878,4.5696,4.5453,4.5147,4.5208,4.5757,4.5878,4.6059,4.6301,4.6301,4.6301,4.6301,4.6301,4.6301,4.6301,4.6301,4.6301,4.6301,4.6301,4.6301,4.6301,4.6301,4.6301,4.6301,4.6301,4.6301,4.6301,4.6301,4.6301,4.6301,4.6301,4.6301,4.6301,4.959,4.959,4.959,4.959,4.959,4.959,4.959,4.959,4.959,4.959,4.959,4.959,4.959,4.959,4.959,4.959,4.959,4.959,4.959,4.959,4.959,4.959,4.959,4.959,4.959,4.959,4.959,4.959,4.959,4.959,4.9565,4.9038,4.9063,4.9515,4.841,4.8234,4.8711,4.8159,4.7908,4.7908,4.7908,4.7581,4.7068,4.7068,4.6778,4.6301,4.6301,4.6301,4.6301,4.6301,4.6301,4.6301,4.6301,4.6301,4.6301,4.6301,4.6301,4.6301,4.6301,4.6301,4.6301,4.6301,4.6301,4.6301,4.6301,4.6301,4.6301,4.6301,4.6301,4.6301,4.6301,4.6301,4.6301,4.6301,4.6301,4.6301,4.6301,4.6301,4.6301,4.6301,4.6301,4.6301,4.6301,4.5999,4.5817,4.5817,4.5514,4.5453,4.5757,4.612,4.6301,4.6301,4.6301,4.6301,4.6301,4.6301,4.6301,4.6301,4.6301,4.6301,4.6301,4.6301,4.6301,4.6301,4.6301,4.6301,4.6301,4.6301,4.6301,4.6301,4.6301,4.6301,4.6301,4.6301,4.6301,4.6301,4.959,4.959,4.959,4.959,4.959,4.959,4.959,4.959,4.959,4.959,4.959,4.959,4.959,4.959,4.959,4.959,4.959,4.959,4.959,4.959,4.959,4.959,4.959,4.959,4.959,4.959,4.959,4.959,4.959,4.959,4.959,4.9414,4.9439,4.9565,4.9213,4.9163,4.9314,4.9138,4.8837,4.8485,4.8485,4.8159,4.7657,4.7657,4.733,4.6878,4.6878,4.6627,4.6301,4.6301,4.6301,4.6301,4.6301,4.6301,4.6301,4.6301,4.6301,4.6301,4.6301,4.6301,4.6301,4.6301,4.6301,4.6301,4.6301,4.6301,4.6301,4.6301,4.6301,4.6301,4.6301,4.6301,4.6301,4.6301,4.6301,4.6301,4.6301,4.6301,4.6301,4.6301,4.6301,4.6301,4.6301,4.618,4.6059,4.5817,4.5878,4.5939,4.5817,4.5878,4.6059,4.6301,4.6301,4.6301,4.6301,4.6301,4.6301,4.6301,4.6301,4.6301,4.6301,4.6301,4.6301,4.6301,4.6301,4.6301,4.6301,4.6301,4.6301,4.6301,4.6301,4.6301,4.6301,4.6301,4.6301,4.6301,4.959,4.959,4.959,4.959,4.959,4.959,4.959,4.959,4.959,4.959,4.959,4.959,4.959,4.959,4.959,4.959,4.959,4.959,4.959,4.959,4.959,4.959,4.959,4.959,4.959,4.959,4.959,4.959,4.959,4.959,4.959,4.959,4.959,4.959,4.959,4.959,4.959,4.959,4.9389,4.9088,4.9088,4.8736,4.8234,4.8234,4.7908,4.7431,4.7431,4.7079,4.6627,4.6627,4.6476,4.6301,4.6301,4.618,4.612,4.624,4.6301,4.6301,4.6301,4.6301,4.6301,4.6301,4.6301,4.6301,4.6301,4.6301,4.6301,4.6301,4.6301,4.6301,4.6301,4.6301,4.6301,4.6301,4.6301,4.6301,4.6301,4.6301,4.6301,4.6301,4.6301,4.6301,4.6301,4.6301,4.618,4.5999,4.618,4.618,4.5999,4.5999,4.6059,4.6301,4.6301,4.6301,4.6301,4.6301,4.6301,4.6301,4.6301,4.6301,4.6301,4.6301,4.6301,4.6301,4.6301,4.6301,4.6301,4.6301,4.6301,4.6301,4.6301,4.6301,4.6301,4.6301,4.6301,4.6301,4.959,4.959,4.959,4.959,4.959,4.959,4.959,4.959,4.959,4.959,4.959,4.959,4.959,4.959,4.959,4.959,4.959,4.959,4.959,4.959,4.959,4.959,4.959,4.959,4.959,4.959,4.959,4.959,4.959,4.959,4.959,4.959,4.959,4.959,4.959,4.959,4.959,4.959,4.959,4.959,4.959,4.9289,4.8837,4.8837,4.846,4.7958,4.7958,4.7631,4.7118,4.7093,4.6803,4.6351,4.6326,4.6059,4.5878,4.618,4.624,4.624,4.624,4.624,4.624,4.624,4.6301,4.6301,4.6301,4.6301,4.6301,4.6301,4.6301,4.6301,4.6301,4.6301,4.6301,4.6301,4.6301,4.6301,4.6301,4.6301,4.6301,4.6301,4.6301,4.6301,4.6301,4.6301,4.6301,4.6301,4.6301,4.6301,4.6301,4.6301,4.6301,4.6301,4.6301,4.6301,4.6301,4.6301,4.6301,4.6301,4.6301,4.6301,4.6301,4.6301,4.6301,4.6301,4.6301,4.6301,4.6301,4.6301,4.6301,4.6301,4.6301,4.6301,4.6301,4.6301,4.6301,4.6301,4.959,4.959,4.959,4.959,4.959,4.959,4.959,4.959,4.959,4.959,4.959,4.959,4.959,4.959,4.959,4.959,4.959,4.959,4.959,4.959,4.959,4.959,4.959,4.959,4.959,4.959,4.959,4.959,4.959,4.959,4.959,4.959,4.959,4.959,4.959,4.959,4.959,4.959,4.959,4.959,4.959,4.9515,4.9389,4.9389,4.9063,4.856,4.856,4.8209,4.7657,4.728,4.7054,4.6853,4.6451,4.624,4.612,4.5939,4.5757,4.5514,4.5514,4.5514,4.5574,4.5817,4.612,4.6301,4.6301,4.6301,4.6301,4.6301,4.6301,4.6301,4.6301,4.6301,4.6301,4.6301,4.6301,4.6301,4.6301,4.6301,4.6301,4.6301,4.6301,4.6301,4.6301,4.6301,4.6301,4.6301,4.6301,4.6301,4.6301,4.6301,4.6301,4.6301,4.6301,4.6301,4.6301,4.6301,4.6301,4.6301,4.6301,4.6301,4.6301,4.6301,4.6301,4.6301,4.6301,4.6301,4.6301,4.6301,4.6301,4.6301,4.6301,4.6301,4.6301,4.6301,4.6301,4.6301,4.959,4.959,4.959,4.959,4.959,4.959,4.959,4.959,4.959,4.959,4.959,4.959,4.959,4.959,4.959,4.959,4.959,4.959,4.959,4.959,4.959,4.959,4.959,4.959,4.959,4.959,4.959,4.959,4.959,4.959,4.959,4.959,4.959,4.959,4.959,4.959,4.959,4.959,4.959,4.959,4.959,4.959,4.959,4.959,4.9414,4.9163,4.9163,4.8786,4.8259,4.7983,4.7707,4.738,4.6853,4.6556,4.6323,4.5953,4.5696,4.5514,4.5331,4.5331,4.5331,4.5514,4.5817,4.6059,4.6059,4.618,4.6301,4.6301,4.6301,4.6301,4.6301,4.6301,4.6301,4.6301,4.6301,4.6301,4.6301,4.6301,4.6301,4.6301,4.6301,4.6301,4.6301,4.6301,4.6301,4.6301,4.6301,4.6301,4.6301,4.6301,4.6301,4.6301,4.6301,4.6301,4.6301,4.6301,4.6301,4.6301,4.6301,4.6301,4.6301,4.6301,4.6301,4.6301,4.6301,4.6301,4.6301,4.6301,4.6301,4.6301,4.6301,4.6301,4.6301,4.6301,4.6476,4.6702,4.959,4.959,4.959,4.959,4.959,4.959,4.959,4.959,4.959,4.959,4.959,4.959,4.959,4.959,4.959,4.959,4.959,4.959,4.959,4.959,4.959,4.959,4.959,4.959,4.959,4.959,4.959,4.959,4.959,4.959,4.959,4.959,4.959,4.959,4.959,4.959,4.959,4.959,4.959,4.959,4.959,4.959,4.959,4.959,4.959,4.959,4.959,4.9289,4.8887,4.8786,4.8435,4.7933,4.7405,4.7009,4.6724,4.619,4.6005,4.5858,4.538,4.5208,4.527,4.527,4.5574,4.5817,4.5878,4.612,4.6301,4.6301,4.6301,4.6301,4.6301,4.6301,4.6301,4.6301,4.6301,4.6301,4.6301,4.6301,4.6301,4.6301,4.6301,4.6301,4.6301,4.6301,4.6301,4.6301,4.6301,4.6301,4.6301,4.6301,4.6301,4.6301,4.6301,4.6301,4.6301,4.6301,4.6301,4.6301,4.6301,4.6301,4.6301,4.6301,4.6301,4.6301,4.6301,4.6301,4.6301,4.6301,4.6301,4.6301,4.6301,4.6351,4.6426,4.6426,4.6778,4.7193,4.959,4.959,4.959,4.959,4.959,4.959,4.959,4.959,4.959,4.959,4.959,4.959,4.959,4.959,4.959,4.959,4.959,4.959,4.959,4.959,4.959,4.959,4.959,4.959,4.959,4.959,4.959,4.959,4.959,4.959,4.959,4.959,4.959,4.959,4.959,4.959,4.959,4.959,4.959,4.959,4.959,4.959,4.959,4.959,4.959,4.959,4.959,4.954,4.9389,4.8937,4.8711,4.8535,4.7958,4.772,4.7658,4.7334,4.6996,4.6423,4.5207,4.4902,4.4963,4.5208,4.5574,4.5878,4.618,4.624,4.6301,4.6301,4.6301,4.6301,4.6301,4.6301,4.6301,4.6301,4.6301,4.6301,4.6301,4.6301,4.6301,4.6301,4.6301,4.6301,4.6301,4.6301,4.6301,4.6301,4.6301,4.6301,4.6301,4.6301,4.6301,4.6301,4.6301,4.6301,4.6301,4.6301,4.6301,4.6301,4.6301,4.6301,4.6301,4.6301,4.6301,4.6301,4.6301,4.6301,4.6301,4.6301,4.6301,4.6301,4.6301,4.6602,4.7004,4.7004,4.733,4.7782,5.0092,5.0042,4.9941,4.964,4.959,4.959,4.959,4.959,4.959,4.959,4.959,4.959,4.959,4.959,4.959,4.959,4.959,4.959,4.959,4.959,4.959,4.959,4.959,4.959,4.959,4.959,4.959,4.959,4.959,4.959,4.959,4.959,4.959,4.959,4.959,4.959,4.959,4.959,4.959,4.959,4.959,4.959,4.959,4.959,4.959,4.959,4.959,4.959,4.9565,4.9289,4.9213,4.9113,4.856,4.836,4.8309,4.7821,4.7181,4.6451,4.5649,4.5184,4.5029,4.5402,4.549,4.5635,4.5939,4.618,4.6301,4.6301,4.6301,4.6301,4.6301,4.6301,4.6301,4.6301,4.6301,4.6301,4.6301,4.6301,4.6301,4.6301,4.6301,4.6301,4.6301,4.6301,4.6301,4.6301,4.6301,4.6301,4.6301,4.6301,4.6301,4.6301,4.6301,4.6301,4.6301,4.6301,4.6301,4.6301,4.6301,4.6301,4.6301,4.6301,4.6301,4.6301,4.6301,4.6301,4.6301,4.6301,4.6476,4.6753,4.6753,4.7079,4.7556,4.7556,4.8083,4.8812,5.0695,5.0619,5.0444,4.9891,4.9791,4.9741,4.9615,4.959,4.959,4.959,4.959,4.959,4.959,4.959,4.959,4.959,4.959,4.959,4.959,4.959,4.959,4.959,4.959,4.959,4.959,4.959,4.959,4.959,4.959,4.959,4.959,4.959,4.959,4.959,4.959,4.959,4.959,4.959,4.959,4.959,4.959,4.959,4.959,4.959,4.959,4.959,4.959,4.959,4.959,4.959,4.959,4.9515,4.9088,4.8962,4.8862,4.8435,4.7615,4.6761,4.6046,4.5621,4.5372,4.5813,4.5771,4.5736,4.6041,4.632,4.6476,4.6326,4.6301,4.6301,4.6301,4.6301,4.6301,4.6301,4.6301,4.6301,4.6301,4.6301,4.6301,4.6301,4.6301,4.6301,4.6301,4.6301,4.6301,4.6301,4.6301,4.6301,4.6301,4.6301,4.6376,4.6502,4.6376,4.6301,4.6301,4.6301,4.6301,4.6301,4.6301,4.6376,4.6502,4.6502,4.6577,4.6677,4.6677,4.6753,4.6878,4.6878,4.7205,4.7707,4.7707,4.8033,4.8485,4.8485,4.9113,4.9967,5.1222,5.1222,5.1021,5.0469,5.0368,5.0193,4.9665,4.959,4.959,4.959,4.959,4.959,4.959,4.959,4.959,4.959,4.959,4.959,4.959,4.959,4.959,4.959,4.959,4.959,4.959,4.959,4.959,4.959,4.959,4.959,4.959,4.959,4.959,4.959,4.959,4.959,4.959,4.959,4.959,4.959,4.959,4.959,4.959,4.959,4.959,4.959,4.959,4.959,4.959,4.959,4.959,4.959,4.954,4.954,4.9515,4.949,4.8973,4.8061,4.6392,4.5886,4.599,4.6626,4.6792,4.6808,4.6934,4.7018,4.6928,4.6426,4.6301,4.6301,4.6301,4.6301,4.6301,4.6301,4.6301,4.6301,4.6301,4.6301,4.6301,4.6301,4.6301,4.6301,4.6301,4.6301,4.6301,4.6301,4.6301,4.6301,4.6301,4.6301,4.6552,4.7054,4.6577,4.6301,4.6301,4.6301,4.6301,4.6301,4.6301,4.6577,4.7018,4.7018,4.733,4.7782,4.7782,4.8083,4.8586,4.8586,4.8912,4.9414,4.9414,4.9741,5.0243,5.0243,5.0619,5.1071,5.185,5.18,5.1624,5.1046,5.0946,5.077,5.0193,5.0117,4.9992,4.964,4.959,4.959,4.959,4.959,4.959,4.959,4.959,4.959,4.959,4.959,4.959,4.959,4.959,4.959,4.959,4.959,4.959,4.959,4.959,4.959,4.959,4.959,4.959,4.959,4.959,4.959,4.959,4.959,4.959,4.959,4.959,4.959,4.959,4.959,4.959,4.959,4.959,4.959,4.959,4.959,4.959,4.959,4.959,4.959,4.9525,4.9332,4.8967,4.8436,4.7759,4.7005,4.648,4.6996,4.7008,4.6942,4.7246,4.7445,4.7456,4.6928,4.6828,4.6702,4.6376,4.6301,4.6301,4.6301,4.6301,4.6301,4.6301,4.6301,4.6426,4.6778,4.6828,4.6954,4.728,4.7305,4.7305,4.7305,4.7305,4.7305,4.7305,4.7305,4.7405,4.7606,4.7405,4.7305,4.7305,4.7305,4.7305,4.7305,4.7305,4.7405,4.7631,4.7983,4.8259,4.846,4.8812,4.9063,4.9289,4.9289,4.9615,5.0117,5.0117,5.0444,5.0921,5.0544,5.077,5.1197,5.2427,5.2352,5.2176,5.1624,5.1548,5.1348,5.077,5.0695,5.0494,4.9916,4.9841,4.9791,4.9615,4.959,4.959,4.959,4.959,4.959,4.959,4.959,4.959,4.959,4.959,4.959,4.959,4.959,4.959,4.959,4.959,4.959,4.959,4.959,4.959,4.959,4.959,4.959,4.959,4.959,4.959,4.959,4.959,4.959,4.959,4.959,4.959,4.959,4.959,4.959,4.959,4.959,4.959,4.959,4.959,4.959,4.9525,4.9332,4.8967,4.86,4.86,4.7783,4.7099,4.7491,4.7458,4.7268,4.7502,4.7769,4.7846,4.732,4.7257,4.7255,4.6878,4.6803,4.6803,4.6803,4.6803,4.6803,4.6803,4.6803,4.6954,4.733,4.738,4.7531,4.7883,4.7908,4.7908,4.7908,4.7908,4.7908,4.7908,4.8083,4.8184,4.8184,4.836,4.8435,4.8435,4.8083,4.8008,4.8184,4.8184,4.836,4.8711,4.9113,4.9389,4.959,4.9967,5.0218,5.0393,5.0393,5.0594,5.0946,5.0946,5.1071,5.1222,5.0845,5.0946,5.1197,5.2929,5.2929,5.2754,5.2201,5.2126,5.1925,5.1373,5.1297,5.1071,5.0494,5.0419,5.0218,4.9665,4.9615,4.9615,4.9615,4.959,4.959,4.959,4.959,4.959,4.959,4.959,4.959,4.959,4.959,4.959,4.959,4.959,4.959,4.959,4.959,4.959,4.959,4.959,4.959,4.959,4.959,4.959,4.959,4.959,4.959,4.959,4.959,4.959,4.959,4.959,4.959,4.959,4.959,4.959,4.959,4.959,4.959,4.959,4.959,4.9162,4.86,4.86,4.805,4.7696,4.8379,4.8313,4.7946,4.7734,4.8021,4.8153,4.7519,4.7683,4.7908,4.7908,4.7908,4.7908,4.7908,4.7908,4.7908,4.7908,4.7908,4.7908,4.7908,4.7908,4.7908,4.7933,4.7933,4.7933,4.7933,4.7933,4.7933,4.7933,4.846,4.8786,4.8786,4.9314,4.959,4.959,4.8485,4.8209,4.8786,4.8786,4.9339,5.0419,5.0419,5.072,5.1272,5.1272,5.1599,5.2101,5.2101,5.2101,5.2101,5.2101,5.1774,5.1272,5.1272,5.1272,5.1197,5.2929,5.2929,5.2879,5.2703,5.2678,5.2503,5.195,5.185,5.1649,5.1096,5.1021,5.0971,5.0795,5.0419,5.0167,5.0167,4.9816,4.959,4.959,4.959,4.959,4.959,4.959,4.959,4.959,4.959,4.959,4.959,4.959,4.959,4.959,4.959,4.959,4.959,4.959,4.959,4.959,4.959,4.959,4.959,4.959,4.959,4.959,4.959,4.959,4.959,4.959,4.959,4.959,4.959,4.959,4.959,4.959,4.959,4.959,4.959,4.9267,4.9007,4.9227,4.8616,4.7828,4.7828,4.7894,4.7977,4.7897,4.8199,4.8401,4.8089,4.8092,4.8094,4.7921,4.7908,4.7908,4.7908,4.7908,4.7908,4.7908,4.7908,4.8058,4.846,4.851,4.8661,4.9063,4.9088,4.9088,4.9088,4.9088,4.9088,4.9088,4.9264,4.9339,4.9339,4.9515,4.959,4.959,4.9264,4.9163,4.9339,4.9339,4.9515,4.9841,5.0243,5.0519,5.0695,5.1096,5.1373,5.1523,5.1523,5.1523,5.1523,5.1523,5.1423,5.1222,5.082,5.067,5.0594,5.2929,5.2929,5.2929,5.2929,5.2929,5.2804,5.2477,5.2427,5.2226,5.1674,5.1599,5.1523,5.1297,5.0971,5.077,5.077,5.0243,4.9916,4.9916,4.9715,4.959,4.959,4.959,4.959,4.959,4.959,4.959,4.959,4.959,4.959,4.959,4.959,4.959,4.959,4.959,4.959,4.959,4.959,4.959,4.959,4.959,4.959,4.959,4.959,4.959,4.959,4.959,4.959,4.959,4.959,4.959,4.959,4.959,4.959,4.959,4.959,4.9332,4.9137,4.9332,4.8812,4.8182,4.7984,4.7828,4.7828,4.7828,4.8092,4.8347,4.8222,4.8303,4.8372,4.8382,4.8371,4.8434,4.8586,4.8586,4.8586,4.8586,4.8586,4.8711,4.9063,4.9113,4.9213,4.9565,4.959,4.959,4.959,4.959,4.959,4.959,4.959,4.959,4.959,4.959,4.959,4.959,4.959,4.9715,4.9916,4.9916,5.0042,5.0268,5.0619,5.077,5.077,5.1122,5.1272,5.1272,5.1272,5.1147,5.0946,5.0946,5.0795,5.0569,5.0218,5.0092,5.0042,5.2929,5.2929,5.2929,5.2929,5.2929,5.2929,5.2929,5.2929,5.2754,5.2251,5.2176,5.2,5.1498,5.1398,5.1348,5.1348,5.082,5.0494,5.0494,5.0017,4.9715,4.9665,4.9665,4.964,4.959,4.959,4.959,4.959,4.959,4.959,4.959,4.959,4.959,4.959,4.959,4.959,4.959,4.959,4.959,4.959,4.959,4.959,4.959,4.959,4.959,4.959,4.959,4.959,4.959,4.959,4.959,4.959,4.959,4.959,4.959,4.959,4.9396,4.9137,4.9137,4.8902,4.8666,4.8666,4.8116,4.7563,4.7563,4.7762,4.796,4.796,4.8313,4.8641,4.9007,4.9072,4.9202,4.9525,4.959,4.959,4.959,4.959,4.959,4.959,4.959,4.959,4.959,4.959,4.959,4.959,4.959,4.959,4.959,4.959,4.959,4.959,4.959,4.959,4.959,4.959,4.9841,5.0343,5.0343,5.0619,5.1122,5.1122,5.1122,5.1122,5.1122,5.1122,5.1122,5.1122,5.082,5.0343,5.0343,5.0042,4.959,4.959,4.959,4.959,5.2929,5.2929,5.2929,5.2929,5.2929,5.2929,5.2929,5.2929,5.2879,5.2754,5.2754,5.2703,5.2578,5.2176,5.1925,5.1925,5.1423,5.1096,5.1096,5.0996,5.072,5.0268,5.0243,5.0042,4.9615,4.959,4.959,4.959,4.959,4.959,4.959,4.959,4.959,4.959,4.959,4.959,4.959,4.959,4.959,4.959,4.959,4.959,4.959,4.959,4.959,4.959,4.959,4.959,4.959,4.959,4.959,4.959,4.959,4.959,4.959,4.959,4.9525,4.9461,4.9461,4.9267,4.9007,4.9007,4.8706,4.8248,4.796,4.7762,4.7696,4.796,4.8092,4.8248,4.8641,4.8877,4.9137,4.9202,4.9396,4.959,4.959,4.959,4.959,4.959,4.959,4.959,4.959,4.959,4.959,4.959,4.959,4.959,4.959,4.959,4.959,4.959,4.959,4.959,4.959,4.959,4.9665,4.9766,4.9766,4.9841,4.9967,4.9967,4.9967,4.9967,4.9967,4.9967,4.9967,4.9967,4.9891,4.9766,4.9766,4.969,4.959,4.959,4.959,4.959,5.2929,5.2929,5.2929,5.2929,5.2929,5.2929,5.2929,5.2929,5.2929,5.2929,5.2929,5.2929,5.2929,5.2678,5.2503,5.2503,5.2,5.1674,5.1674,5.1423,5.1147,5.0845,5.082,5.0695,5.0419,5.0393,5.0142,4.959,4.959,4.9715,4.9992,4.9992,5.0142,5.0393,5.0393,5.0393,5.0393,5.0393,5.0393,5.0393,5.0393,5.0393,5.0393,5.0393,5.0393,5.0368,5.0092,4.9816,4.959,4.959,4.959,4.959,4.959,4.959,4.959,4.959,4.959,4.959,4.959,4.9461,4.9332,4.9332,4.9072,4.8706,4.8158,4.7828,4.7762,4.7762,4.7762,4.7894,4.8248,4.842,4.8682,4.9072,4.9267,4.9396,4.959,4.959,4.959,4.959,4.959,4.959,4.959,4.959,4.959,4.959,4.959,4.959,4.959,4.959,4.959,4.959,4.959,4.959,4.959,4.959,4.959,4.959,4.959,4.959,4.959,4.959,4.959,4.959,4.959,4.959,4.959,4.959,4.959,4.959,4.959,4.959,4.959,4.959,4.959,4.959,5.2929,5.2929,5.2929,5.2929,5.2929,5.2929,5.2929,5.2929,5.2929,5.2929,5.2929,5.2929,5.2929,5.2929,5.2929,5.2929,5.2503,5.2251,5.2251,5.1825,5.1523,5.1423,5.1423,5.1373,5.1272,5.1272,5.082,4.9891,4.9891,5.0117,5.0569,5.0569,5.082,5.1272,5.1272,5.1272,5.1272,5.1272,5.1272,5.1272,5.1272,5.1272,5.1272,5.1272,5.1272,5.1222,5.0745,5.0268,4.9891,4.9891,4.9816,4.9741,4.9741,4.9665,4.959,4.959,4.959,4.959,4.959,4.959,4.959,4.959,4.9396,4.9007,4.8355,4.8158,4.8026,4.763,4.7563,4.763,4.7894,4.796,4.8223,4.8812,4.9007,4.9202,4.9461,4.9525,4.959,4.959,4.959,4.959,4.959,4.959,4.959,4.959,4.959,4.959,4.959,4.959,4.959,4.959,4.959,4.959,4.959,4.959,4.959,4.959,4.959,4.959,4.959,4.959,4.959,4.959,4.959,4.959,4.959,4.959,4.959,4.959,4.959,4.959,4.959,4.959,4.959,4.959,5.2929,5.2929,5.2929,5.2929,5.2929,5.2929,5.2929,5.2929,5.2929,5.2929,5.2929,5.2929,5.2929,5.2929,5.2929,5.2929,5.2854,5.2804,5.2804,5.2754,5.2503,5.2026,5.2,5.1774,5.1297,5.1272,5.1197,5.1046,5.1046,5.1096,5.1172,5.1172,5.1197,5.1272,5.1272,5.1272,5.1272,5.1272,5.1272,5.1272,5.1272,5.1272,5.1272,5.1272,5.1272,5.1272,5.1197,5.1122,5.1046,5.1046,5.072,5.0293,5.0293,4.9967,4.959,4.959,4.959,4.959,4.959,4.959,4.959,4.959,4.959,4.9396,4.9072,4.8706,4.8379,4.8026,4.796,4.7828,4.763,4.7828,4.8026,4.8158,4.8682,4.9137,4.9137,4.9396,4.959,4.959,4.959,4.959,4.959,4.959,4.959,4.959,4.959,4.959,4.959,4.959,4.959,4.959,4.959,4.959,4.959,4.959,4.959,4.959,4.959,4.959,4.959,4.959,4.959,4.959,4.959,4.959,4.959,4.959,4.959,4.959,4.959,4.959,4.959,4.959,4.959,4.959,5.2929,5.2929,5.2929,5.2929,5.2929,5.2929,5.2929,5.2929,5.2929,5.2929,5.2929,5.2929,5.2929,5.2929,5.2929,5.2929,5.2929,5.2929,5.2929,5.2929,5.2829,5.2578,5.2578,5.2452,5.2201,5.2201,5.2201,5.2201,5.1574,5.1448,5.1749,5.1749,5.19,5.2201,5.2201,5.2201,5.2201,5.2201,5.2201,5.2201,5.2201,5.2201,5.2201,5.2201,5.2201,5.2151,5.185,5.1548,5.1272,5.1272,5.1096,5.0896,5.0896,5.0745,5.0469,5.0142,5.0067,4.9992,4.9665,4.959,4.959,4.959,4.959,4.9525,4.9396,4.9267,4.8967,4.8158,4.8026,4.7894,4.7563,4.763,4.7762,4.796,4.8289,4.8616,4.9072,4.9202,4.9396,4.959,4.9866,5.0067,5.0067,5.0343,5.0544,5.0544,5.0544,5.0544,5.0544,5.0544,5.0544,5.0544,5.0544,5.0544,5.0544,5.0544,5.0544,5.0544,5.0544,5.0218,4.959,4.959,4.959,4.959,4.959,4.959,4.959,4.959,4.959,4.959,4.959,4.959,4.959,4.959,4.959,4.959]}]]